<?xml version="1.0" encoding="UTF-8" standalone="no" ?>
<gpx xmlns="http://www.topografix.com/GPX/1/1" xmlns:xsi="http://www.w3.org/2001/XMLSchema-instance" xsi:schemaLocation="http://www.topografix.com/GPX/1/1 http://www.topografix.com/GPX/1/1/gpx.xsd" version="1.1" creator="VisuGPX - https://www.visugpx.com">
  <metadata>
    <name>vtt autour de la chapelle en vercors</name>
    <desc><![CDATA[vtt au départ du gîte de carline vers la chapelle
à l\'alti 795 m positif et négatif]]></desc>
  </metadata>
  <trk>
    <name><![CDATA[2012-09-16-01]]></name>
    <trkseg>
      <trkpt lat="44.90904" lon="5.40325">
        <ele>1387.4</ele>
        <time>2012-09-16T06:21:07Z</time>
      </trkpt>
      <trkpt lat="44.90943" lon="5.40317">
        <ele>1549</ele>
        <time>2012-09-16T06:21:08Z</time>
      </trkpt>
      <trkpt lat="44.90943" lon="5.40318">
        <ele>1554.3</ele>
        <time>2012-09-16T06:21:09Z</time>
      </trkpt>
      <trkpt lat="44.90928" lon="5.40321">
        <ele>1504.8</ele>
        <time>2012-09-16T06:21:11Z</time>
      </trkpt>
      <trkpt lat="44.90924" lon="5.40327">
        <ele>1499</ele>
        <time>2012-09-16T06:21:18Z</time>
      </trkpt>
      <trkpt lat="44.90903" lon="5.40336">
        <ele>1442.4</ele>
        <time>2012-09-16T06:21:34Z</time>
      </trkpt>
      <trkpt lat="44.9088" lon="5.40349">
        <ele>1380.5</ele>
        <time>2012-09-16T06:21:38Z</time>
      </trkpt>
      <trkpt lat="44.90844" lon="5.40377">
        <ele>1252.5</ele>
        <time>2012-09-16T06:21:43Z</time>
      </trkpt>
      <trkpt lat="44.90838" lon="5.40376">
        <ele>1224.3</ele>
        <time>2012-09-16T06:21:47Z</time>
      </trkpt>
      <trkpt lat="44.90844" lon="5.40361">
        <ele>1234.5</ele>
        <time>2012-09-16T06:21:51Z</time>
      </trkpt>
      <trkpt lat="44.90834" lon="5.40361">
        <ele>1208.4</ele>
        <time>2012-09-16T06:21:55Z</time>
      </trkpt>
      <trkpt lat="44.90826" lon="5.40362">
        <ele>1191</ele>
        <time>2012-09-16T06:21:58Z</time>
      </trkpt>
      <trkpt lat="44.90821" lon="5.40361">
        <ele>1172.5</ele>
        <time>2012-09-16T06:22:02Z</time>
      </trkpt>
      <trkpt lat="44.90826" lon="5.40374">
        <ele>1152.4</ele>
        <time>2012-09-16T06:22:09Z</time>
      </trkpt>
      <trkpt lat="44.90832" lon="5.40379">
        <ele>1144.5</ele>
        <time>2012-09-16T06:22:14Z</time>
      </trkpt>
      <trkpt lat="44.90843" lon="5.40387">
        <ele>1137.4</ele>
        <time>2012-09-16T06:22:22Z</time>
      </trkpt>
      <trkpt lat="44.90846" lon="5.40394">
        <ele>1134</ele>
        <time>2012-09-16T06:22:26Z</time>
      </trkpt>
      <trkpt lat="44.90852" lon="5.40402">
        <ele>1131</ele>
        <time>2012-09-16T06:22:31Z</time>
      </trkpt>
      <trkpt lat="44.9086" lon="5.40418">
        <ele>1128</ele>
        <time>2012-09-16T06:22:40Z</time>
      </trkpt>
      <trkpt lat="44.90876" lon="5.40444">
        <ele>1124.4</ele>
        <time>2012-09-16T06:22:55Z</time>
      </trkpt>
      <trkpt lat="44.90891" lon="5.40468">
        <ele>1122.8</ele>
        <time>2012-09-16T06:23:06Z</time>
      </trkpt>
      <trkpt lat="44.90898" lon="5.40482">
        <ele>1123.5</ele>
        <time>2012-09-16T06:23:12Z</time>
      </trkpt>
      <trkpt lat="44.90901" lon="5.40487">
        <ele>1123</ele>
        <time>2012-09-16T06:23:15Z</time>
      </trkpt>
      <trkpt lat="44.90913" lon="5.40508">
        <ele>1122.9</ele>
        <time>2012-09-16T06:23:27Z</time>
      </trkpt>
      <trkpt lat="44.90925" lon="5.40526">
        <ele>1123.5</ele>
        <time>2012-09-16T06:23:39Z</time>
      </trkpt>
      <trkpt lat="44.90931" lon="5.40531">
        <ele>1124</ele>
        <time>2012-09-16T06:23:41Z</time>
      </trkpt>
      <trkpt lat="44.90943" lon="5.40537">
        <ele>1124.3</ele>
        <time>2012-09-16T06:23:48Z</time>
      </trkpt>
      <trkpt lat="44.90956" lon="5.40539">
        <ele>1124.4</ele>
        <time>2012-09-16T06:23:54Z</time>
      </trkpt>
      <trkpt lat="44.90968" lon="5.40535">
        <ele>1124.8</ele>
        <time>2012-09-16T06:24:00Z</time>
      </trkpt>
      <trkpt lat="44.90972" lon="5.40532">
        <ele>1125</ele>
        <time>2012-09-16T06:24:02Z</time>
      </trkpt>
      <trkpt lat="44.9098" lon="5.40523">
        <ele>1127.4</ele>
        <time>2012-09-16T06:24:09Z</time>
      </trkpt>
      <trkpt lat="44.91" lon="5.40508">
        <ele>1129</ele>
        <time>2012-09-16T06:24:24Z</time>
      </trkpt>
      <trkpt lat="44.91011" lon="5.40504">
        <ele>1126.9</ele>
        <time>2012-09-16T06:24:32Z</time>
      </trkpt>
      <trkpt lat="44.91016" lon="5.40504">
        <ele>1125.5</ele>
        <time>2012-09-16T06:24:36Z</time>
      </trkpt>
      <trkpt lat="44.91025" lon="5.40505">
        <ele>1124</ele>
        <time>2012-09-16T06:24:41Z</time>
      </trkpt>
      <trkpt lat="44.91036" lon="5.40509">
        <ele>1122.5</ele>
        <time>2012-09-16T06:24:47Z</time>
      </trkpt>
      <trkpt lat="44.91045" lon="5.4051">
        <ele>1125</ele>
        <time>2012-09-16T06:24:52Z</time>
      </trkpt>
      <trkpt lat="44.91065" lon="5.40517">
        <ele>1122</ele>
        <time>2012-09-16T06:25:03Z</time>
      </trkpt>
      <trkpt lat="44.91083" lon="5.40519">
        <ele>1121</ele>
        <time>2012-09-16T06:25:10Z</time>
      </trkpt>
      <trkpt lat="44.91092" lon="5.40521">
        <ele>1121</ele>
        <time>2012-09-16T06:25:13Z</time>
      </trkpt>
      <trkpt lat="44.91101" lon="5.40526">
        <ele>1120.9</ele>
        <time>2012-09-16T06:25:16Z</time>
      </trkpt>
      <trkpt lat="44.91108" lon="5.40535">
        <ele>1120</ele>
        <time>2012-09-16T06:25:19Z</time>
      </trkpt>
      <trkpt lat="44.91114" lon="5.40544">
        <ele>1119</ele>
        <time>2012-09-16T06:25:22Z</time>
      </trkpt>
      <trkpt lat="44.91123" lon="5.4055">
        <ele>1118.5</ele>
        <time>2012-09-16T06:25:25Z</time>
      </trkpt>
      <trkpt lat="44.91153" lon="5.40561">
        <ele>1116.5</ele>
        <time>2012-09-16T06:25:34Z</time>
      </trkpt>
      <trkpt lat="44.91156" lon="5.40562">
        <ele>1116.5</ele>
        <time>2012-09-16T06:25:35Z</time>
      </trkpt>
      <trkpt lat="44.9118" lon="5.40581">
        <ele>1115.4</ele>
        <time>2012-09-16T06:25:43Z</time>
      </trkpt>
      <trkpt lat="44.91196" lon="5.40589">
        <ele>1114.4</ele>
        <time>2012-09-16T06:25:47Z</time>
      </trkpt>
      <trkpt lat="44.91213" lon="5.40593">
        <ele>1113</ele>
        <time>2012-09-16T06:25:51Z</time>
      </trkpt>
      <trkpt lat="44.91222" lon="5.40593">
        <ele>1112.8</ele>
        <time>2012-09-16T06:25:53Z</time>
      </trkpt>
      <trkpt lat="44.91252" lon="5.40584">
        <ele>1112.5</ele>
        <time>2012-09-16T06:26:00Z</time>
      </trkpt>
      <trkpt lat="44.91265" lon="5.40583">
        <ele>1112</ele>
        <time>2012-09-16T06:26:03Z</time>
      </trkpt>
      <trkpt lat="44.91274" lon="5.40586">
        <ele>1111.8</ele>
        <time>2012-09-16T06:26:05Z</time>
      </trkpt>
      <trkpt lat="44.91282" lon="5.4059">
        <ele>1111.3</ele>
        <time>2012-09-16T06:26:07Z</time>
      </trkpt>
      <trkpt lat="44.913" lon="5.40607">
        <ele>1109.5</ele>
        <time>2012-09-16T06:26:12Z</time>
      </trkpt>
      <trkpt lat="44.91307" lon="5.40611">
        <ele>1108.9</ele>
        <time>2012-09-16T06:26:14Z</time>
      </trkpt>
      <trkpt lat="44.91321" lon="5.40615">
        <ele>1107</ele>
        <time>2012-09-16T06:26:18Z</time>
      </trkpt>
      <trkpt lat="44.91327" lon="5.40618">
        <ele>1105.5</ele>
        <time>2012-09-16T06:26:20Z</time>
      </trkpt>
      <trkpt lat="44.91336" lon="5.40626">
        <ele>1103.5</ele>
        <time>2012-09-16T06:26:23Z</time>
      </trkpt>
      <trkpt lat="44.91343" lon="5.40631">
        <ele>1102.5</ele>
        <time>2012-09-16T06:26:25Z</time>
      </trkpt>
      <trkpt lat="44.91373" lon="5.40642">
        <ele>1099.5</ele>
        <time>2012-09-16T06:26:35Z</time>
      </trkpt>
      <trkpt lat="44.91391" lon="5.40647">
        <ele>1099.8</ele>
        <time>2012-09-16T06:26:41Z</time>
      </trkpt>
      <trkpt lat="44.91399" lon="5.40647">
        <ele>1100</ele>
        <time>2012-09-16T06:26:44Z</time>
      </trkpt>
      <trkpt lat="44.9141" lon="5.4064">
        <ele>1102.9</ele>
        <time>2012-09-16T06:26:50Z</time>
      </trkpt>
      <trkpt lat="44.91419" lon="5.4063">
        <ele>1106</ele>
        <time>2012-09-16T06:26:55Z</time>
      </trkpt>
      <trkpt lat="44.91423" lon="5.40627">
        <ele>1106.5</ele>
        <time>2012-09-16T06:26:57Z</time>
      </trkpt>
      <trkpt lat="44.91441" lon="5.40611">
        <ele>1109.5</ele>
        <time>2012-09-16T06:27:04Z</time>
      </trkpt>
      <trkpt lat="44.91453" lon="5.40601">
        <ele>1108.8</ele>
        <time>2012-09-16T06:27:08Z</time>
      </trkpt>
      <trkpt lat="44.9147" lon="5.40581">
        <ele>1108.5</ele>
        <time>2012-09-16T06:27:17Z</time>
      </trkpt>
      <trkpt lat="44.91482" lon="5.4056">
        <ele>1107.8</ele>
        <time>2012-09-16T06:27:24Z</time>
      </trkpt>
      <trkpt lat="44.91485" lon="5.40553">
        <ele>1108.5</ele>
        <time>2012-09-16T06:27:26Z</time>
      </trkpt>
      <trkpt lat="44.91495" lon="5.4054">
        <ele>1107.8</ele>
        <time>2012-09-16T06:27:31Z</time>
      </trkpt>
      <trkpt lat="44.91502" lon="5.40531">
        <ele>1108.5</ele>
        <time>2012-09-16T06:27:35Z</time>
      </trkpt>
      <trkpt lat="44.91522" lon="5.40515">
        <ele>1110</ele>
        <time>2012-09-16T06:27:43Z</time>
      </trkpt>
      <trkpt lat="44.91536" lon="5.40498">
        <ele>1105.5</ele>
        <time>2012-09-16T06:27:48Z</time>
      </trkpt>
      <trkpt lat="44.91549" lon="5.40489">
        <ele>1101</ele>
        <time>2012-09-16T06:27:53Z</time>
      </trkpt>
      <trkpt lat="44.91554" lon="5.40476">
        <ele>1097</ele>
        <time>2012-09-16T06:27:57Z</time>
      </trkpt>
      <trkpt lat="44.91554" lon="5.40466">
        <ele>1093.8</ele>
        <time>2012-09-16T06:28:00Z</time>
      </trkpt>
      <trkpt lat="44.91556" lon="5.40454">
        <ele>1091</ele>
        <time>2012-09-16T06:28:03Z</time>
      </trkpt>
      <trkpt lat="44.91558" lon="5.40445">
        <ele>1089.5</ele>
        <time>2012-09-16T06:28:05Z</time>
      </trkpt>
      <trkpt lat="44.91562" lon="5.40431">
        <ele>1086.8</ele>
        <time>2012-09-16T06:28:09Z</time>
      </trkpt>
      <trkpt lat="44.91567" lon="5.40405">
        <ele>1083</ele>
        <time>2012-09-16T06:28:20Z</time>
      </trkpt>
      <trkpt lat="44.91567" lon="5.40401">
        <ele>1082.5</ele>
        <time>2012-09-16T06:28:22Z</time>
      </trkpt>
      <trkpt lat="44.91569" lon="5.40386">
        <ele>1083.3</ele>
        <time>2012-09-16T06:28:27Z</time>
      </trkpt>
      <trkpt lat="44.91578" lon="5.40356">
        <ele>1080</ele>
        <time>2012-09-16T06:28:37Z</time>
      </trkpt>
      <trkpt lat="44.91582" lon="5.4034">
        <ele>1078.3</ele>
        <time>2012-09-16T06:28:42Z</time>
      </trkpt>
      <trkpt lat="44.91586" lon="5.40317">
        <ele>1075.8</ele>
        <time>2012-09-16T06:28:49Z</time>
      </trkpt>
      <trkpt lat="44.91587" lon="5.40306">
        <ele>1074.4</ele>
        <time>2012-09-16T06:28:52Z</time>
      </trkpt>
      <trkpt lat="44.91586" lon="5.40279">
        <ele>1072.9</ele>
        <time>2012-09-16T06:28:59Z</time>
      </trkpt>
      <trkpt lat="44.91583" lon="5.40251">
        <ele>1071.9</ele>
        <time>2012-09-16T06:29:09Z</time>
      </trkpt>
      <trkpt lat="44.91571" lon="5.4022">
        <ele>1068.3</ele>
        <time>2012-09-16T06:29:23Z</time>
      </trkpt>
      <trkpt lat="44.91572" lon="5.40212">
        <ele>1067</ele>
        <time>2012-09-16T06:29:30Z</time>
      </trkpt>
      <trkpt lat="44.91579" lon="5.40207">
        <ele>1065.9</ele>
        <time>2012-09-16T06:29:34Z</time>
      </trkpt>
      <trkpt lat="44.91582" lon="5.40202">
        <ele>1065</ele>
        <time>2012-09-16T06:29:36Z</time>
      </trkpt>
      <trkpt lat="44.91588" lon="5.40184">
        <ele>1063.5</ele>
        <time>2012-09-16T06:29:42Z</time>
      </trkpt>
      <trkpt lat="44.91593" lon="5.40178">
        <ele>1062.8</ele>
        <time>2012-09-16T06:29:45Z</time>
      </trkpt>
      <trkpt lat="44.916" lon="5.40174">
        <ele>1062.9</ele>
        <time>2012-09-16T06:29:48Z</time>
      </trkpt>
      <trkpt lat="44.91606" lon="5.40174">
        <ele>1062.5</ele>
        <time>2012-09-16T06:29:51Z</time>
      </trkpt>
      <trkpt lat="44.91614" lon="5.4017">
        <ele>1062.5</ele>
        <time>2012-09-16T06:29:54Z</time>
      </trkpt>
      <trkpt lat="44.91619" lon="5.40161">
        <ele>1063</ele>
        <time>2012-09-16T06:29:57Z</time>
      </trkpt>
      <trkpt lat="44.9163" lon="5.40152">
        <ele>1063.8</ele>
        <time>2012-09-16T06:30:04Z</time>
      </trkpt>
      <trkpt lat="44.91637" lon="5.40143">
        <ele>1064</ele>
        <time>2012-09-16T06:30:08Z</time>
      </trkpt>
      <trkpt lat="44.91645" lon="5.40129">
        <ele>1063</ele>
        <time>2012-09-16T06:30:14Z</time>
      </trkpt>
      <trkpt lat="44.91661" lon="5.40104">
        <ele>1061</ele>
        <time>2012-09-16T06:30:25Z</time>
      </trkpt>
      <trkpt lat="44.91679" lon="5.40081">
        <ele>1060</ele>
        <time>2012-09-16T06:30:36Z</time>
      </trkpt>
      <trkpt lat="44.91689" lon="5.40074">
        <ele>1060.8</ele>
        <time>2012-09-16T06:30:42Z</time>
      </trkpt>
      <trkpt lat="44.91703" lon="5.4006">
        <ele>1061.4</ele>
        <time>2012-09-16T06:30:52Z</time>
      </trkpt>
      <trkpt lat="44.91709" lon="5.40052">
        <ele>1061.5</ele>
        <time>2012-09-16T06:30:57Z</time>
      </trkpt>
      <trkpt lat="44.91716" lon="5.40041">
        <ele>1061.5</ele>
        <time>2012-09-16T06:31:04Z</time>
      </trkpt>
      <trkpt lat="44.91716" lon="5.40039">
        <ele>1060</ele>
        <time>2012-09-16T06:31:41Z</time>
      </trkpt>
      <trkpt lat="44.91725" lon="5.4003">
        <ele>1060.4</ele>
        <time>2012-09-16T06:31:48Z</time>
      </trkpt>
      <trkpt lat="44.91749" lon="5.40012">
        <ele>1063</ele>
        <time>2012-09-16T06:32:00Z</time>
      </trkpt>
      <trkpt lat="44.91758" lon="5.39996">
        <ele>1064.5</ele>
        <time>2012-09-16T06:32:10Z</time>
      </trkpt>
      <trkpt lat="44.91767" lon="5.39964">
        <ele>1065.5</ele>
        <time>2012-09-16T06:32:27Z</time>
      </trkpt>
      <trkpt lat="44.9177" lon="5.39953">
        <ele>1067</ele>
        <time>2012-09-16T06:32:33Z</time>
      </trkpt>
      <trkpt lat="44.91775" lon="5.39944">
        <ele>1069.5</ele>
        <time>2012-09-16T06:32:44Z</time>
      </trkpt>
      <trkpt lat="44.9178" lon="5.39937">
        <ele>1070.4</ele>
        <time>2012-09-16T06:32:52Z</time>
      </trkpt>
      <trkpt lat="44.91804" lon="5.39933">
        <ele>1070.5</ele>
        <time>2012-09-16T06:33:12Z</time>
      </trkpt>
      <trkpt lat="44.91819" lon="5.39934">
        <ele>1070.3</ele>
        <time>2012-09-16T06:33:20Z</time>
      </trkpt>
      <trkpt lat="44.91832" lon="5.39933">
        <ele>1071.5</ele>
        <time>2012-09-16T06:33:28Z</time>
      </trkpt>
      <trkpt lat="44.91836" lon="5.3993">
        <ele>1072.9</ele>
        <time>2012-09-16T06:33:32Z</time>
      </trkpt>
      <trkpt lat="44.91838" lon="5.39929">
        <ele>1073</ele>
        <time>2012-09-16T06:33:43Z</time>
      </trkpt>
      <trkpt lat="44.91861" lon="5.39932">
        <ele>1075.3</ele>
        <time>2012-09-16T06:34:14Z</time>
      </trkpt>
      <trkpt lat="44.91878" lon="5.39929">
        <ele>1076.4</ele>
        <time>2012-09-16T06:34:24Z</time>
      </trkpt>
      <trkpt lat="44.91892" lon="5.39924">
        <ele>1077.8</ele>
        <time>2012-09-16T06:34:31Z</time>
      </trkpt>
      <trkpt lat="44.91911" lon="5.39928">
        <ele>1077.5</ele>
        <time>2012-09-16T06:34:40Z</time>
      </trkpt>
      <trkpt lat="44.91922" lon="5.39932">
        <ele>1078</ele>
        <time>2012-09-16T06:34:45Z</time>
      </trkpt>
      <trkpt lat="44.91936" lon="5.39936">
        <ele>1077.9</ele>
        <time>2012-09-16T06:34:53Z</time>
      </trkpt>
      <trkpt lat="44.91946" lon="5.39938">
        <ele>1078</ele>
        <time>2012-09-16T06:34:58Z</time>
      </trkpt>
      <trkpt lat="44.91954" lon="5.39938">
        <ele>1078.5</ele>
        <time>2012-09-16T06:35:02Z</time>
      </trkpt>
      <trkpt lat="44.91962" lon="5.39937">
        <ele>1078.5</ele>
        <time>2012-09-16T06:35:06Z</time>
      </trkpt>
      <trkpt lat="44.91969" lon="5.39938">
        <ele>1078.5</ele>
        <time>2012-09-16T06:35:10Z</time>
      </trkpt>
      <trkpt lat="44.91982" lon="5.39942">
        <ele>1078</ele>
        <time>2012-09-16T06:35:16Z</time>
      </trkpt>
      <trkpt lat="44.91994" lon="5.39948">
        <ele>1077</ele>
        <time>2012-09-16T06:35:24Z</time>
      </trkpt>
      <trkpt lat="44.92013" lon="5.39952">
        <ele>1074.8</ele>
        <time>2012-09-16T06:35:42Z</time>
      </trkpt>
      <trkpt lat="44.92025" lon="5.39958">
        <ele>1074</ele>
        <time>2012-09-16T06:35:46Z</time>
      </trkpt>
      <trkpt lat="44.92038" lon="5.39971">
        <ele>1073.4</ele>
        <time>2012-09-16T06:35:54Z</time>
      </trkpt>
      <trkpt lat="44.92059" lon="5.39981">
        <ele>1075</ele>
        <time>2012-09-16T06:36:09Z</time>
      </trkpt>
      <trkpt lat="44.92079" lon="5.39989">
        <ele>1075.3</ele>
        <time>2012-09-16T06:36:23Z</time>
      </trkpt>
      <trkpt lat="44.92103" lon="5.39999">
        <ele>1072.3</ele>
        <time>2012-09-16T06:36:33Z</time>
      </trkpt>
      <trkpt lat="44.92131" lon="5.40021">
        <ele>1069.8</ele>
        <time>2012-09-16T06:36:46Z</time>
      </trkpt>
      <trkpt lat="44.92139" lon="5.40024">
        <ele>1069</ele>
        <time>2012-09-16T06:36:49Z</time>
      </trkpt>
      <trkpt lat="44.92152" lon="5.40024">
        <ele>1067.3</ele>
        <time>2012-09-16T06:36:55Z</time>
      </trkpt>
      <trkpt lat="44.9216" lon="5.40028">
        <ele>1066.4</ele>
        <time>2012-09-16T06:36:58Z</time>
      </trkpt>
      <trkpt lat="44.92168" lon="5.40035">
        <ele>1066</ele>
        <time>2012-09-16T06:37:01Z</time>
      </trkpt>
      <trkpt lat="44.92174" lon="5.40043">
        <ele>1066</ele>
        <time>2012-09-16T06:37:04Z</time>
      </trkpt>
      <trkpt lat="44.92177" lon="5.4005">
        <ele>1065.5</ele>
        <time>2012-09-16T06:37:07Z</time>
      </trkpt>
      <trkpt lat="44.9218" lon="5.40062">
        <ele>1065</ele>
        <time>2012-09-16T06:37:11Z</time>
      </trkpt>
      <trkpt lat="44.92184" lon="5.40071">
        <ele>1064</ele>
        <time>2012-09-16T06:37:15Z</time>
      </trkpt>
      <trkpt lat="44.92192" lon="5.40082">
        <ele>1063</ele>
        <time>2012-09-16T06:37:20Z</time>
      </trkpt>
      <trkpt lat="44.92213" lon="5.40091">
        <ele>1061.5</ele>
        <time>2012-09-16T06:37:31Z</time>
      </trkpt>
      <trkpt lat="44.92222" lon="5.40094">
        <ele>1061</ele>
        <time>2012-09-16T06:37:35Z</time>
      </trkpt>
      <trkpt lat="44.92232" lon="5.40094">
        <ele>1060.5</ele>
        <time>2012-09-16T06:37:39Z</time>
      </trkpt>
      <trkpt lat="44.92246" lon="5.40091">
        <ele>1059</ele>
        <time>2012-09-16T06:37:46Z</time>
      </trkpt>
      <trkpt lat="44.92257" lon="5.40087">
        <ele>1057.8</ele>
        <time>2012-09-16T06:37:51Z</time>
      </trkpt>
      <trkpt lat="44.92274" lon="5.40083">
        <ele>1057.8</ele>
        <time>2012-09-16T06:37:58Z</time>
      </trkpt>
      <trkpt lat="44.92282" lon="5.40076">
        <ele>1058.5</ele>
        <time>2012-09-16T06:38:04Z</time>
      </trkpt>
      <trkpt lat="44.92287" lon="5.40065">
        <ele>1059</ele>
        <time>2012-09-16T06:38:08Z</time>
      </trkpt>
      <trkpt lat="44.92292" lon="5.40047">
        <ele>1059</ele>
        <time>2012-09-16T06:38:15Z</time>
      </trkpt>
      <trkpt lat="44.92294" lon="5.40035">
        <ele>1058.5</ele>
        <time>2012-09-16T06:38:19Z</time>
      </trkpt>
      <trkpt lat="44.92295" lon="5.4">
        <ele>1058</ele>
        <time>2012-09-16T06:38:29Z</time>
      </trkpt>
      <trkpt lat="44.92298" lon="5.3999">
        <ele>1057.5</ele>
        <time>2012-09-16T06:38:32Z</time>
      </trkpt>
      <trkpt lat="44.92305" lon="5.39974">
        <ele>1058.4</ele>
        <time>2012-09-16T06:38:38Z</time>
      </trkpt>
      <trkpt lat="44.92311" lon="5.39965">
        <ele>1058.8</ele>
        <time>2012-09-16T06:38:42Z</time>
      </trkpt>
      <trkpt lat="44.92318" lon="5.39957">
        <ele>1059.4</ele>
        <time>2012-09-16T06:38:47Z</time>
      </trkpt>
      <trkpt lat="44.92334" lon="5.39928">
        <ele>1059</ele>
        <time>2012-09-16T06:39:00Z</time>
      </trkpt>
      <trkpt lat="44.92338" lon="5.39922">
        <ele>1059</ele>
        <time>2012-09-16T06:39:02Z</time>
      </trkpt>
      <trkpt lat="44.9235" lon="5.39917">
        <ele>1059.3</ele>
        <time>2012-09-16T06:39:08Z</time>
      </trkpt>
      <trkpt lat="44.92359" lon="5.39899">
        <ele>1058.4</ele>
        <time>2012-09-16T06:39:15Z</time>
      </trkpt>
      <trkpt lat="44.92361" lon="5.39891">
        <ele>1057.9</ele>
        <time>2012-09-16T06:39:17Z</time>
      </trkpt>
      <trkpt lat="44.92367" lon="5.39879">
        <ele>1057.5</ele>
        <time>2012-09-16T06:39:20Z</time>
      </trkpt>
      <trkpt lat="44.92377" lon="5.39848">
        <ele>1056.8</ele>
        <time>2012-09-16T06:39:29Z</time>
      </trkpt>
      <trkpt lat="44.92383" lon="5.39835">
        <ele>1056.5</ele>
        <time>2012-09-16T06:39:34Z</time>
      </trkpt>
      <trkpt lat="44.92387" lon="5.39831">
        <ele>1056.8</ele>
        <time>2012-09-16T06:39:36Z</time>
      </trkpt>
      <trkpt lat="44.92396" lon="5.39827">
        <ele>1057</ele>
        <time>2012-09-16T06:39:40Z</time>
      </trkpt>
      <trkpt lat="44.924" lon="5.39828">
        <ele>1057.8</ele>
        <time>2012-09-16T06:39:42Z</time>
      </trkpt>
      <trkpt lat="44.9241" lon="5.39833">
        <ele>1058.8</ele>
        <time>2012-09-16T06:39:48Z</time>
      </trkpt>
      <trkpt lat="44.92426" lon="5.39835">
        <ele>1059.4</ele>
        <time>2012-09-16T06:39:56Z</time>
      </trkpt>
      <trkpt lat="44.92452" lon="5.39845">
        <ele>1059.4</ele>
        <time>2012-09-16T06:40:08Z</time>
      </trkpt>
      <trkpt lat="44.9246" lon="5.39852">
        <ele>1059</ele>
        <time>2012-09-16T06:40:11Z</time>
      </trkpt>
      <trkpt lat="44.92471" lon="5.39862">
        <ele>1059</ele>
        <time>2012-09-16T06:40:16Z</time>
      </trkpt>
      <trkpt lat="44.92484" lon="5.39872">
        <ele>1061</ele>
        <time>2012-09-16T06:40:25Z</time>
      </trkpt>
      <trkpt lat="44.92496" lon="5.39875">
        <ele>1061</ele>
        <time>2012-09-16T06:40:32Z</time>
      </trkpt>
      <trkpt lat="44.92503" lon="5.39879">
        <ele>1061</ele>
        <time>2012-09-16T06:40:36Z</time>
      </trkpt>
      <trkpt lat="44.92513" lon="5.39888">
        <ele>1061.5</ele>
        <time>2012-09-16T06:40:43Z</time>
      </trkpt>
      <trkpt lat="44.92517" lon="5.39892">
        <ele>1061.4</ele>
        <time>2012-09-16T06:40:46Z</time>
      </trkpt>
      <trkpt lat="44.92527" lon="5.39906">
        <ele>1060.3</ele>
        <time>2012-09-16T06:40:51Z</time>
      </trkpt>
      <trkpt lat="44.92537" lon="5.39917">
        <ele>1059.5</ele>
        <time>2012-09-16T06:40:56Z</time>
      </trkpt>
      <trkpt lat="44.92548" lon="5.39924">
        <ele>1058.5</ele>
        <time>2012-09-16T06:41:02Z</time>
      </trkpt>
      <trkpt lat="44.92554" lon="5.39927">
        <ele>1058</ele>
        <time>2012-09-16T06:41:05Z</time>
      </trkpt>
      <trkpt lat="44.92555" lon="5.3993">
        <ele>1058</ele>
        <time>2012-09-16T06:41:18Z</time>
      </trkpt>
      <trkpt lat="44.92572" lon="5.39957">
        <ele>1055</ele>
        <time>2012-09-16T06:41:41Z</time>
      </trkpt>
      <trkpt lat="44.92579" lon="5.39986">
        <ele>1054</ele>
        <time>2012-09-16T06:41:49Z</time>
      </trkpt>
      <trkpt lat="44.92587" lon="5.39999">
        <ele>1053.8</ele>
        <time>2012-09-16T06:41:54Z</time>
      </trkpt>
      <trkpt lat="44.92598" lon="5.40018">
        <ele>1053.8</ele>
        <time>2012-09-16T06:42:04Z</time>
      </trkpt>
      <trkpt lat="44.92607" lon="5.40031">
        <ele>1052.5</ele>
        <time>2012-09-16T06:42:10Z</time>
      </trkpt>
      <trkpt lat="44.92624" lon="5.40046">
        <ele>1049.5</ele>
        <time>2012-09-16T06:42:20Z</time>
      </trkpt>
      <trkpt lat="44.92631" lon="5.40055">
        <ele>1048</ele>
        <time>2012-09-16T06:42:25Z</time>
      </trkpt>
      <trkpt lat="44.92636" lon="5.40058">
        <ele>1047.9</ele>
        <time>2012-09-16T06:42:29Z</time>
      </trkpt>
      <trkpt lat="44.92639" lon="5.40057">
        <ele>1047.8</ele>
        <time>2012-09-16T06:42:43Z</time>
      </trkpt>
      <trkpt lat="44.92645" lon="5.40056">
        <ele>1049.3</ele>
        <time>2012-09-16T06:42:50Z</time>
      </trkpt>
      <trkpt lat="44.92653" lon="5.40054">
        <ele>1051.3</ele>
        <time>2012-09-16T06:43:05Z</time>
      </trkpt>
      <trkpt lat="44.9266" lon="5.40044">
        <ele>1054.3</ele>
        <time>2012-09-16T06:43:29Z</time>
      </trkpt>
      <trkpt lat="44.92664" lon="5.4004">
        <ele>1054.5</ele>
        <time>2012-09-16T06:43:32Z</time>
      </trkpt>
      <trkpt lat="44.92671" lon="5.40038">
        <ele>1054.8</ele>
        <time>2012-09-16T06:43:37Z</time>
      </trkpt>
      <trkpt lat="44.92679" lon="5.40039">
        <ele>1054.4</ele>
        <time>2012-09-16T06:43:51Z</time>
      </trkpt>
      <trkpt lat="44.92685" lon="5.4005">
        <ele>1053.5</ele>
        <time>2012-09-16T06:43:58Z</time>
      </trkpt>
      <trkpt lat="44.92691" lon="5.40055">
        <ele>1053.8</ele>
        <time>2012-09-16T06:44:03Z</time>
      </trkpt>
      <trkpt lat="44.92699" lon="5.40055">
        <ele>1054.9</ele>
        <time>2012-09-16T06:44:16Z</time>
      </trkpt>
      <trkpt lat="44.92704" lon="5.4005">
        <ele>1055</ele>
        <time>2012-09-16T06:44:23Z</time>
      </trkpt>
      <trkpt lat="44.92713" lon="5.40033">
        <ele>1055</ele>
        <time>2012-09-16T06:44:37Z</time>
      </trkpt>
      <trkpt lat="44.92718" lon="5.40018">
        <ele>1055.3</ele>
        <time>2012-09-16T06:44:44Z</time>
      </trkpt>
      <trkpt lat="44.92721" lon="5.40012">
        <ele>1055.9</ele>
        <time>2012-09-16T06:44:51Z</time>
      </trkpt>
      <trkpt lat="44.92734" lon="5.40001">
        <ele>1059.4</ele>
        <time>2012-09-16T06:45:12Z</time>
      </trkpt>
      <trkpt lat="44.92748" lon="5.39987">
        <ele>1061.9</ele>
        <time>2012-09-16T06:45:40Z</time>
      </trkpt>
      <trkpt lat="44.9275" lon="5.39981">
        <ele>1062</ele>
        <time>2012-09-16T06:45:46Z</time>
      </trkpt>
      <trkpt lat="44.92759" lon="5.39973">
        <ele>1062.5</ele>
        <time>2012-09-16T06:45:59Z</time>
      </trkpt>
      <trkpt lat="44.92764" lon="5.39967">
        <ele>1062.4</ele>
        <time>2012-09-16T06:46:07Z</time>
      </trkpt>
      <trkpt lat="44.92768" lon="5.39956">
        <ele>1061.5</ele>
        <time>2012-09-16T06:46:14Z</time>
      </trkpt>
      <trkpt lat="44.92773" lon="5.3995">
        <ele>1060</ele>
        <time>2012-09-16T06:46:26Z</time>
      </trkpt>
      <trkpt lat="44.92785" lon="5.39941">
        <ele>1058</ele>
        <time>2012-09-16T06:46:38Z</time>
      </trkpt>
      <trkpt lat="44.92789" lon="5.39931">
        <ele>1056.3</ele>
        <time>2012-09-16T06:46:43Z</time>
      </trkpt>
      <trkpt lat="44.9279" lon="5.39909">
        <ele>1053.9</ele>
        <time>2012-09-16T06:46:47Z</time>
      </trkpt>
      <trkpt lat="44.92792" lon="5.39898">
        <ele>1053.4</ele>
        <time>2012-09-16T06:46:49Z</time>
      </trkpt>
      <trkpt lat="44.92803" lon="5.39888">
        <ele>1053.9</ele>
        <time>2012-09-16T06:46:53Z</time>
      </trkpt>
      <trkpt lat="44.92818" lon="5.39885">
        <ele>1056</ele>
        <time>2012-09-16T06:47:05Z</time>
      </trkpt>
      <trkpt lat="44.92825" lon="5.39888">
        <ele>1055.8</ele>
        <time>2012-09-16T06:47:12Z</time>
      </trkpt>
      <trkpt lat="44.92834" lon="5.39884">
        <ele>1055</ele>
        <time>2012-09-16T06:47:17Z</time>
      </trkpt>
      <trkpt lat="44.92839" lon="5.39879">
        <ele>1055.5</ele>
        <time>2012-09-16T06:47:20Z</time>
      </trkpt>
      <trkpt lat="44.9285" lon="5.39875">
        <ele>1055.9</ele>
        <time>2012-09-16T06:47:27Z</time>
      </trkpt>
      <trkpt lat="44.92868" lon="5.39877">
        <ele>1057.5</ele>
        <time>2012-09-16T06:47:39Z</time>
      </trkpt>
      <trkpt lat="44.92879" lon="5.39881">
        <ele>1060.5</ele>
        <time>2012-09-16T06:47:48Z</time>
      </trkpt>
      <trkpt lat="44.92885" lon="5.39891">
        <ele>1060.4</ele>
        <time>2012-09-16T06:47:55Z</time>
      </trkpt>
      <trkpt lat="44.92887" lon="5.39902">
        <ele>1060</ele>
        <time>2012-09-16T06:48:00Z</time>
      </trkpt>
      <trkpt lat="44.92894" lon="5.39908">
        <ele>1060.5</ele>
        <time>2012-09-16T06:48:22Z</time>
      </trkpt>
      <trkpt lat="44.92901" lon="5.39911">
        <ele>1061.4</ele>
        <time>2012-09-16T06:48:36Z</time>
      </trkpt>
      <trkpt lat="44.92909" lon="5.39916">
        <ele>1062</ele>
        <time>2012-09-16T06:48:45Z</time>
      </trkpt>
      <trkpt lat="44.92912" lon="5.39928">
        <ele>1062</ele>
        <time>2012-09-16T06:48:54Z</time>
      </trkpt>
      <trkpt lat="44.92913" lon="5.3994">
        <ele>1062</ele>
        <time>2012-09-16T06:48:59Z</time>
      </trkpt>
      <trkpt lat="44.92914" lon="5.39949">
        <ele>1062</ele>
        <time>2012-09-16T06:49:03Z</time>
      </trkpt>
      <trkpt lat="44.9292" lon="5.39955">
        <ele>1062.8</ele>
        <time>2012-09-16T06:49:09Z</time>
      </trkpt>
      <trkpt lat="44.92924" lon="5.39959">
        <ele>1063</ele>
        <time>2012-09-16T06:49:13Z</time>
      </trkpt>
      <trkpt lat="44.92922" lon="5.39964">
        <ele>1063.5</ele>
        <time>2012-09-16T06:49:20Z</time>
      </trkpt>
      <trkpt lat="44.92924" lon="5.3997">
        <ele>1064</ele>
        <time>2012-09-16T06:49:27Z</time>
      </trkpt>
      <trkpt lat="44.92927" lon="5.39971">
        <ele>1064.5</ele>
        <time>2012-09-16T06:49:31Z</time>
      </trkpt>
      <trkpt lat="44.92931" lon="5.39968">
        <ele>1065.5</ele>
        <time>2012-09-16T06:49:37Z</time>
      </trkpt>
      <trkpt lat="44.92947" lon="5.39952">
        <ele>1069.5</ele>
        <time>2012-09-16T06:50:02Z</time>
      </trkpt>
      <trkpt lat="44.92956" lon="5.39947">
        <ele>1071.5</ele>
        <time>2012-09-16T06:50:14Z</time>
      </trkpt>
      <trkpt lat="44.92965" lon="5.39943">
        <ele>1072</ele>
        <time>2012-09-16T06:50:20Z</time>
      </trkpt>
      <trkpt lat="44.92974" lon="5.39934">
        <ele>1070</ele>
        <time>2012-09-16T06:50:36Z</time>
      </trkpt>
      <trkpt lat="44.92979" lon="5.39934">
        <ele>1069</ele>
        <time>2012-09-16T06:50:43Z</time>
      </trkpt>
      <trkpt lat="44.92981" lon="5.39931">
        <ele>1068.9</ele>
        <time>2012-09-16T06:50:47Z</time>
      </trkpt>
      <trkpt lat="44.92986" lon="5.39929">
        <ele>1068</ele>
        <time>2012-09-16T06:50:55Z</time>
      </trkpt>
      <trkpt lat="44.92991" lon="5.39923">
        <ele>1068.8</ele>
        <time>2012-09-16T06:51:06Z</time>
      </trkpt>
      <trkpt lat="44.93007" lon="5.39918">
        <ele>1068.9</ele>
        <time>2012-09-16T06:51:17Z</time>
      </trkpt>
      <trkpt lat="44.93011" lon="5.39909">
        <ele>1066.9</ele>
        <time>2012-09-16T06:51:21Z</time>
      </trkpt>
      <trkpt lat="44.93014" lon="5.39894">
        <ele>1064.3</ele>
        <time>2012-09-16T06:51:28Z</time>
      </trkpt>
      <trkpt lat="44.93019" lon="5.39888">
        <ele>1062</ele>
        <time>2012-09-16T06:51:35Z</time>
      </trkpt>
      <trkpt lat="44.93026" lon="5.39885">
        <ele>1060.5</ele>
        <time>2012-09-16T06:51:39Z</time>
      </trkpt>
      <trkpt lat="44.93038" lon="5.39874">
        <ele>1057.5</ele>
        <time>2012-09-16T06:51:45Z</time>
      </trkpt>
      <trkpt lat="44.93044" lon="5.3987">
        <ele>1057.4</ele>
        <time>2012-09-16T06:51:47Z</time>
      </trkpt>
      <trkpt lat="44.93052" lon="5.39867">
        <ele>1058</ele>
        <time>2012-09-16T06:51:50Z</time>
      </trkpt>
      <trkpt lat="44.93074" lon="5.39853">
        <ele>1055.8</ele>
        <time>2012-09-16T06:52:00Z</time>
      </trkpt>
      <trkpt lat="44.93086" lon="5.39846">
        <ele>1057</ele>
        <time>2012-09-16T06:52:05Z</time>
      </trkpt>
      <trkpt lat="44.93092" lon="5.39842">
        <ele>1057.3</ele>
        <time>2012-09-16T06:52:09Z</time>
      </trkpt>
      <trkpt lat="44.93101" lon="5.3984">
        <ele>1059.3</ele>
        <time>2012-09-16T06:52:23Z</time>
      </trkpt>
      <trkpt lat="44.93112" lon="5.39831">
        <ele>1060</ele>
        <time>2012-09-16T06:52:39Z</time>
      </trkpt>
      <trkpt lat="44.9312" lon="5.39826">
        <ele>1060.3</ele>
        <time>2012-09-16T06:52:45Z</time>
      </trkpt>
      <trkpt lat="44.9314" lon="5.39824">
        <ele>1062</ele>
        <time>2012-09-16T06:53:06Z</time>
      </trkpt>
      <trkpt lat="44.93157" lon="5.39826">
        <ele>1063.4</ele>
        <time>2012-09-16T06:53:34Z</time>
      </trkpt>
      <trkpt lat="44.93166" lon="5.39824">
        <ele>1064.4</ele>
        <time>2012-09-16T06:53:45Z</time>
      </trkpt>
      <trkpt lat="44.93172" lon="5.39824">
        <ele>1065.3</ele>
        <time>2012-09-16T06:53:49Z</time>
      </trkpt>
      <trkpt lat="44.93186" lon="5.39828">
        <ele>1065.9</ele>
        <time>2012-09-16T06:53:59Z</time>
      </trkpt>
      <trkpt lat="44.93196" lon="5.39832">
        <ele>1065.8</ele>
        <time>2012-09-16T06:54:05Z</time>
      </trkpt>
      <trkpt lat="44.93207" lon="5.39832">
        <ele>1065.8</ele>
        <time>2012-09-16T06:54:10Z</time>
      </trkpt>
      <trkpt lat="44.93218" lon="5.39828">
        <ele>1065</ele>
        <time>2012-09-16T06:54:14Z</time>
      </trkpt>
      <trkpt lat="44.93224" lon="5.39828">
        <ele>1064.4</ele>
        <time>2012-09-16T06:54:16Z</time>
      </trkpt>
      <trkpt lat="44.93232" lon="5.3983">
        <ele>1063.4</ele>
        <time>2012-09-16T06:54:19Z</time>
      </trkpt>
      <trkpt lat="44.93248" lon="5.39841">
        <ele>1060.5</ele>
        <time>2012-09-16T06:54:27Z</time>
      </trkpt>
      <trkpt lat="44.93255" lon="5.39844">
        <ele>1058.8</ele>
        <time>2012-09-16T06:54:31Z</time>
      </trkpt>
      <trkpt lat="44.93262" lon="5.39845">
        <ele>1057</ele>
        <time>2012-09-16T06:54:35Z</time>
      </trkpt>
      <trkpt lat="44.93276" lon="5.39845">
        <ele>1053.9</ele>
        <time>2012-09-16T06:54:42Z</time>
      </trkpt>
      <trkpt lat="44.93287" lon="5.3984">
        <ele>1052.5</ele>
        <time>2012-09-16T06:54:46Z</time>
      </trkpt>
      <trkpt lat="44.93295" lon="5.39838">
        <ele>1052</ele>
        <time>2012-09-16T06:54:49Z</time>
      </trkpt>
      <trkpt lat="44.93304" lon="5.39843">
        <ele>1051</ele>
        <time>2012-09-16T06:54:53Z</time>
      </trkpt>
      <trkpt lat="44.93311" lon="5.39845">
        <ele>1050.4</ele>
        <time>2012-09-16T06:54:56Z</time>
      </trkpt>
      <trkpt lat="44.93317" lon="5.3984">
        <ele>1050</ele>
        <time>2012-09-16T06:55:08Z</time>
      </trkpt>
      <trkpt lat="44.93326" lon="5.3982">
        <ele>1050.3</ele>
        <time>2012-09-16T06:55:16Z</time>
      </trkpt>
      <trkpt lat="44.93334" lon="5.39798">
        <ele>1051.8</ele>
        <time>2012-09-16T06:55:27Z</time>
      </trkpt>
      <trkpt lat="44.93339" lon="5.39791">
        <ele>1052.5</ele>
        <time>2012-09-16T06:55:32Z</time>
      </trkpt>
      <trkpt lat="44.93349" lon="5.39783">
        <ele>1054.8</ele>
        <time>2012-09-16T06:55:43Z</time>
      </trkpt>
      <trkpt lat="44.9335" lon="5.39785">
        <ele>1054.3</ele>
        <time>2012-09-16T06:55:53Z</time>
      </trkpt>
      <trkpt lat="44.93347" lon="5.39787">
        <ele>1052.3</ele>
        <time>2012-09-16T06:56:01Z</time>
      </trkpt>
      <trkpt lat="44.9335" lon="5.39785">
        <ele>1057</ele>
        <time>2012-09-16T06:56:11Z</time>
      </trkpt>
      <trkpt lat="44.93353" lon="5.39777">
        <ele>1054.8</ele>
        <time>2012-09-16T06:56:23Z</time>
      </trkpt>
      <trkpt lat="44.93353" lon="5.39771">
        <ele>1047.5</ele>
        <time>2012-09-16T06:56:43Z</time>
      </trkpt>
      <trkpt lat="44.93355" lon="5.39767">
        <ele>1044.4</ele>
        <time>2012-09-16T06:56:57Z</time>
      </trkpt>
      <trkpt lat="44.93358" lon="5.39761">
        <ele>1042</ele>
        <time>2012-09-16T06:57:06Z</time>
      </trkpt>
      <trkpt lat="44.93363" lon="5.39762">
        <ele>1044.3</ele>
        <time>2012-09-16T06:57:14Z</time>
      </trkpt>
      <trkpt lat="44.93371" lon="5.39769">
        <ele>1048.8</ele>
        <time>2012-09-16T06:57:26Z</time>
      </trkpt>
      <trkpt lat="44.93382" lon="5.39775">
        <ele>1052.9</ele>
        <time>2012-09-16T06:57:39Z</time>
      </trkpt>
      <trkpt lat="44.93392" lon="5.39778">
        <ele>1055.9</ele>
        <time>2012-09-16T06:57:53Z</time>
      </trkpt>
      <trkpt lat="44.93402" lon="5.39791">
        <ele>1057</ele>
        <time>2012-09-16T06:58:11Z</time>
      </trkpt>
      <trkpt lat="44.93409" lon="5.39796">
        <ele>1057.9</ele>
        <time>2012-09-16T06:58:20Z</time>
      </trkpt>
      <trkpt lat="44.93413" lon="5.398">
        <ele>1058.3</ele>
        <time>2012-09-16T06:58:27Z</time>
      </trkpt>
      <trkpt lat="44.93424" lon="5.39815">
        <ele>1061</ele>
        <time>2012-09-16T06:58:46Z</time>
      </trkpt>
      <trkpt lat="44.9343" lon="5.3982">
        <ele>1062.8</ele>
        <time>2012-09-16T06:58:54Z</time>
      </trkpt>
      <trkpt lat="44.9344" lon="5.39826">
        <ele>1064</ele>
        <time>2012-09-16T06:59:05Z</time>
      </trkpt>
      <trkpt lat="44.93452" lon="5.39825">
        <ele>1066.5</ele>
        <time>2012-09-16T06:59:20Z</time>
      </trkpt>
      <trkpt lat="44.93459" lon="5.39823">
        <ele>1066.9</ele>
        <time>2012-09-16T06:59:24Z</time>
      </trkpt>
      <trkpt lat="44.93482" lon="5.39825">
        <ele>1067.8</ele>
        <time>2012-09-16T06:59:37Z</time>
      </trkpt>
      <trkpt lat="44.93491" lon="5.39825">
        <ele>1067.5</ele>
        <time>2012-09-16T06:59:41Z</time>
      </trkpt>
      <trkpt lat="44.93521" lon="5.39818">
        <ele>1065.5</ele>
        <time>2012-09-16T06:59:52Z</time>
      </trkpt>
      <trkpt lat="44.9354" lon="5.39817">
        <ele>1064</ele>
        <time>2012-09-16T06:59:58Z</time>
      </trkpt>
      <trkpt lat="44.9355" lon="5.39815">
        <ele>1063</ele>
        <time>2012-09-16T07:00:02Z</time>
      </trkpt>
      <trkpt lat="44.9356" lon="5.39809">
        <ele>1061.5</ele>
        <time>2012-09-16T07:00:07Z</time>
      </trkpt>
      <trkpt lat="44.93586" lon="5.398">
        <ele>1057.9</ele>
        <time>2012-09-16T07:00:20Z</time>
      </trkpt>
      <trkpt lat="44.93592" lon="5.39799">
        <ele>1057.3</ele>
        <time>2012-09-16T07:00:23Z</time>
      </trkpt>
      <trkpt lat="44.93608" lon="5.398">
        <ele>1055.8</ele>
        <time>2012-09-16T07:00:30Z</time>
      </trkpt>
      <trkpt lat="44.93614" lon="5.39804">
        <ele>1055.4</ele>
        <time>2012-09-16T07:00:34Z</time>
      </trkpt>
      <trkpt lat="44.9364" lon="5.39805">
        <ele>1051.5</ele>
        <time>2012-09-16T07:00:45Z</time>
      </trkpt>
      <trkpt lat="44.9365" lon="5.39806">
        <ele>1049.4</ele>
        <time>2012-09-16T07:00:49Z</time>
      </trkpt>
      <trkpt lat="44.93658" lon="5.39805">
        <ele>1047.5</ele>
        <time>2012-09-16T07:00:52Z</time>
      </trkpt>
      <trkpt lat="44.93676" lon="5.39798">
        <ele>1043.8</ele>
        <time>2012-09-16T07:00:58Z</time>
      </trkpt>
      <trkpt lat="44.93693" lon="5.39788">
        <ele>1041</ele>
        <time>2012-09-16T07:01:04Z</time>
      </trkpt>
      <trkpt lat="44.93697" lon="5.39786">
        <ele>1040</ele>
        <time>2012-09-16T07:01:06Z</time>
      </trkpt>
      <trkpt lat="44.93709" lon="5.39787">
        <ele>1039</ele>
        <time>2012-09-16T07:01:11Z</time>
      </trkpt>
      <trkpt lat="44.93723" lon="5.39784">
        <ele>1039.4</ele>
        <time>2012-09-16T07:01:16Z</time>
      </trkpt>
      <trkpt lat="44.9374" lon="5.39783">
        <ele>1038.4</ele>
        <time>2012-09-16T07:01:22Z</time>
      </trkpt>
      <trkpt lat="44.93748" lon="5.39784">
        <ele>1038</ele>
        <time>2012-09-16T07:01:26Z</time>
      </trkpt>
      <trkpt lat="44.93772" lon="5.39781">
        <ele>1035.4</ele>
        <time>2012-09-16T07:01:38Z</time>
      </trkpt>
      <trkpt lat="44.93781" lon="5.39779">
        <ele>1034.5</ele>
        <time>2012-09-16T07:01:42Z</time>
      </trkpt>
      <trkpt lat="44.93787" lon="5.39778">
        <ele>1033.8</ele>
        <time>2012-09-16T07:01:45Z</time>
      </trkpt>
      <trkpt lat="44.93796" lon="5.39781">
        <ele>1032.8</ele>
        <time>2012-09-16T07:01:50Z</time>
      </trkpt>
      <trkpt lat="44.93803" lon="5.39781">
        <ele>1031.5</ele>
        <time>2012-09-16T07:01:54Z</time>
      </trkpt>
      <trkpt lat="44.93817" lon="5.39775">
        <ele>1029.5</ele>
        <time>2012-09-16T07:02:01Z</time>
      </trkpt>
      <trkpt lat="44.93822" lon="5.39776">
        <ele>1028.3</ele>
        <time>2012-09-16T07:02:03Z</time>
      </trkpt>
      <trkpt lat="44.93844" lon="5.39795">
        <ele>1024</ele>
        <time>2012-09-16T07:02:13Z</time>
      </trkpt>
      <trkpt lat="44.93863" lon="5.39807">
        <ele>1020.5</ele>
        <time>2012-09-16T07:02:21Z</time>
      </trkpt>
      <trkpt lat="44.93872" lon="5.39806">
        <ele>1018.2</ele>
        <time>2012-09-16T07:02:26Z</time>
      </trkpt>
      <trkpt lat="44.93879" lon="5.39802">
        <ele>1018</ele>
        <time>2012-09-16T07:02:29Z</time>
      </trkpt>
      <trkpt lat="44.93893" lon="5.39801">
        <ele>1014.5</ele>
        <time>2012-09-16T07:02:35Z</time>
      </trkpt>
      <trkpt lat="44.93904" lon="5.39794">
        <ele>1015.5</ele>
        <time>2012-09-16T07:02:40Z</time>
      </trkpt>
      <trkpt lat="44.93911" lon="5.39784">
        <ele>1013.7</ele>
        <time>2012-09-16T07:02:45Z</time>
      </trkpt>
      <trkpt lat="44.9392" lon="5.39774">
        <ele>1009.9</ele>
        <time>2012-09-16T07:02:52Z</time>
      </trkpt>
      <trkpt lat="44.93923" lon="5.3977">
        <ele>1009</ele>
        <time>2012-09-16T07:02:54Z</time>
      </trkpt>
      <trkpt lat="44.93924" lon="5.39755">
        <ele>1006.7</ele>
        <time>2012-09-16T07:02:59Z</time>
      </trkpt>
      <trkpt lat="44.93931" lon="5.39746">
        <ele>1006.4</ele>
        <time>2012-09-16T07:03:03Z</time>
      </trkpt>
      <trkpt lat="44.93945" lon="5.39735">
        <ele>1008.9</ele>
        <time>2012-09-16T07:03:07Z</time>
      </trkpt>
      <trkpt lat="44.93967" lon="5.39712">
        <ele>1014.5</ele>
        <time>2012-09-16T07:03:15Z</time>
      </trkpt>
      <trkpt lat="44.93969" lon="5.39708">
        <ele>1014.9</ele>
        <time>2012-09-16T07:03:16Z</time>
      </trkpt>
      <trkpt lat="44.93976" lon="5.39695">
        <ele>1013.5</ele>
        <time>2012-09-16T07:03:19Z</time>
      </trkpt>
      <trkpt lat="44.93978" lon="5.39689">
        <ele>1014.5</ele>
        <time>2012-09-16T07:03:20Z</time>
      </trkpt>
      <trkpt lat="44.93986" lon="5.39671">
        <ele>1011.5</ele>
        <time>2012-09-16T07:03:24Z</time>
      </trkpt>
      <trkpt lat="44.93992" lon="5.39662">
        <ele>1009.7</ele>
        <time>2012-09-16T07:03:27Z</time>
      </trkpt>
      <trkpt lat="44.94001" lon="5.39627">
        <ele>1004.9</ele>
        <time>2012-09-16T07:03:37Z</time>
      </trkpt>
      <trkpt lat="44.94012" lon="5.39597">
        <ele>1004</ele>
        <time>2012-09-16T07:03:45Z</time>
      </trkpt>
      <trkpt lat="44.94018" lon="5.39583">
        <ele>1003.9</ele>
        <time>2012-09-16T07:03:50Z</time>
      </trkpt>
      <trkpt lat="44.94027" lon="5.39574">
        <ele>1002.7</ele>
        <time>2012-09-16T07:03:56Z</time>
      </trkpt>
      <trkpt lat="44.9404" lon="5.39565">
        <ele>1002.5</ele>
        <time>2012-09-16T07:04:04Z</time>
      </trkpt>
      <trkpt lat="44.94059" lon="5.39555">
        <ele>1006</ele>
        <time>2012-09-16T07:04:14Z</time>
      </trkpt>
      <trkpt lat="44.94076" lon="5.39543">
        <ele>1003</ele>
        <time>2012-09-16T07:04:26Z</time>
      </trkpt>
      <trkpt lat="44.94084" lon="5.39539">
        <ele>1003</ele>
        <time>2012-09-16T07:04:30Z</time>
      </trkpt>
      <trkpt lat="44.94096" lon="5.39535">
        <ele>1002.9</ele>
        <time>2012-09-16T07:04:35Z</time>
      </trkpt>
      <trkpt lat="44.94103" lon="5.39535">
        <ele>1002</ele>
        <time>2012-09-16T07:04:39Z</time>
      </trkpt>
      <trkpt lat="44.94107" lon="5.39533">
        <ele>1001.5</ele>
        <time>2012-09-16T07:04:41Z</time>
      </trkpt>
      <trkpt lat="44.94117" lon="5.39524">
        <ele>1000.7</ele>
        <time>2012-09-16T07:04:46Z</time>
      </trkpt>
      <trkpt lat="44.94126" lon="5.39513">
        <ele>999.4</ele>
        <time>2012-09-16T07:04:51Z</time>
      </trkpt>
      <trkpt lat="44.94137" lon="5.39508">
        <ele>998</ele>
        <time>2012-09-16T07:04:56Z</time>
      </trkpt>
      <trkpt lat="44.94145" lon="5.39499">
        <ele>997</ele>
        <time>2012-09-16T07:05:00Z</time>
      </trkpt>
      <trkpt lat="44.94148" lon="5.39494">
        <ele>996</ele>
        <time>2012-09-16T07:05:02Z</time>
      </trkpt>
      <trkpt lat="44.94158" lon="5.39475">
        <ele>992.9</ele>
        <time>2012-09-16T07:05:08Z</time>
      </trkpt>
      <trkpt lat="44.9417" lon="5.39467">
        <ele>990.9</ele>
        <time>2012-09-16T07:05:15Z</time>
      </trkpt>
      <trkpt lat="44.94177" lon="5.39466">
        <ele>990.7</ele>
        <time>2012-09-16T07:05:20Z</time>
      </trkpt>
      <trkpt lat="44.94182" lon="5.39461">
        <ele>989.5</ele>
        <time>2012-09-16T07:05:24Z</time>
      </trkpt>
      <trkpt lat="44.94186" lon="5.39451">
        <ele>988.5</ele>
        <time>2012-09-16T07:05:28Z</time>
      </trkpt>
      <trkpt lat="44.94184" lon="5.39435">
        <ele>986</ele>
        <time>2012-09-16T07:05:32Z</time>
      </trkpt>
      <trkpt lat="44.94179" lon="5.39423">
        <ele>985.7</ele>
        <time>2012-09-16T07:05:36Z</time>
      </trkpt>
      <trkpt lat="44.94186" lon="5.39407">
        <ele>982.9</ele>
        <time>2012-09-16T07:05:44Z</time>
      </trkpt>
      <trkpt lat="44.942" lon="5.3941">
        <ele>980</ele>
        <time>2012-09-16T07:05:56Z</time>
      </trkpt>
      <trkpt lat="44.94208" lon="5.3941">
        <ele>978.9</ele>
        <time>2012-09-16T07:05:59Z</time>
      </trkpt>
      <trkpt lat="44.94225" lon="5.39399">
        <ele>976.9</ele>
        <time>2012-09-16T07:06:08Z</time>
      </trkpt>
      <trkpt lat="44.9423" lon="5.39394">
        <ele>975.4</ele>
        <time>2012-09-16T07:06:11Z</time>
      </trkpt>
      <trkpt lat="44.94247" lon="5.39381">
        <ele>974.5</ele>
        <time>2012-09-16T07:06:20Z</time>
      </trkpt>
      <trkpt lat="44.94254" lon="5.39373">
        <ele>972.7</ele>
        <time>2012-09-16T07:06:26Z</time>
      </trkpt>
      <trkpt lat="44.94259" lon="5.39365">
        <ele>970.9</ele>
        <time>2012-09-16T07:06:30Z</time>
      </trkpt>
      <trkpt lat="44.94275" lon="5.39348">
        <ele>965.5</ele>
        <time>2012-09-16T07:06:43Z</time>
      </trkpt>
      <trkpt lat="44.94293" lon="5.39331">
        <ele>963.9</ele>
        <time>2012-09-16T07:06:54Z</time>
      </trkpt>
      <trkpt lat="44.94302" lon="5.39327">
        <ele>964.7</ele>
        <time>2012-09-16T07:06:58Z</time>
      </trkpt>
      <trkpt lat="44.94312" lon="5.39331">
        <ele>964.5</ele>
        <time>2012-09-16T07:07:04Z</time>
      </trkpt>
      <trkpt lat="44.9432" lon="5.3933">
        <ele>964.2</ele>
        <time>2012-09-16T07:07:08Z</time>
      </trkpt>
      <trkpt lat="44.94345" lon="5.39317">
        <ele>967.2</ele>
        <time>2012-09-16T07:07:18Z</time>
      </trkpt>
      <trkpt lat="44.94364" lon="5.39315">
        <ele>962.2</ele>
        <time>2012-09-16T07:07:30Z</time>
      </trkpt>
      <trkpt lat="44.94372" lon="5.39313">
        <ele>961.5</ele>
        <time>2012-09-16T07:07:33Z</time>
      </trkpt>
      <trkpt lat="44.9438" lon="5.39312">
        <ele>960.5</ele>
        <time>2012-09-16T07:07:36Z</time>
      </trkpt>
      <trkpt lat="44.94398" lon="5.39314">
        <ele>958.5</ele>
        <time>2012-09-16T07:07:44Z</time>
      </trkpt>
      <trkpt lat="44.9441" lon="5.39315">
        <ele>956</ele>
        <time>2012-09-16T07:07:49Z</time>
      </trkpt>
      <trkpt lat="44.94419" lon="5.39314">
        <ele>955</ele>
        <time>2012-09-16T07:07:52Z</time>
      </trkpt>
      <trkpt lat="44.94436" lon="5.39323">
        <ele>954.2</ele>
        <time>2012-09-16T07:07:58Z</time>
      </trkpt>
      <trkpt lat="44.94442" lon="5.39328">
        <ele>953.7</ele>
        <time>2012-09-16T07:08:00Z</time>
      </trkpt>
      <trkpt lat="44.94449" lon="5.39336">
        <ele>952.4</ele>
        <time>2012-09-16T07:08:03Z</time>
      </trkpt>
      <trkpt lat="44.94461" lon="5.39348">
        <ele>951</ele>
        <time>2012-09-16T07:08:08Z</time>
      </trkpt>
      <trkpt lat="44.94464" lon="5.3935">
        <ele>950.7</ele>
        <time>2012-09-16T07:08:09Z</time>
      </trkpt>
      <trkpt lat="44.94477" lon="5.39363">
        <ele>949.7</ele>
        <time>2012-09-16T07:08:14Z</time>
      </trkpt>
      <trkpt lat="44.94482" lon="5.39367">
        <ele>949.5</ele>
        <time>2012-09-16T07:08:16Z</time>
      </trkpt>
      <trkpt lat="44.94501" lon="5.39381">
        <ele>952</ele>
        <time>2012-09-16T07:08:27Z</time>
      </trkpt>
      <trkpt lat="44.94515" lon="5.39395">
        <ele>949.2</ele>
        <time>2012-09-16T07:08:36Z</time>
      </trkpt>
      <trkpt lat="44.94519" lon="5.39397">
        <ele>949.5</ele>
        <time>2012-09-16T07:08:38Z</time>
      </trkpt>
      <trkpt lat="44.94539" lon="5.39418">
        <ele>947.9</ele>
        <time>2012-09-16T07:08:50Z</time>
      </trkpt>
      <trkpt lat="44.94549" lon="5.39426">
        <ele>945.7</ele>
        <time>2012-09-16T07:08:59Z</time>
      </trkpt>
      <trkpt lat="44.94567" lon="5.39439">
        <ele>944.2</ele>
        <time>2012-09-16T07:09:08Z</time>
      </trkpt>
      <trkpt lat="44.94586" lon="5.39461">
        <ele>942.5</ele>
        <time>2012-09-16T07:09:18Z</time>
      </trkpt>
      <trkpt lat="44.94592" lon="5.3947">
        <ele>942.2</ele>
        <time>2012-09-16T07:09:24Z</time>
      </trkpt>
      <trkpt lat="44.946" lon="5.39478">
        <ele>943</ele>
        <time>2012-09-16T07:09:29Z</time>
      </trkpt>
      <trkpt lat="44.94607" lon="5.3949">
        <ele>943.2</ele>
        <time>2012-09-16T07:09:33Z</time>
      </trkpt>
      <trkpt lat="44.94625" lon="5.39512">
        <ele>942.5</ele>
        <time>2012-09-16T07:09:43Z</time>
      </trkpt>
      <trkpt lat="44.94642" lon="5.39526">
        <ele>943.9</ele>
        <time>2012-09-16T07:09:51Z</time>
      </trkpt>
      <trkpt lat="44.9465" lon="5.39532">
        <ele>944.5</ele>
        <time>2012-09-16T07:09:55Z</time>
      </trkpt>
      <trkpt lat="44.94655" lon="5.39536">
        <ele>944.5</ele>
        <time>2012-09-16T07:09:58Z</time>
      </trkpt>
      <trkpt lat="44.94669" lon="5.39547">
        <ele>945</ele>
        <time>2012-09-16T07:10:06Z</time>
      </trkpt>
      <trkpt lat="44.94678" lon="5.3955">
        <ele>944</ele>
        <time>2012-09-16T07:10:11Z</time>
      </trkpt>
      <trkpt lat="44.94692" lon="5.39569">
        <ele>943.4</ele>
        <time>2012-09-16T07:10:22Z</time>
      </trkpt>
      <trkpt lat="44.94705" lon="5.39584">
        <ele>941.9</ele>
        <time>2012-09-16T07:10:28Z</time>
      </trkpt>
      <trkpt lat="44.94724" lon="5.39599">
        <ele>942</ele>
        <time>2012-09-16T07:10:35Z</time>
      </trkpt>
      <trkpt lat="44.94729" lon="5.39601">
        <ele>942.4</ele>
        <time>2012-09-16T07:10:45Z</time>
      </trkpt>
      <trkpt lat="44.94741" lon="5.39603">
        <ele>942.2</ele>
        <time>2012-09-16T07:11:04Z</time>
      </trkpt>
      <trkpt lat="44.94746" lon="5.39608">
        <ele>941.7</ele>
        <time>2012-09-16T07:11:07Z</time>
      </trkpt>
      <trkpt lat="44.94755" lon="5.39612">
        <ele>940.7</ele>
        <time>2012-09-16T07:11:14Z</time>
      </trkpt>
      <trkpt lat="44.94776" lon="5.39635">
        <ele>938.7</ele>
        <time>2012-09-16T07:11:28Z</time>
      </trkpt>
      <trkpt lat="44.94788" lon="5.39645">
        <ele>937.7</ele>
        <time>2012-09-16T07:11:35Z</time>
      </trkpt>
      <trkpt lat="44.94804" lon="5.39666">
        <ele>934.4</ele>
        <time>2012-09-16T07:11:45Z</time>
      </trkpt>
      <trkpt lat="44.94812" lon="5.39671">
        <ele>934.7</ele>
        <time>2012-09-16T07:11:51Z</time>
      </trkpt>
      <trkpt lat="44.94828" lon="5.39688">
        <ele>933.2</ele>
        <time>2012-09-16T07:12:02Z</time>
      </trkpt>
      <trkpt lat="44.94832" lon="5.39691">
        <ele>933</ele>
        <time>2012-09-16T07:12:04Z</time>
      </trkpt>
      <trkpt lat="44.9484" lon="5.397">
        <ele>931.5</ele>
        <time>2012-09-16T07:12:08Z</time>
      </trkpt>
      <trkpt lat="44.94845" lon="5.39707">
        <ele>931</ele>
        <time>2012-09-16T07:12:11Z</time>
      </trkpt>
      <trkpt lat="44.94853" lon="5.39716">
        <ele>929.7</ele>
        <time>2012-09-16T07:12:15Z</time>
      </trkpt>
      <trkpt lat="44.94866" lon="5.39734">
        <ele>927.5</ele>
        <time>2012-09-16T07:12:21Z</time>
      </trkpt>
      <trkpt lat="44.94888" lon="5.39758">
        <ele>925.4</ele>
        <time>2012-09-16T07:12:33Z</time>
      </trkpt>
      <trkpt lat="44.94891" lon="5.39762">
        <ele>925.5</ele>
        <time>2012-09-16T07:12:35Z</time>
      </trkpt>
      <trkpt lat="44.94901" lon="5.39775">
        <ele>924.5</ele>
        <time>2012-09-16T07:12:41Z</time>
      </trkpt>
      <trkpt lat="44.94915" lon="5.39789">
        <ele>923.7</ele>
        <time>2012-09-16T07:12:47Z</time>
      </trkpt>
      <trkpt lat="44.94923" lon="5.39795">
        <ele>923.9</ele>
        <time>2012-09-16T07:12:50Z</time>
      </trkpt>
      <trkpt lat="44.94927" lon="5.39796">
        <ele>924.2</ele>
        <time>2012-09-16T07:12:56Z</time>
      </trkpt>
      <trkpt lat="44.94933" lon="5.39801">
        <ele>922.5</ele>
        <time>2012-09-16T07:13:05Z</time>
      </trkpt>
      <trkpt lat="44.94947" lon="5.39819">
        <ele>919</ele>
        <time>2012-09-16T07:13:26Z</time>
      </trkpt>
      <trkpt lat="44.94952" lon="5.39822">
        <ele>919.5</ele>
        <time>2012-09-16T07:13:33Z</time>
      </trkpt>
      <trkpt lat="44.94961" lon="5.39829">
        <ele>920.5</ele>
        <time>2012-09-16T07:13:48Z</time>
      </trkpt>
      <trkpt lat="44.94966" lon="5.39832">
        <ele>920.5</ele>
        <time>2012-09-16T07:13:53Z</time>
      </trkpt>
      <trkpt lat="44.94975" lon="5.39829">
        <ele>921.5</ele>
        <time>2012-09-16T07:14:06Z</time>
      </trkpt>
      <trkpt lat="44.94987" lon="5.39814">
        <ele>922.4</ele>
        <time>2012-09-16T07:14:14Z</time>
      </trkpt>
      <trkpt lat="44.94995" lon="5.39807">
        <ele>921</ele>
        <time>2012-09-16T07:14:18Z</time>
      </trkpt>
      <trkpt lat="44.95025" lon="5.39801">
        <ele>917</ele>
        <time>2012-09-16T07:14:26Z</time>
      </trkpt>
      <trkpt lat="44.95033" lon="5.39801">
        <ele>916.4</ele>
        <time>2012-09-16T07:14:28Z</time>
      </trkpt>
      <trkpt lat="44.95042" lon="5.39805">
        <ele>915.7</ele>
        <time>2012-09-16T07:14:30Z</time>
      </trkpt>
      <trkpt lat="44.95049" lon="5.39812">
        <ele>914.7</ele>
        <time>2012-09-16T07:14:32Z</time>
      </trkpt>
      <trkpt lat="44.95052" lon="5.39817">
        <ele>914.4</ele>
        <time>2012-09-16T07:14:33Z</time>
      </trkpt>
      <trkpt lat="44.95053" lon="5.3983">
        <ele>913.5</ele>
        <time>2012-09-16T07:14:35Z</time>
      </trkpt>
      <trkpt lat="44.95051" lon="5.39843">
        <ele>912.5</ele>
        <time>2012-09-16T07:14:37Z</time>
      </trkpt>
      <trkpt lat="44.95046" lon="5.39854">
        <ele>911.7</ele>
        <time>2012-09-16T07:14:39Z</time>
      </trkpt>
      <trkpt lat="44.95009" lon="5.39893">
        <ele>907.7</ele>
        <time>2012-09-16T07:14:48Z</time>
      </trkpt>
      <trkpt lat="44.95002" lon="5.39904">
        <ele>907.4</ele>
        <time>2012-09-16T07:14:50Z</time>
      </trkpt>
      <trkpt lat="44.94998" lon="5.39916">
        <ele>906</ele>
        <time>2012-09-16T07:14:52Z</time>
      </trkpt>
      <trkpt lat="44.94998" lon="5.39923">
        <ele>905.2</ele>
        <time>2012-09-16T07:14:53Z</time>
      </trkpt>
      <trkpt lat="44.95" lon="5.39937">
        <ele>904.2</ele>
        <time>2012-09-16T07:14:55Z</time>
      </trkpt>
      <trkpt lat="44.95005" lon="5.39949">
        <ele>903.7</ele>
        <time>2012-09-16T07:14:57Z</time>
      </trkpt>
      <trkpt lat="44.95008" lon="5.39955">
        <ele>903.2</ele>
        <time>2012-09-16T07:14:58Z</time>
      </trkpt>
      <trkpt lat="44.95038" lon="5.39999">
        <ele>900</ele>
        <time>2012-09-16T07:15:05Z</time>
      </trkpt>
      <trkpt lat="44.95048" lon="5.40009">
        <ele>898.7</ele>
        <time>2012-09-16T07:15:07Z</time>
      </trkpt>
      <trkpt lat="44.95102" lon="5.40028">
        <ele>894.4</ele>
        <time>2012-09-16T07:15:15Z</time>
      </trkpt>
      <trkpt lat="44.95109" lon="5.40032">
        <ele>894.2</ele>
        <time>2012-09-16T07:15:16Z</time>
      </trkpt>
      <trkpt lat="44.95121" lon="5.4004">
        <ele>893.7</ele>
        <time>2012-09-16T07:15:18Z</time>
      </trkpt>
      <trkpt lat="44.95126" lon="5.40046">
        <ele>893.5</ele>
        <time>2012-09-16T07:15:19Z</time>
      </trkpt>
      <trkpt lat="44.95136" lon="5.40058">
        <ele>892.9</ele>
        <time>2012-09-16T07:15:21Z</time>
      </trkpt>
      <trkpt lat="44.95176" lon="5.40117">
        <ele>890.4</ele>
        <time>2012-09-16T07:15:30Z</time>
      </trkpt>
      <trkpt lat="44.95186" lon="5.40128">
        <ele>889.5</ele>
        <time>2012-09-16T07:15:32Z</time>
      </trkpt>
      <trkpt lat="44.95191" lon="5.40133">
        <ele>889.4</ele>
        <time>2012-09-16T07:15:33Z</time>
      </trkpt>
      <trkpt lat="44.95203" lon="5.4014">
        <ele>888.7</ele>
        <time>2012-09-16T07:15:35Z</time>
      </trkpt>
      <trkpt lat="44.95229" lon="5.40148">
        <ele>888</ele>
        <time>2012-09-16T07:15:39Z</time>
      </trkpt>
      <trkpt lat="44.95241" lon="5.40154">
        <ele>887.7</ele>
        <time>2012-09-16T07:15:41Z</time>
      </trkpt>
      <trkpt lat="44.95246" lon="5.40159">
        <ele>887.5</ele>
        <time>2012-09-16T07:15:42Z</time>
      </trkpt>
      <trkpt lat="44.95271" lon="5.40185">
        <ele>886.7</ele>
        <time>2012-09-16T07:15:47Z</time>
      </trkpt>
      <trkpt lat="44.95304" lon="5.40238">
        <ele>884</ele>
        <time>2012-09-16T07:15:55Z</time>
      </trkpt>
      <trkpt lat="44.95319" lon="5.40261">
        <ele>881.4</ele>
        <time>2012-09-16T07:15:59Z</time>
      </trkpt>
      <trkpt lat="44.95324" lon="5.40266">
        <ele>880.9</ele>
        <time>2012-09-16T07:16:00Z</time>
      </trkpt>
      <trkpt lat="44.95346" lon="5.40284">
        <ele>881.2</ele>
        <time>2012-09-16T07:16:04Z</time>
      </trkpt>
      <trkpt lat="44.95357" lon="5.40297">
        <ele>881</ele>
        <time>2012-09-16T07:16:06Z</time>
      </trkpt>
      <trkpt lat="44.9537" lon="5.40317">
        <ele>879.9</ele>
        <time>2012-09-16T07:16:09Z</time>
      </trkpt>
      <trkpt lat="44.95409" lon="5.40385">
        <ele>876.5</ele>
        <time>2012-09-16T07:16:18Z</time>
      </trkpt>
      <trkpt lat="44.9542" lon="5.40398">
        <ele>876</ele>
        <time>2012-09-16T07:16:20Z</time>
      </trkpt>
      <trkpt lat="44.95433" lon="5.40408">
        <ele>876</ele>
        <time>2012-09-16T07:16:22Z</time>
      </trkpt>
      <trkpt lat="44.9547" lon="5.40432">
        <ele>877</ele>
        <time>2012-09-16T07:16:28Z</time>
      </trkpt>
      <trkpt lat="44.95524" lon="5.40478">
        <ele>876.5</ele>
        <time>2012-09-16T07:16:41Z</time>
      </trkpt>
      <trkpt lat="44.95549" lon="5.40503">
        <ele>876</ele>
        <time>2012-09-16T07:16:48Z</time>
      </trkpt>
      <trkpt lat="44.95578" lon="5.40536">
        <ele>875.7</ele>
        <time>2012-09-16T07:16:57Z</time>
      </trkpt>
      <trkpt lat="44.95603" lon="5.40573">
        <ele>874.9</ele>
        <time>2012-09-16T07:17:06Z</time>
      </trkpt>
      <trkpt lat="44.95613" lon="5.40584">
        <ele>874.5</ele>
        <time>2012-09-16T07:17:09Z</time>
      </trkpt>
      <trkpt lat="44.9562" lon="5.40589">
        <ele>874.4</ele>
        <time>2012-09-16T07:17:11Z</time>
      </trkpt>
      <trkpt lat="44.95641" lon="5.406">
        <ele>874.2</ele>
        <time>2012-09-16T07:17:17Z</time>
      </trkpt>
      <trkpt lat="44.95684" lon="5.40618">
        <ele>872.5</ele>
        <time>2012-09-16T07:17:29Z</time>
      </trkpt>
      <trkpt lat="44.95725" lon="5.40638">
        <ele>871.2</ele>
        <time>2012-09-16T07:17:40Z</time>
      </trkpt>
      <trkpt lat="44.95756" lon="5.40652">
        <ele>872.4</ele>
        <time>2012-09-16T07:17:48Z</time>
      </trkpt>
      <trkpt lat="44.9581" lon="5.40702">
        <ele>869.7</ele>
        <time>2012-09-16T07:18:04Z</time>
      </trkpt>
      <trkpt lat="44.95815" lon="5.4071">
        <ele>869.4</ele>
        <time>2012-09-16T07:18:06Z</time>
      </trkpt>
      <trkpt lat="44.95846" lon="5.40759">
        <ele>866</ele>
        <time>2012-09-16T07:18:16Z</time>
      </trkpt>
      <trkpt lat="44.95913" lon="5.40837">
        <ele>860</ele>
        <time>2012-09-16T07:18:30Z</time>
      </trkpt>
      <trkpt lat="44.95946" lon="5.40872">
        <ele>858.4</ele>
        <time>2012-09-16T07:18:37Z</time>
      </trkpt>
      <trkpt lat="44.9597" lon="5.40894">
        <ele>858</ele>
        <time>2012-09-16T07:18:43Z</time>
      </trkpt>
      <trkpt lat="44.95977" lon="5.40904">
        <ele>859</ele>
        <time>2012-09-16T07:18:59Z</time>
      </trkpt>
      <trkpt lat="44.95975" lon="5.40914">
        <ele>859.5</ele>
        <time>2012-09-16T07:19:04Z</time>
      </trkpt>
      <trkpt lat="44.95975" lon="5.40923">
        <ele>860.5</ele>
        <time>2012-09-16T07:19:07Z</time>
      </trkpt>
      <trkpt lat="44.95978" lon="5.40941">
        <ele>861.5</ele>
        <time>2012-09-16T07:19:11Z</time>
      </trkpt>
      <trkpt lat="44.95982" lon="5.40958">
        <ele>862.2</ele>
        <time>2012-09-16T07:19:14Z</time>
      </trkpt>
      <trkpt lat="44.95984" lon="5.4097">
        <ele>862</ele>
        <time>2012-09-16T07:19:16Z</time>
      </trkpt>
      <trkpt lat="44.95984" lon="5.40981">
        <ele>862.4</ele>
        <time>2012-09-16T07:19:18Z</time>
      </trkpt>
      <trkpt lat="44.95984" lon="5.41011">
        <ele>865.7</ele>
        <time>2012-09-16T07:19:24Z</time>
      </trkpt>
      <trkpt lat="44.95982" lon="5.41025">
        <ele>868.2</ele>
        <time>2012-09-16T07:19:27Z</time>
      </trkpt>
      <trkpt lat="44.95975" lon="5.41043">
        <ele>869.2</ele>
        <time>2012-09-16T07:19:31Z</time>
      </trkpt>
      <trkpt lat="44.9597" lon="5.41065">
        <ele>871</ele>
        <time>2012-09-16T07:19:36Z</time>
      </trkpt>
      <trkpt lat="44.95967" lon="5.41084">
        <ele>872.2</ele>
        <time>2012-09-16T07:19:41Z</time>
      </trkpt>
      <trkpt lat="44.95961" lon="5.41094">
        <ele>870.9</ele>
        <time>2012-09-16T07:19:44Z</time>
      </trkpt>
      <trkpt lat="44.95958" lon="5.41097">
        <ele>872</ele>
        <time>2012-09-16T07:19:45Z</time>
      </trkpt>
      <trkpt lat="44.95931" lon="5.41126">
        <ele>870</ele>
        <time>2012-09-16T07:19:58Z</time>
      </trkpt>
      <trkpt lat="44.95925" lon="5.41135">
        <ele>870</ele>
        <time>2012-09-16T07:20:01Z</time>
      </trkpt>
      <trkpt lat="44.95922" lon="5.41142">
        <ele>870.2</ele>
        <time>2012-09-16T07:20:03Z</time>
      </trkpt>
      <trkpt lat="44.95919" lon="5.41154">
        <ele>869.5</ele>
        <time>2012-09-16T07:20:06Z</time>
      </trkpt>
      <trkpt lat="44.95918" lon="5.41168">
        <ele>869.5</ele>
        <time>2012-09-16T07:20:09Z</time>
      </trkpt>
      <trkpt lat="44.95917" lon="5.41181">
        <ele>870</ele>
        <time>2012-09-16T07:20:12Z</time>
      </trkpt>
      <trkpt lat="44.95916" lon="5.41214">
        <ele>872.2</ele>
        <time>2012-09-16T07:20:20Z</time>
      </trkpt>
      <trkpt lat="44.95914" lon="5.41222">
        <ele>872.7</ele>
        <time>2012-09-16T07:20:22Z</time>
      </trkpt>
      <trkpt lat="44.95913" lon="5.41235">
        <ele>872.5</ele>
        <time>2012-09-16T07:20:25Z</time>
      </trkpt>
      <trkpt lat="44.95914" lon="5.41243">
        <ele>872.5</ele>
        <time>2012-09-16T07:20:27Z</time>
      </trkpt>
      <trkpt lat="44.95915" lon="5.41255">
        <ele>872.4</ele>
        <time>2012-09-16T07:20:30Z</time>
      </trkpt>
      <trkpt lat="44.9592" lon="5.41267">
        <ele>871</ele>
        <time>2012-09-16T07:20:33Z</time>
      </trkpt>
      <trkpt lat="44.95931" lon="5.41287">
        <ele>869.5</ele>
        <time>2012-09-16T07:20:41Z</time>
      </trkpt>
      <trkpt lat="44.95941" lon="5.4131">
        <ele>869.2</ele>
        <time>2012-09-16T07:20:50Z</time>
      </trkpt>
      <trkpt lat="44.95946" lon="5.41316">
        <ele>869.7</ele>
        <time>2012-09-16T07:20:54Z</time>
      </trkpt>
      <trkpt lat="44.95947" lon="5.41326">
        <ele>870.2</ele>
        <time>2012-09-16T07:20:59Z</time>
      </trkpt>
      <trkpt lat="44.95946" lon="5.41333">
        <ele>870.7</ele>
        <time>2012-09-16T07:21:03Z</time>
      </trkpt>
      <trkpt lat="44.95947" lon="5.41345">
        <ele>872.7</ele>
        <time>2012-09-16T07:21:11Z</time>
      </trkpt>
      <trkpt lat="44.95949" lon="5.41354">
        <ele>873</ele>
        <time>2012-09-16T07:21:16Z</time>
      </trkpt>
      <trkpt lat="44.95953" lon="5.41364">
        <ele>872</ele>
        <time>2012-09-16T07:21:21Z</time>
      </trkpt>
      <trkpt lat="44.95962" lon="5.41392">
        <ele>872.2</ele>
        <time>2012-09-16T07:21:34Z</time>
      </trkpt>
      <trkpt lat="44.95968" lon="5.41415">
        <ele>875.5</ele>
        <time>2012-09-16T07:21:43Z</time>
      </trkpt>
      <trkpt lat="44.95971" lon="5.41447">
        <ele>877.7</ele>
        <time>2012-09-16T07:21:55Z</time>
      </trkpt>
      <trkpt lat="44.95972" lon="5.41467">
        <ele>876.2</ele>
        <time>2012-09-16T07:22:02Z</time>
      </trkpt>
      <trkpt lat="44.95975" lon="5.41485">
        <ele>874.7</ele>
        <time>2012-09-16T07:22:09Z</time>
      </trkpt>
      <trkpt lat="44.95977" lon="5.41518">
        <ele>875.7</ele>
        <time>2012-09-16T07:22:21Z</time>
      </trkpt>
      <trkpt lat="44.95981" lon="5.41542">
        <ele>875.9</ele>
        <time>2012-09-16T07:22:29Z</time>
      </trkpt>
      <trkpt lat="44.95984" lon="5.41551">
        <ele>875</ele>
        <time>2012-09-16T07:22:32Z</time>
      </trkpt>
      <trkpt lat="44.95981" lon="5.41582">
        <ele>875.9</ele>
        <time>2012-09-16T07:22:43Z</time>
      </trkpt>
      <trkpt lat="44.95978" lon="5.41605">
        <ele>877.5</ele>
        <time>2012-09-16T07:22:51Z</time>
      </trkpt>
      <trkpt lat="44.95974" lon="5.41615">
        <ele>877.5</ele>
        <time>2012-09-16T07:22:54Z</time>
      </trkpt>
      <trkpt lat="44.9597" lon="5.41622">
        <ele>877.5</ele>
        <time>2012-09-16T07:22:56Z</time>
      </trkpt>
      <trkpt lat="44.95963" lon="5.41641">
        <ele>877.2</ele>
        <time>2012-09-16T07:23:02Z</time>
      </trkpt>
      <trkpt lat="44.95962" lon="5.41649">
        <ele>877.2</ele>
        <time>2012-09-16T07:23:05Z</time>
      </trkpt>
      <trkpt lat="44.95958" lon="5.41661">
        <ele>877</ele>
        <time>2012-09-16T07:23:09Z</time>
      </trkpt>
      <trkpt lat="44.95951" lon="5.41678">
        <ele>876.5</ele>
        <time>2012-09-16T07:23:17Z</time>
      </trkpt>
      <trkpt lat="44.9594" lon="5.41701">
        <ele>879.2</ele>
        <time>2012-09-16T07:23:26Z</time>
      </trkpt>
      <trkpt lat="44.95933" lon="5.41726">
        <ele>881.7</ele>
        <time>2012-09-16T07:23:33Z</time>
      </trkpt>
      <trkpt lat="44.95929" lon="5.41754">
        <ele>880.5</ele>
        <time>2012-09-16T07:23:42Z</time>
      </trkpt>
      <trkpt lat="44.95927" lon="5.41768">
        <ele>880.2</ele>
        <time>2012-09-16T07:23:48Z</time>
      </trkpt>
      <trkpt lat="44.95925" lon="5.41768">
        <ele>878.9</ele>
        <time>2012-09-16T07:24:09Z</time>
      </trkpt>
      <trkpt lat="44.95922" lon="5.41793">
        <ele>876.7</ele>
        <time>2012-09-16T07:24:24Z</time>
      </trkpt>
      <trkpt lat="44.95914" lon="5.41833">
        <ele>876.5</ele>
        <time>2012-09-16T07:24:37Z</time>
      </trkpt>
      <trkpt lat="44.9591" lon="5.41849">
        <ele>876.7</ele>
        <time>2012-09-16T07:24:43Z</time>
      </trkpt>
      <trkpt lat="44.95899" lon="5.41882">
        <ele>875.7</ele>
        <time>2012-09-16T07:24:54Z</time>
      </trkpt>
      <trkpt lat="44.95893" lon="5.41897">
        <ele>875.7</ele>
        <time>2012-09-16T07:25:00Z</time>
      </trkpt>
      <trkpt lat="44.95886" lon="5.41921">
        <ele>876.5</ele>
        <time>2012-09-16T07:25:09Z</time>
      </trkpt>
      <trkpt lat="44.95881" lon="5.41942">
        <ele>876.7</ele>
        <time>2012-09-16T07:25:16Z</time>
      </trkpt>
      <trkpt lat="44.9587" lon="5.41974">
        <ele>877.7</ele>
        <time>2012-09-16T07:25:30Z</time>
      </trkpt>
      <trkpt lat="44.95865" lon="5.4199">
        <ele>879.2</ele>
        <time>2012-09-16T07:25:37Z</time>
      </trkpt>
      <trkpt lat="44.95858" lon="5.42018">
        <ele>881.9</ele>
        <time>2012-09-16T07:25:50Z</time>
      </trkpt>
      <trkpt lat="44.95849" lon="5.42051">
        <ele>885.5</ele>
        <time>2012-09-16T07:26:02Z</time>
      </trkpt>
      <trkpt lat="44.95847" lon="5.42065">
        <ele>885.7</ele>
        <time>2012-09-16T07:26:06Z</time>
      </trkpt>
      <trkpt lat="44.9584" lon="5.4209">
        <ele>886</ele>
        <time>2012-09-16T07:26:13Z</time>
      </trkpt>
      <trkpt lat="44.95839" lon="5.42104">
        <ele>884.7</ele>
        <time>2012-09-16T07:26:17Z</time>
      </trkpt>
      <trkpt lat="44.95842" lon="5.42117">
        <ele>883.2</ele>
        <time>2012-09-16T07:26:24Z</time>
      </trkpt>
      <trkpt lat="44.95844" lon="5.42119">
        <ele>882.7</ele>
        <time>2012-09-16T07:26:39Z</time>
      </trkpt>
      <trkpt lat="44.95841" lon="5.4215">
        <ele>880.2</ele>
        <time>2012-09-16T07:27:08Z</time>
      </trkpt>
      <trkpt lat="44.95835" lon="5.42167">
        <ele>879.2</ele>
        <time>2012-09-16T07:27:15Z</time>
      </trkpt>
      <trkpt lat="44.95828" lon="5.42193">
        <ele>879.5</ele>
        <time>2012-09-16T07:27:27Z</time>
      </trkpt>
      <trkpt lat="44.95821" lon="5.42207">
        <ele>879.5</ele>
        <time>2012-09-16T07:27:34Z</time>
      </trkpt>
      <trkpt lat="44.95818" lon="5.42217">
        <ele>879.9</ele>
        <time>2012-09-16T07:27:38Z</time>
      </trkpt>
      <trkpt lat="44.95818" lon="5.42228">
        <ele>880.4</ele>
        <time>2012-09-16T07:27:43Z</time>
      </trkpt>
      <trkpt lat="44.95821" lon="5.42241">
        <ele>880.4</ele>
        <time>2012-09-16T07:27:49Z</time>
      </trkpt>
      <trkpt lat="44.95828" lon="5.42248">
        <ele>879.7</ele>
        <time>2012-09-16T07:27:54Z</time>
      </trkpt>
      <trkpt lat="44.95838" lon="5.42251">
        <ele>878.7</ele>
        <time>2012-09-16T07:27:58Z</time>
      </trkpt>
      <trkpt lat="44.95864" lon="5.4227">
        <ele>877.4</ele>
        <time>2012-09-16T07:28:06Z</time>
      </trkpt>
      <trkpt lat="44.9587" lon="5.42279">
        <ele>876.9</ele>
        <time>2012-09-16T07:28:10Z</time>
      </trkpt>
      <trkpt lat="44.95874" lon="5.42287">
        <ele>876.5</ele>
        <time>2012-09-16T07:28:17Z</time>
      </trkpt>
      <trkpt lat="44.9588" lon="5.42301">
        <ele>876.5</ele>
        <time>2012-09-16T07:28:23Z</time>
      </trkpt>
      <trkpt lat="44.95888" lon="5.42308">
        <ele>876.4</ele>
        <time>2012-09-16T07:28:27Z</time>
      </trkpt>
      <trkpt lat="44.95911" lon="5.42322">
        <ele>875.5</ele>
        <time>2012-09-16T07:28:36Z</time>
      </trkpt>
      <trkpt lat="44.95917" lon="5.42325">
        <ele>875.2</ele>
        <time>2012-09-16T07:28:38Z</time>
      </trkpt>
      <trkpt lat="44.95926" lon="5.42336">
        <ele>874.9</ele>
        <time>2012-09-16T07:28:42Z</time>
      </trkpt>
      <trkpt lat="44.95932" lon="5.42352">
        <ele>874.2</ele>
        <time>2012-09-16T07:28:46Z</time>
      </trkpt>
      <trkpt lat="44.95936" lon="5.42368">
        <ele>874</ele>
        <time>2012-09-16T07:28:50Z</time>
      </trkpt>
      <trkpt lat="44.95937" lon="5.42381">
        <ele>874</ele>
        <time>2012-09-16T07:28:54Z</time>
      </trkpt>
      <trkpt lat="44.95938" lon="5.42408">
        <ele>874</ele>
        <time>2012-09-16T07:29:02Z</time>
      </trkpt>
      <trkpt lat="44.9594" lon="5.42422">
        <ele>874.2</ele>
        <time>2012-09-16T07:29:06Z</time>
      </trkpt>
      <trkpt lat="44.95957" lon="5.42452">
        <ele>873.4</ele>
        <time>2012-09-16T07:29:15Z</time>
      </trkpt>
      <trkpt lat="44.95963" lon="5.42463">
        <ele>873</ele>
        <time>2012-09-16T07:29:18Z</time>
      </trkpt>
      <trkpt lat="44.95982" lon="5.4249">
        <ele>872.7</ele>
        <time>2012-09-16T07:29:27Z</time>
      </trkpt>
      <trkpt lat="44.95994" lon="5.42502">
        <ele>873.5</ele>
        <time>2012-09-16T07:29:32Z</time>
      </trkpt>
      <trkpt lat="44.96005" lon="5.42508">
        <ele>874</ele>
        <time>2012-09-16T07:29:36Z</time>
      </trkpt>
      <trkpt lat="44.96017" lon="5.42511">
        <ele>874.2</ele>
        <time>2012-09-16T07:29:40Z</time>
      </trkpt>
      <trkpt lat="44.96032" lon="5.4251">
        <ele>873.7</ele>
        <time>2012-09-16T07:29:45Z</time>
      </trkpt>
      <trkpt lat="44.96047" lon="5.42512">
        <ele>873.5</ele>
        <time>2012-09-16T07:29:50Z</time>
      </trkpt>
      <trkpt lat="44.96068" lon="5.42519">
        <ele>873.5</ele>
        <time>2012-09-16T07:29:57Z</time>
      </trkpt>
      <trkpt lat="44.96091" lon="5.42529">
        <ele>873.5</ele>
        <time>2012-09-16T07:30:06Z</time>
      </trkpt>
      <trkpt lat="44.96108" lon="5.42532">
        <ele>873.9</ele>
        <time>2012-09-16T07:30:12Z</time>
      </trkpt>
      <trkpt lat="44.96127" lon="5.42532">
        <ele>874</ele>
        <time>2012-09-16T07:30:19Z</time>
      </trkpt>
      <trkpt lat="44.96134" lon="5.42534">
        <ele>874.5</ele>
        <time>2012-09-16T07:30:23Z</time>
      </trkpt>
      <trkpt lat="44.96151" lon="5.42544">
        <ele>874.4</ele>
        <time>2012-09-16T07:30:30Z</time>
      </trkpt>
      <trkpt lat="44.96166" lon="5.42558">
        <ele>874</ele>
        <time>2012-09-16T07:30:36Z</time>
      </trkpt>
      <trkpt lat="44.9618" lon="5.42575">
        <ele>874</ele>
        <time>2012-09-16T07:30:43Z</time>
      </trkpt>
      <trkpt lat="44.96205" lon="5.42599">
        <ele>873.7</ele>
        <time>2012-09-16T07:30:54Z</time>
      </trkpt>
      <trkpt lat="44.96225" lon="5.42619">
        <ele>873.9</ele>
        <time>2012-09-16T07:31:04Z</time>
      </trkpt>
      <trkpt lat="44.96232" lon="5.42624">
        <ele>874</ele>
        <time>2012-09-16T07:31:07Z</time>
      </trkpt>
      <trkpt lat="44.96247" lon="5.42633">
        <ele>874.2</ele>
        <time>2012-09-16T07:31:13Z</time>
      </trkpt>
      <trkpt lat="44.96267" lon="5.42648">
        <ele>875.4</ele>
        <time>2012-09-16T07:31:22Z</time>
      </trkpt>
      <trkpt lat="44.9628" lon="5.42653">
        <ele>875.7</ele>
        <time>2012-09-16T07:31:28Z</time>
      </trkpt>
      <trkpt lat="44.96304" lon="5.42657">
        <ele>875.2</ele>
        <time>2012-09-16T07:31:40Z</time>
      </trkpt>
      <trkpt lat="44.96319" lon="5.42658">
        <ele>874</ele>
        <time>2012-09-16T07:31:48Z</time>
      </trkpt>
      <trkpt lat="44.9635" lon="5.42649">
        <ele>872.4</ele>
        <time>2012-09-16T07:32:01Z</time>
      </trkpt>
      <trkpt lat="44.96359" lon="5.42648">
        <ele>871.5</ele>
        <time>2012-09-16T07:32:05Z</time>
      </trkpt>
      <trkpt lat="44.96369" lon="5.42649">
        <ele>870.7</ele>
        <time>2012-09-16T07:32:09Z</time>
      </trkpt>
      <trkpt lat="44.96382" lon="5.42655">
        <ele>870.7</ele>
        <time>2012-09-16T07:32:16Z</time>
      </trkpt>
      <trkpt lat="44.96396" lon="5.42664">
        <ele>872.2</ele>
        <time>2012-09-16T07:32:22Z</time>
      </trkpt>
      <trkpt lat="44.96421" lon="5.42683">
        <ele>874.2</ele>
        <time>2012-09-16T07:32:32Z</time>
      </trkpt>
      <trkpt lat="44.96425" lon="5.42684">
        <ele>874.2</ele>
        <time>2012-09-16T07:32:33Z</time>
      </trkpt>
      <trkpt lat="44.96461" lon="5.427">
        <ele>873.5</ele>
        <time>2012-09-16T07:32:45Z</time>
      </trkpt>
      <trkpt lat="44.96477" lon="5.42708">
        <ele>874.2</ele>
        <time>2012-09-16T07:32:51Z</time>
      </trkpt>
      <trkpt lat="44.96483" lon="5.42712">
        <ele>874.5</ele>
        <time>2012-09-16T07:32:53Z</time>
      </trkpt>
      <trkpt lat="44.96521" lon="5.42735">
        <ele>876</ele>
        <time>2012-09-16T07:33:06Z</time>
      </trkpt>
      <trkpt lat="44.96529" lon="5.4274">
        <ele>876.5</ele>
        <time>2012-09-16T07:33:09Z</time>
      </trkpt>
      <trkpt lat="44.96568" lon="5.42762">
        <ele>878</ele>
        <time>2012-09-16T07:33:23Z</time>
      </trkpt>
      <trkpt lat="44.96587" lon="5.42772">
        <ele>879</ele>
        <time>2012-09-16T07:33:30Z</time>
      </trkpt>
      <trkpt lat="44.96598" lon="5.42775">
        <ele>879.5</ele>
        <time>2012-09-16T07:33:34Z</time>
      </trkpt>
      <trkpt lat="44.96617" lon="5.42786">
        <ele>880.5</ele>
        <time>2012-09-16T07:33:41Z</time>
      </trkpt>
      <trkpt lat="44.9664" lon="5.42802">
        <ele>882.5</ele>
        <time>2012-09-16T07:33:51Z</time>
      </trkpt>
      <trkpt lat="44.96652" lon="5.42808">
        <ele>884</ele>
        <time>2012-09-16T07:33:56Z</time>
      </trkpt>
      <trkpt lat="44.96672" lon="5.42822">
        <ele>885.5</ele>
        <time>2012-09-16T07:34:06Z</time>
      </trkpt>
      <trkpt lat="44.9668" lon="5.42835">
        <ele>886</ele>
        <time>2012-09-16T07:34:12Z</time>
      </trkpt>
      <trkpt lat="44.96685" lon="5.42853">
        <ele>885.5</ele>
        <time>2012-09-16T07:34:20Z</time>
      </trkpt>
      <trkpt lat="44.96691" lon="5.42864">
        <ele>885.2</ele>
        <time>2012-09-16T07:34:24Z</time>
      </trkpt>
      <trkpt lat="44.96705" lon="5.42881">
        <ele>884.5</ele>
        <time>2012-09-16T07:34:32Z</time>
      </trkpt>
      <trkpt lat="44.96718" lon="5.42894">
        <ele>884</ele>
        <time>2012-09-16T07:34:39Z</time>
      </trkpt>
      <trkpt lat="44.96725" lon="5.42899">
        <ele>884</ele>
        <time>2012-09-16T07:34:42Z</time>
      </trkpt>
      <trkpt lat="44.96753" lon="5.42908">
        <ele>884.5</ele>
        <time>2012-09-16T07:34:52Z</time>
      </trkpt>
      <trkpt lat="44.96761" lon="5.42909">
        <ele>884.4</ele>
        <time>2012-09-16T07:34:55Z</time>
      </trkpt>
      <trkpt lat="44.9677" lon="5.42908">
        <ele>884</ele>
        <time>2012-09-16T07:34:59Z</time>
      </trkpt>
      <trkpt lat="44.96777" lon="5.42904">
        <ele>883.7</ele>
        <time>2012-09-16T07:35:02Z</time>
      </trkpt>
      <trkpt lat="44.96791" lon="5.429">
        <ele>884.2</ele>
        <time>2012-09-16T07:35:07Z</time>
      </trkpt>
      <trkpt lat="44.96806" lon="5.429">
        <ele>884.7</ele>
        <time>2012-09-16T07:35:15Z</time>
      </trkpt>
      <trkpt lat="44.96827" lon="5.42893">
        <ele>885.2</ele>
        <time>2012-09-16T07:35:26Z</time>
      </trkpt>
      <trkpt lat="44.96849" lon="5.42888">
        <ele>886.9</ele>
        <time>2012-09-16T07:35:36Z</time>
      </trkpt>
      <trkpt lat="44.96859" lon="5.42888">
        <ele>887.5</ele>
        <time>2012-09-16T07:35:40Z</time>
      </trkpt>
      <trkpt lat="44.96886" lon="5.42895">
        <ele>889.4</ele>
        <time>2012-09-16T07:35:51Z</time>
      </trkpt>
      <trkpt lat="44.96915" lon="5.42908">
        <ele>889.2</ele>
        <time>2012-09-16T07:36:01Z</time>
      </trkpt>
      <trkpt lat="44.9694" lon="5.42904">
        <ele>889.9</ele>
        <time>2012-09-16T07:36:13Z</time>
      </trkpt>
      <trkpt lat="44.96973" lon="5.42902">
        <ele>890.5</ele>
        <time>2012-09-16T07:36:27Z</time>
      </trkpt>
      <trkpt lat="44.97002" lon="5.42901">
        <ele>891.2</ele>
        <time>2012-09-16T07:36:39Z</time>
      </trkpt>
      <trkpt lat="44.97008" lon="5.42899">
        <ele>891.5</ele>
        <time>2012-09-16T07:36:42Z</time>
      </trkpt>
      <trkpt lat="44.97036" lon="5.42897">
        <ele>892.2</ele>
        <time>2012-09-16T07:36:54Z</time>
      </trkpt>
      <trkpt lat="44.97043" lon="5.42897">
        <ele>892.4</ele>
        <time>2012-09-16T07:36:57Z</time>
      </trkpt>
      <trkpt lat="44.97069" lon="5.42903">
        <ele>892.9</ele>
        <time>2012-09-16T07:37:08Z</time>
      </trkpt>
      <trkpt lat="44.97105" lon="5.42915">
        <ele>893.2</ele>
        <time>2012-09-16T07:37:23Z</time>
      </trkpt>
      <trkpt lat="44.97116" lon="5.4292">
        <ele>893.5</ele>
        <time>2012-09-16T07:37:28Z</time>
      </trkpt>
      <trkpt lat="44.97123" lon="5.42921">
        <ele>893.5</ele>
        <time>2012-09-16T07:37:33Z</time>
      </trkpt>
      <trkpt lat="44.97122" lon="5.42923">
        <ele>893</ele>
        <time>2012-09-16T07:37:55Z</time>
      </trkpt>
      <trkpt lat="44.97124" lon="5.42927">
        <ele>893</ele>
        <time>2012-09-16T07:37:59Z</time>
      </trkpt>
      <trkpt lat="44.97146" lon="5.42943">
        <ele>893.5</ele>
        <time>2012-09-16T07:38:10Z</time>
      </trkpt>
      <trkpt lat="44.97169" lon="5.42959">
        <ele>894.2</ele>
        <time>2012-09-16T07:38:20Z</time>
      </trkpt>
      <trkpt lat="44.97187" lon="5.42967">
        <ele>894.5</ele>
        <time>2012-09-16T07:38:28Z</time>
      </trkpt>
      <trkpt lat="44.97206" lon="5.42972">
        <ele>895.7</ele>
        <time>2012-09-16T07:38:36Z</time>
      </trkpt>
      <trkpt lat="44.97231" lon="5.42981">
        <ele>896.5</ele>
        <time>2012-09-16T07:38:45Z</time>
      </trkpt>
      <trkpt lat="44.97245" lon="5.42983">
        <ele>897.2</ele>
        <time>2012-09-16T07:38:50Z</time>
      </trkpt>
      <trkpt lat="44.97254" lon="5.42982">
        <ele>897.7</ele>
        <time>2012-09-16T07:38:54Z</time>
      </trkpt>
      <trkpt lat="44.97261" lon="5.42984">
        <ele>899.2</ele>
        <time>2012-09-16T07:38:59Z</time>
      </trkpt>
      <trkpt lat="44.9728" lon="5.42999">
        <ele>899</ele>
        <time>2012-09-16T07:39:29Z</time>
      </trkpt>
      <trkpt lat="44.97285" lon="5.43005">
        <ele>898.5</ele>
        <time>2012-09-16T07:39:31Z</time>
      </trkpt>
      <trkpt lat="44.97296" lon="5.43012">
        <ele>898</ele>
        <time>2012-09-16T07:39:34Z</time>
      </trkpt>
      <trkpt lat="44.97311" lon="5.43019">
        <ele>896.7</ele>
        <time>2012-09-16T07:39:38Z</time>
      </trkpt>
      <trkpt lat="44.97319" lon="5.43021">
        <ele>896.5</ele>
        <time>2012-09-16T07:39:40Z</time>
      </trkpt>
      <trkpt lat="44.97334" lon="5.43022">
        <ele>896.2</ele>
        <time>2012-09-16T07:39:44Z</time>
      </trkpt>
      <trkpt lat="44.97349" lon="5.43026">
        <ele>896.2</ele>
        <time>2012-09-16T07:39:48Z</time>
      </trkpt>
      <trkpt lat="44.97363" lon="5.43026">
        <ele>895.7</ele>
        <time>2012-09-16T07:39:52Z</time>
      </trkpt>
      <trkpt lat="44.97374" lon="5.43023">
        <ele>894</ele>
        <time>2012-09-16T07:39:55Z</time>
      </trkpt>
      <trkpt lat="44.97383" lon="5.43025">
        <ele>893.7</ele>
        <time>2012-09-16T07:39:57Z</time>
      </trkpt>
      <trkpt lat="44.9739" lon="5.43028">
        <ele>893.2</ele>
        <time>2012-09-16T07:39:59Z</time>
      </trkpt>
      <trkpt lat="44.97416" lon="5.4305">
        <ele>891.7</ele>
        <time>2012-09-16T07:40:07Z</time>
      </trkpt>
      <trkpt lat="44.97436" lon="5.43061">
        <ele>891.7</ele>
        <time>2012-09-16T07:40:14Z</time>
      </trkpt>
      <trkpt lat="44.97441" lon="5.43065">
        <ele>891.5</ele>
        <time>2012-09-16T07:40:16Z</time>
      </trkpt>
      <trkpt lat="44.97476" lon="5.43086">
        <ele>891.2</ele>
        <time>2012-09-16T07:40:28Z</time>
      </trkpt>
      <trkpt lat="44.97492" lon="5.43096">
        <ele>890.7</ele>
        <time>2012-09-16T07:40:34Z</time>
      </trkpt>
      <trkpt lat="44.97525" lon="5.43127">
        <ele>892</ele>
        <time>2012-09-16T07:40:48Z</time>
      </trkpt>
      <trkpt lat="44.97542" lon="5.43138">
        <ele>894.2</ele>
        <time>2012-09-16T07:40:56Z</time>
      </trkpt>
      <trkpt lat="44.97571" lon="5.43142">
        <ele>895</ele>
        <time>2012-09-16T07:41:09Z</time>
      </trkpt>
      <trkpt lat="44.97576" lon="5.43142">
        <ele>895.7</ele>
        <time>2012-09-16T07:41:12Z</time>
      </trkpt>
      <trkpt lat="44.97587" lon="5.43145">
        <ele>896.2</ele>
        <time>2012-09-16T07:41:16Z</time>
      </trkpt>
      <trkpt lat="44.97636" lon="5.43166">
        <ele>893.9</ele>
        <time>2012-09-16T07:41:29Z</time>
      </trkpt>
      <trkpt lat="44.9764" lon="5.43167">
        <ele>894</ele>
        <time>2012-09-16T07:41:30Z</time>
      </trkpt>
      <trkpt lat="44.97667" lon="5.43175">
        <ele>892.2</ele>
        <time>2012-09-16T07:41:38Z</time>
      </trkpt>
      <trkpt lat="44.97691" lon="5.43188">
        <ele>892</ele>
        <time>2012-09-16T07:41:45Z</time>
      </trkpt>
      <trkpt lat="44.97697" lon="5.43194">
        <ele>892.5</ele>
        <time>2012-09-16T07:41:47Z</time>
      </trkpt>
      <trkpt lat="44.97737" lon="5.43219">
        <ele>888</ele>
        <time>2012-09-16T07:41:57Z</time>
      </trkpt>
      <trkpt lat="44.97765" lon="5.43232">
        <ele>885.5</ele>
        <time>2012-09-16T07:42:03Z</time>
      </trkpt>
      <trkpt lat="44.97791" lon="5.43236">
        <ele>885.4</ele>
        <time>2012-09-16T07:42:09Z</time>
      </trkpt>
      <trkpt lat="44.97816" lon="5.43242">
        <ele>890.7</ele>
        <time>2012-09-16T07:42:18Z</time>
      </trkpt>
      <trkpt lat="44.97822" lon="5.43242">
        <ele>891.4</ele>
        <time>2012-09-16T07:42:21Z</time>
      </trkpt>
      <trkpt lat="44.97831" lon="5.43244">
        <ele>892.7</ele>
        <time>2012-09-16T07:42:24Z</time>
      </trkpt>
      <trkpt lat="44.97867" lon="5.43251">
        <ele>890.5</ele>
        <time>2012-09-16T07:42:32Z</time>
      </trkpt>
      <trkpt lat="44.97917" lon="5.43272">
        <ele>889.2</ele>
        <time>2012-09-16T07:42:40Z</time>
      </trkpt>
      <trkpt lat="44.97966" lon="5.43281">
        <ele>887.7</ele>
        <time>2012-09-16T07:42:50Z</time>
      </trkpt>
      <trkpt lat="44.97978" lon="5.43285">
        <ele>889.9</ele>
        <time>2012-09-16T07:42:53Z</time>
      </trkpt>
      <trkpt lat="44.97992" lon="5.43288">
        <ele>893.7</ele>
        <time>2012-09-16T07:42:57Z</time>
      </trkpt>
      <trkpt lat="44.98017" lon="5.43297">
        <ele>903.9</ele>
        <time>2012-09-16T07:43:07Z</time>
      </trkpt>
      <trkpt lat="44.98032" lon="5.43304">
        <ele>897.7</ele>
        <time>2012-09-16T07:43:17Z</time>
      </trkpt>
      <trkpt lat="44.98039" lon="5.43308">
        <ele>894.7</ele>
        <time>2012-09-16T07:43:20Z</time>
      </trkpt>
      <trkpt lat="44.98046" lon="5.4331">
        <ele>893</ele>
        <time>2012-09-16T07:43:23Z</time>
      </trkpt>
      <trkpt lat="44.9806" lon="5.4331">
        <ele>889.5</ele>
        <time>2012-09-16T07:43:27Z</time>
      </trkpt>
      <trkpt lat="44.98063" lon="5.43311">
        <ele>887.2</ele>
        <time>2012-09-16T07:43:28Z</time>
      </trkpt>
      <trkpt lat="44.98079" lon="5.43312">
        <ele>882.5</ele>
        <time>2012-09-16T07:43:32Z</time>
      </trkpt>
      <trkpt lat="44.98109" lon="5.43319">
        <ele>863.5</ele>
        <time>2012-09-16T07:43:39Z</time>
      </trkpt>
      <trkpt lat="44.98131" lon="5.4332">
        <ele>851.2</ele>
        <time>2012-09-16T07:43:47Z</time>
      </trkpt>
      <trkpt lat="44.98144" lon="5.43319">
        <ele>845.4</ele>
        <time>2012-09-16T07:43:52Z</time>
      </trkpt>
      <trkpt lat="44.98156" lon="5.43322">
        <ele>843.5</ele>
        <time>2012-09-16T07:43:57Z</time>
      </trkpt>
      <trkpt lat="44.98165" lon="5.43327">
        <ele>843.2</ele>
        <time>2012-09-16T07:44:00Z</time>
      </trkpt>
      <trkpt lat="44.98171" lon="5.43328">
        <ele>841.7</ele>
        <time>2012-09-16T07:44:02Z</time>
      </trkpt>
      <trkpt lat="44.98181" lon="5.43332">
        <ele>842</ele>
        <time>2012-09-16T07:44:06Z</time>
      </trkpt>
      <trkpt lat="44.9819" lon="5.43333">
        <ele>841.4</ele>
        <time>2012-09-16T07:44:10Z</time>
      </trkpt>
      <trkpt lat="44.98201" lon="5.43339">
        <ele>845.7</ele>
        <time>2012-09-16T07:44:15Z</time>
      </trkpt>
      <trkpt lat="44.9821" lon="5.43341">
        <ele>846.7</ele>
        <time>2012-09-16T07:44:18Z</time>
      </trkpt>
      <trkpt lat="44.98221" lon="5.43346">
        <ele>851.7</ele>
        <time>2012-09-16T07:44:22Z</time>
      </trkpt>
      <trkpt lat="44.9823" lon="5.43347">
        <ele>853</ele>
        <time>2012-09-16T07:44:25Z</time>
      </trkpt>
      <trkpt lat="44.98249" lon="5.43349">
        <ele>857.9</ele>
        <time>2012-09-16T07:44:31Z</time>
      </trkpt>
      <trkpt lat="44.98267" lon="5.4335">
        <ele>859.7</ele>
        <time>2012-09-16T07:44:36Z</time>
      </trkpt>
      <trkpt lat="44.98275" lon="5.43353">
        <ele>862.2</ele>
        <time>2012-09-16T07:44:38Z</time>
      </trkpt>
      <trkpt lat="44.98287" lon="5.43359">
        <ele>866</ele>
        <time>2012-09-16T07:44:42Z</time>
      </trkpt>
      <trkpt lat="44.98296" lon="5.43358">
        <ele>865.9</ele>
        <time>2012-09-16T07:44:45Z</time>
      </trkpt>
      <trkpt lat="44.98319" lon="5.43358">
        <ele>867.5</ele>
        <time>2012-09-16T07:44:52Z</time>
      </trkpt>
      <trkpt lat="44.98324" lon="5.43356">
        <ele>867.7</ele>
        <time>2012-09-16T07:44:54Z</time>
      </trkpt>
      <trkpt lat="44.98335" lon="5.43356">
        <ele>868.2</ele>
        <time>2012-09-16T07:44:57Z</time>
      </trkpt>
      <trkpt lat="44.9836" lon="5.43361">
        <ele>880.7</ele>
        <time>2012-09-16T07:45:08Z</time>
      </trkpt>
      <trkpt lat="44.98372" lon="5.43361">
        <ele>883.2</ele>
        <time>2012-09-16T07:45:13Z</time>
      </trkpt>
      <trkpt lat="44.98382" lon="5.43363">
        <ele>887</ele>
        <time>2012-09-16T07:45:17Z</time>
      </trkpt>
      <trkpt lat="44.98405" lon="5.43361">
        <ele>884.5</ele>
        <time>2012-09-16T07:45:25Z</time>
      </trkpt>
      <trkpt lat="44.98427" lon="5.43359">
        <ele>882.2</ele>
        <time>2012-09-16T07:45:34Z</time>
      </trkpt>
      <trkpt lat="44.98433" lon="5.43354">
        <ele>886</ele>
        <time>2012-09-16T07:45:40Z</time>
      </trkpt>
      <trkpt lat="44.98441" lon="5.43355">
        <ele>895.5</ele>
        <time>2012-09-16T07:45:49Z</time>
      </trkpt>
      <trkpt lat="44.98458" lon="5.43365">
        <ele>906.2</ele>
        <time>2012-09-16T07:46:02Z</time>
      </trkpt>
      <trkpt lat="44.98469" lon="5.43371">
        <ele>918.7</ele>
        <time>2012-09-16T07:46:10Z</time>
      </trkpt>
      <trkpt lat="44.98478" lon="5.43373">
        <ele>922.7</ele>
        <time>2012-09-16T07:46:15Z</time>
      </trkpt>
      <trkpt lat="44.98495" lon="5.43375">
        <ele>928.7</ele>
        <time>2012-09-16T07:46:24Z</time>
      </trkpt>
      <trkpt lat="44.98511" lon="5.43382">
        <ele>927.2</ele>
        <time>2012-09-16T07:46:30Z</time>
      </trkpt>
      <trkpt lat="44.98521" lon="5.43382">
        <ele>926</ele>
        <time>2012-09-16T07:46:35Z</time>
      </trkpt>
      <trkpt lat="44.98542" lon="5.43384">
        <ele>918.7</ele>
        <time>2012-09-16T07:46:42Z</time>
      </trkpt>
      <trkpt lat="44.98553" lon="5.43382">
        <ele>916.7</ele>
        <time>2012-09-16T07:46:49Z</time>
      </trkpt>
      <trkpt lat="44.98558" lon="5.43382">
        <ele>915.5</ele>
        <time>2012-09-16T07:46:51Z</time>
      </trkpt>
      <trkpt lat="44.98568" lon="5.43381">
        <ele>913.2</ele>
        <time>2012-09-16T07:46:57Z</time>
      </trkpt>
      <trkpt lat="44.98574" lon="5.43383">
        <ele>922</ele>
        <time>2012-09-16T07:47:05Z</time>
      </trkpt>
      <trkpt lat="44.9858" lon="5.43383">
        <ele>924.4</ele>
        <time>2012-09-16T07:47:09Z</time>
      </trkpt>
      <trkpt lat="44.98588" lon="5.43383">
        <ele>928.7</ele>
        <time>2012-09-16T07:47:13Z</time>
      </trkpt>
      <trkpt lat="44.98605" lon="5.43385">
        <ele>938</ele>
        <time>2012-09-16T07:47:21Z</time>
      </trkpt>
      <trkpt lat="44.98613" lon="5.43382">
        <ele>942.4</ele>
        <time>2012-09-16T07:47:27Z</time>
      </trkpt>
      <trkpt lat="44.98621" lon="5.43381">
        <ele>944.5</ele>
        <time>2012-09-16T07:47:31Z</time>
      </trkpt>
      <trkpt lat="44.98639" lon="5.43381">
        <ele>942.5</ele>
        <time>2012-09-16T07:47:38Z</time>
      </trkpt>
      <trkpt lat="44.98657" lon="5.43384">
        <ele>943</ele>
        <time>2012-09-16T07:47:46Z</time>
      </trkpt>
      <trkpt lat="44.98672" lon="5.43387">
        <ele>944.2</ele>
        <time>2012-09-16T07:47:56Z</time>
      </trkpt>
      <trkpt lat="44.98683" lon="5.43391">
        <ele>944.7</ele>
        <time>2012-09-16T07:48:01Z</time>
      </trkpt>
      <trkpt lat="44.98694" lon="5.43396">
        <ele>943.9</ele>
        <time>2012-09-16T07:48:05Z</time>
      </trkpt>
      <trkpt lat="44.98699" lon="5.43397">
        <ele>942.7</ele>
        <time>2012-09-16T07:48:07Z</time>
      </trkpt>
      <trkpt lat="44.98726" lon="5.43404">
        <ele>935.7</ele>
        <time>2012-09-16T07:48:17Z</time>
      </trkpt>
      <trkpt lat="44.98732" lon="5.43404">
        <ele>935</ele>
        <time>2012-09-16T07:48:19Z</time>
      </trkpt>
      <trkpt lat="44.98741" lon="5.43408">
        <ele>931.9</ele>
        <time>2012-09-16T07:48:22Z</time>
      </trkpt>
      <trkpt lat="44.98761" lon="5.4341">
        <ele>926</ele>
        <time>2012-09-16T07:48:29Z</time>
      </trkpt>
      <trkpt lat="44.98777" lon="5.43413">
        <ele>923</ele>
        <time>2012-09-16T07:48:33Z</time>
      </trkpt>
      <trkpt lat="44.9878" lon="5.43414">
        <ele>922.7</ele>
        <time>2012-09-16T07:48:34Z</time>
      </trkpt>
      <trkpt lat="44.98793" lon="5.43422">
        <ele>922.4</ele>
        <time>2012-09-16T07:48:39Z</time>
      </trkpt>
      <trkpt lat="44.98806" lon="5.43424">
        <ele>917.5</ele>
        <time>2012-09-16T07:48:44Z</time>
      </trkpt>
      <trkpt lat="44.98814" lon="5.43428">
        <ele>915.7</ele>
        <time>2012-09-16T07:48:47Z</time>
      </trkpt>
      <trkpt lat="44.98829" lon="5.43429">
        <ele>914.4</ele>
        <time>2012-09-16T07:48:52Z</time>
      </trkpt>
      <trkpt lat="44.9884" lon="5.43434">
        <ele>914.5</ele>
        <time>2012-09-16T07:48:56Z</time>
      </trkpt>
      <trkpt lat="44.9885" lon="5.43433">
        <ele>912.2</ele>
        <time>2012-09-16T07:48:59Z</time>
      </trkpt>
      <trkpt lat="44.98855" lon="5.43431">
        <ele>912</ele>
        <time>2012-09-16T07:49:01Z</time>
      </trkpt>
      <trkpt lat="44.98879" lon="5.43431">
        <ele>905.2</ele>
        <time>2012-09-16T07:49:09Z</time>
      </trkpt>
      <trkpt lat="44.98886" lon="5.43433">
        <ele>904.5</ele>
        <time>2012-09-16T07:49:12Z</time>
      </trkpt>
      <trkpt lat="44.98892" lon="5.43438">
        <ele>904.4</ele>
        <time>2012-09-16T07:49:15Z</time>
      </trkpt>
      <trkpt lat="44.98901" lon="5.43443">
        <ele>900.5</ele>
        <time>2012-09-16T07:49:18Z</time>
      </trkpt>
      <trkpt lat="44.98909" lon="5.43444">
        <ele>900.2</ele>
        <time>2012-09-16T07:49:20Z</time>
      </trkpt>
      <trkpt lat="44.98916" lon="5.43449">
        <ele>900.7</ele>
        <time>2012-09-16T07:49:24Z</time>
      </trkpt>
      <trkpt lat="44.98923" lon="5.4345">
        <ele>906.4</ele>
        <time>2012-09-16T07:49:28Z</time>
      </trkpt>
      <trkpt lat="44.98935" lon="5.43444">
        <ele>909</ele>
        <time>2012-09-16T07:49:34Z</time>
      </trkpt>
      <trkpt lat="44.98943" lon="5.43437">
        <ele>918.5</ele>
        <time>2012-09-16T07:49:39Z</time>
      </trkpt>
      <trkpt lat="44.98968" lon="5.43429">
        <ele>927.5</ele>
        <time>2012-09-16T07:49:48Z</time>
      </trkpt>
      <trkpt lat="44.98989" lon="5.43433">
        <ele>927</ele>
        <time>2012-09-16T07:49:54Z</time>
      </trkpt>
      <trkpt lat="44.9901" lon="5.43435">
        <ele>920.5</ele>
        <time>2012-09-16T07:50:02Z</time>
      </trkpt>
      <trkpt lat="44.99021" lon="5.43432">
        <ele>916.2</ele>
        <time>2012-09-16T07:50:08Z</time>
      </trkpt>
      <trkpt lat="44.99045" lon="5.43438">
        <ele>887</ele>
        <time>2012-09-16T07:50:10Z</time>
      </trkpt>
      <trkpt lat="44.99063" lon="5.43438">
        <ele>880.5</ele>
        <time>2012-09-16T07:50:16Z</time>
      </trkpt>
      <trkpt lat="44.9908" lon="5.43435">
        <ele>877</ele>
        <time>2012-09-16T07:50:26Z</time>
      </trkpt>
      <trkpt lat="44.99086" lon="5.43433">
        <ele>885.2</ele>
        <time>2012-09-16T07:50:32Z</time>
      </trkpt>
      <trkpt lat="44.9909" lon="5.43433">
        <ele>885.7</ele>
        <time>2012-09-16T07:50:34Z</time>
      </trkpt>
      <trkpt lat="44.99101" lon="5.4343">
        <ele>886</ele>
        <time>2012-09-16T07:50:39Z</time>
      </trkpt>
      <trkpt lat="44.99113" lon="5.43431">
        <ele>883.2</ele>
        <time>2012-09-16T07:50:44Z</time>
      </trkpt>
      <trkpt lat="44.99125" lon="5.43435">
        <ele>881</ele>
        <time>2012-09-16T07:50:49Z</time>
      </trkpt>
      <trkpt lat="44.99149" lon="5.43448">
        <ele>877.4</ele>
        <time>2012-09-16T07:50:57Z</time>
      </trkpt>
      <trkpt lat="44.99155" lon="5.43449">
        <ele>876.5</ele>
        <time>2012-09-16T07:50:59Z</time>
      </trkpt>
      <trkpt lat="44.99166" lon="5.43454">
        <ele>873.2</ele>
        <time>2012-09-16T07:51:03Z</time>
      </trkpt>
      <trkpt lat="44.9919" lon="5.43465">
        <ele>862.2</ele>
        <time>2012-09-16T07:51:13Z</time>
      </trkpt>
      <trkpt lat="44.99204" lon="5.43472">
        <ele>855.4</ele>
        <time>2012-09-16T07:51:19Z</time>
      </trkpt>
      <trkpt lat="44.99212" lon="5.43479">
        <ele>851.5</ele>
        <time>2012-09-16T07:51:23Z</time>
      </trkpt>
      <trkpt lat="44.99228" lon="5.43484">
        <ele>827.4</ele>
        <time>2012-09-16T07:51:29Z</time>
      </trkpt>
      <trkpt lat="44.99248" lon="5.43493">
        <ele>805</ele>
        <time>2012-09-16T07:51:39Z</time>
      </trkpt>
      <trkpt lat="44.99261" lon="5.43494">
        <ele>797.9</ele>
        <time>2012-09-16T07:51:44Z</time>
      </trkpt>
      <trkpt lat="44.99272" lon="5.43495">
        <ele>791.5</ele>
        <time>2012-09-16T07:51:49Z</time>
      </trkpt>
      <trkpt lat="44.99279" lon="5.43502">
        <ele>790</ele>
        <time>2012-09-16T07:51:55Z</time>
      </trkpt>
      <trkpt lat="44.99292" lon="5.43506">
        <ele>786.5</ele>
        <time>2012-09-16T07:52:02Z</time>
      </trkpt>
      <trkpt lat="44.99302" lon="5.43497">
        <ele>785.2</ele>
        <time>2012-09-16T07:52:08Z</time>
      </trkpt>
      <trkpt lat="44.99311" lon="5.43495">
        <ele>784.2</ele>
        <time>2012-09-16T07:52:17Z</time>
      </trkpt>
      <trkpt lat="44.99318" lon="5.43499">
        <ele>785.5</ele>
        <time>2012-09-16T07:52:22Z</time>
      </trkpt>
      <trkpt lat="44.9933" lon="5.435">
        <ele>784.9</ele>
        <time>2012-09-16T07:52:27Z</time>
      </trkpt>
      <trkpt lat="44.99339" lon="5.43504">
        <ele>783.2</ele>
        <time>2012-09-16T07:52:30Z</time>
      </trkpt>
      <trkpt lat="44.99346" lon="5.43507">
        <ele>781</ele>
        <time>2012-09-16T07:52:32Z</time>
      </trkpt>
      <trkpt lat="44.99362" lon="5.43515">
        <ele>777.9</ele>
        <time>2012-09-16T07:52:38Z</time>
      </trkpt>
      <trkpt lat="44.99374" lon="5.43525">
        <ele>775.4</ele>
        <time>2012-09-16T07:52:42Z</time>
      </trkpt>
      <trkpt lat="44.99382" lon="5.4353">
        <ele>774.2</ele>
        <time>2012-09-16T07:52:44Z</time>
      </trkpt>
      <trkpt lat="44.994" lon="5.43534">
        <ele>773.7</ele>
        <time>2012-09-16T07:52:49Z</time>
      </trkpt>
      <trkpt lat="44.99412" lon="5.4354">
        <ele>774</ele>
        <time>2012-09-16T07:52:53Z</time>
      </trkpt>
      <trkpt lat="44.99417" lon="5.43546">
        <ele>773.2</ele>
        <time>2012-09-16T07:52:55Z</time>
      </trkpt>
      <trkpt lat="44.99425" lon="5.43549">
        <ele>771</ele>
        <time>2012-09-16T07:52:59Z</time>
      </trkpt>
      <trkpt lat="44.99448" lon="5.43565">
        <ele>766</ele>
        <time>2012-09-16T07:53:08Z</time>
      </trkpt>
      <trkpt lat="44.99462" lon="5.4358">
        <ele>762.2</ele>
        <time>2012-09-16T07:53:25Z</time>
      </trkpt>
      <trkpt lat="44.99486" lon="5.43585">
        <ele>761.2</ele>
        <time>2012-09-16T07:53:35Z</time>
      </trkpt>
      <trkpt lat="44.99498" lon="5.43586">
        <ele>759</ele>
        <time>2012-09-16T07:53:39Z</time>
      </trkpt>
      <trkpt lat="44.9952" lon="5.43586">
        <ele>758.2</ele>
        <time>2012-09-16T07:53:47Z</time>
      </trkpt>
      <trkpt lat="44.99535" lon="5.43584">
        <ele>757.7</ele>
        <time>2012-09-16T07:53:52Z</time>
      </trkpt>
      <trkpt lat="44.9955" lon="5.43589">
        <ele>756.7</ele>
        <time>2012-09-16T07:53:59Z</time>
      </trkpt>
      <trkpt lat="44.99565" lon="5.43597">
        <ele>753.5</ele>
        <time>2012-09-16T07:54:05Z</time>
      </trkpt>
      <trkpt lat="44.99579" lon="5.43608">
        <ele>750</ele>
        <time>2012-09-16T07:54:10Z</time>
      </trkpt>
      <trkpt lat="44.99586" lon="5.43612">
        <ele>749.5</ele>
        <time>2012-09-16T07:54:13Z</time>
      </trkpt>
      <trkpt lat="44.99595" lon="5.43614">
        <ele>749.5</ele>
        <time>2012-09-16T07:54:16Z</time>
      </trkpt>
      <trkpt lat="44.99608" lon="5.43609">
        <ele>747</ele>
        <time>2012-09-16T07:54:20Z</time>
      </trkpt>
      <trkpt lat="44.99612" lon="5.43606">
        <ele>748.4</ele>
        <time>2012-09-16T07:54:22Z</time>
      </trkpt>
      <trkpt lat="44.99623" lon="5.43604">
        <ele>747.7</ele>
        <time>2012-09-16T07:54:26Z</time>
      </trkpt>
      <trkpt lat="44.9963" lon="5.43607">
        <ele>753.7</ele>
        <time>2012-09-16T07:54:31Z</time>
      </trkpt>
      <trkpt lat="44.99655" lon="5.43608">
        <ele>748.4</ele>
        <time>2012-09-16T07:54:39Z</time>
      </trkpt>
      <trkpt lat="44.99661" lon="5.4361">
        <ele>747</ele>
        <time>2012-09-16T07:54:41Z</time>
      </trkpt>
      <trkpt lat="44.99675" lon="5.43602">
        <ele>747.7</ele>
        <time>2012-09-16T07:54:47Z</time>
      </trkpt>
      <trkpt lat="44.99682" lon="5.43602">
        <ele>745.7</ele>
        <time>2012-09-16T07:54:49Z</time>
      </trkpt>
      <trkpt lat="44.99689" lon="5.43605">
        <ele>744.2</ele>
        <time>2012-09-16T07:54:51Z</time>
      </trkpt>
      <trkpt lat="44.99706" lon="5.43606">
        <ele>739</ele>
        <time>2012-09-16T07:54:55Z</time>
      </trkpt>
      <trkpt lat="44.99714" lon="5.43603">
        <ele>738</ele>
        <time>2012-09-16T07:54:57Z</time>
      </trkpt>
      <trkpt lat="44.99724" lon="5.43595">
        <ele>737</ele>
        <time>2012-09-16T07:55:01Z</time>
      </trkpt>
      <trkpt lat="44.99731" lon="5.43584">
        <ele>747.4</ele>
        <time>2012-09-16T07:55:09Z</time>
      </trkpt>
      <trkpt lat="44.99738" lon="5.43584">
        <ele>754</ele>
        <time>2012-09-16T07:55:15Z</time>
      </trkpt>
      <trkpt lat="44.9975" lon="5.43578">
        <ele>745.9</ele>
        <time>2012-09-16T07:55:22Z</time>
      </trkpt>
      <trkpt lat="44.99753" lon="5.43576">
        <ele>739.5</ele>
        <time>2012-09-16T07:55:30Z</time>
      </trkpt>
      <trkpt lat="44.9977" lon="5.43579">
        <ele>702.7</ele>
        <time>2012-09-16T07:55:55Z</time>
      </trkpt>
      <trkpt lat="44.99777" lon="5.43577">
        <ele>692.7</ele>
        <time>2012-09-16T07:56:05Z</time>
      </trkpt>
      <trkpt lat="44.9978" lon="5.43569">
        <ele>708</ele>
        <time>2012-09-16T07:56:11Z</time>
      </trkpt>
      <trkpt lat="44.99798" lon="5.43554">
        <ele>715</ele>
        <time>2012-09-16T07:56:20Z</time>
      </trkpt>
      <trkpt lat="44.99805" lon="5.43545">
        <ele>714</ele>
        <time>2012-09-16T07:56:24Z</time>
      </trkpt>
      <trkpt lat="44.99814" lon="5.4353">
        <ele>719.2</ele>
        <time>2012-09-16T07:56:30Z</time>
      </trkpt>
      <trkpt lat="44.99823" lon="5.43528">
        <ele>731.9</ele>
        <time>2012-09-16T07:56:39Z</time>
      </trkpt>
      <trkpt lat="44.99828" lon="5.4353">
        <ele>737.2</ele>
        <time>2012-09-16T07:56:43Z</time>
      </trkpt>
      <trkpt lat="44.99847" lon="5.43531">
        <ele>738.7</ele>
        <time>2012-09-16T07:56:52Z</time>
      </trkpt>
      <trkpt lat="44.99853" lon="5.4353">
        <ele>738.7</ele>
        <time>2012-09-16T07:56:55Z</time>
      </trkpt>
      <trkpt lat="44.99861" lon="5.43529">
        <ele>736.4</ele>
        <time>2012-09-16T07:56:58Z</time>
      </trkpt>
      <trkpt lat="44.9987" lon="5.43523">
        <ele>734.7</ele>
        <time>2012-09-16T07:57:02Z</time>
      </trkpt>
      <trkpt lat="44.99894" lon="5.4352">
        <ele>727.5</ele>
        <time>2012-09-16T07:57:15Z</time>
      </trkpt>
      <trkpt lat="44.99902" lon="5.43527">
        <ele>741</ele>
        <time>2012-09-16T07:57:27Z</time>
      </trkpt>
      <trkpt lat="44.99907" lon="5.43529">
        <ele>739.7</ele>
        <time>2012-09-16T07:57:31Z</time>
      </trkpt>
      <trkpt lat="44.99915" lon="5.43542">
        <ele>744.5</ele>
        <time>2012-09-16T07:57:41Z</time>
      </trkpt>
      <trkpt lat="44.99921" lon="5.43554">
        <ele>746.7</ele>
        <time>2012-09-16T07:57:47Z</time>
      </trkpt>
      <trkpt lat="44.99931" lon="5.43569">
        <ele>745.2</ele>
        <time>2012-09-16T07:57:54Z</time>
      </trkpt>
      <trkpt lat="44.99935" lon="5.43573">
        <ele>748.4</ele>
        <time>2012-09-16T07:57:56Z</time>
      </trkpt>
      <trkpt lat="44.99964" lon="5.43587">
        <ele>741.4</ele>
        <time>2012-09-16T07:58:05Z</time>
      </trkpt>
      <trkpt lat="44.99986" lon="5.436">
        <ele>737</ele>
        <time>2012-09-16T07:58:12Z</time>
      </trkpt>
      <trkpt lat="45.00023" lon="5.43617">
        <ele>720</ele>
        <time>2012-09-16T07:58:24Z</time>
      </trkpt>
      <trkpt lat="45.00029" lon="5.43615">
        <ele>718</ele>
        <time>2012-09-16T07:58:26Z</time>
      </trkpt>
      <trkpt lat="45.00036" lon="5.43609">
        <ele>714</ele>
        <time>2012-09-16T07:58:29Z</time>
      </trkpt>
      <trkpt lat="45.00051" lon="5.43601">
        <ele>702.9</ele>
        <time>2012-09-16T07:58:36Z</time>
      </trkpt>
      <trkpt lat="45.00055" lon="5.43594">
        <ele>698</ele>
        <time>2012-09-16T07:58:40Z</time>
      </trkpt>
      <trkpt lat="45.00063" lon="5.43585">
        <ele>692.4</ele>
        <time>2012-09-16T07:58:44Z</time>
      </trkpt>
      <trkpt lat="45.00066" lon="5.4357">
        <ele>687.7</ele>
        <time>2012-09-16T07:58:49Z</time>
      </trkpt>
      <trkpt lat="45.00072" lon="5.43565">
        <ele>685</ele>
        <time>2012-09-16T07:58:52Z</time>
      </trkpt>
      <trkpt lat="45.00082" lon="5.43558">
        <ele>683.7</ele>
        <time>2012-09-16T07:58:59Z</time>
      </trkpt>
      <trkpt lat="45.00088" lon="5.43548">
        <ele>685.9</ele>
        <time>2012-09-16T07:59:11Z</time>
      </trkpt>
      <trkpt lat="45.00088" lon="5.43547">
        <ele>690</ele>
        <time>2012-09-16T07:59:20Z</time>
      </trkpt>
      <trkpt lat="45.00087" lon="5.43546">
        <ele>691.5</ele>
        <time>2012-09-16T07:59:27Z</time>
      </trkpt>
      <trkpt lat="45.00087" lon="5.43545">
        <ele>692.5</ele>
        <time>2012-09-16T07:59:41Z</time>
      </trkpt>
      <trkpt lat="45.00092" lon="5.43546">
        <ele>692.2</ele>
        <time>2012-09-16T07:59:59Z</time>
      </trkpt>
      <trkpt lat="45.00095" lon="5.43547">
        <ele>692.5</ele>
        <time>2012-09-16T08:00:11Z</time>
      </trkpt>
      <trkpt lat="45.00096" lon="5.43546">
        <ele>694.2</ele>
        <time>2012-09-16T08:00:41Z</time>
      </trkpt>
      <trkpt lat="45.00091" lon="5.43546">
        <ele>698.2</ele>
        <time>2012-09-16T08:01:19Z</time>
      </trkpt>
      <trkpt lat="45.00082" lon="5.43533">
        <ele>691.4</ele>
        <time>2012-09-16T08:01:30Z</time>
      </trkpt>
      <trkpt lat="45.00078" lon="5.43532">
        <ele>693.2</ele>
        <time>2012-09-16T08:01:39Z</time>
      </trkpt>
      <trkpt lat="45.00074" lon="5.4353">
        <ele>697.7</ele>
        <time>2012-09-16T08:01:46Z</time>
      </trkpt>
      <trkpt lat="45.00068" lon="5.43519">
        <ele>702.7</ele>
        <time>2012-09-16T08:01:57Z</time>
      </trkpt>
      <trkpt lat="45.00066" lon="5.43512">
        <ele>702.2</ele>
        <time>2012-09-16T08:02:02Z</time>
      </trkpt>
      <trkpt lat="45.0006" lon="5.43505">
        <ele>703.5</ele>
        <time>2012-09-16T08:02:07Z</time>
      </trkpt>
      <trkpt lat="45.00054" lon="5.43494">
        <ele>705.2</ele>
        <time>2012-09-16T08:02:15Z</time>
      </trkpt>
      <trkpt lat="45.00043" lon="5.43483">
        <ele>709.2</ele>
        <time>2012-09-16T08:02:23Z</time>
      </trkpt>
      <trkpt lat="45.00039" lon="5.43476">
        <ele>709.5</ele>
        <time>2012-09-16T08:02:26Z</time>
      </trkpt>
      <trkpt lat="45.00033" lon="5.43464">
        <ele>710.2</ele>
        <time>2012-09-16T08:02:31Z</time>
      </trkpt>
      <trkpt lat="45.0003" lon="5.43452">
        <ele>709.7</ele>
        <time>2012-09-16T08:02:35Z</time>
      </trkpt>
      <trkpt lat="45.00024" lon="5.43442">
        <ele>709.5</ele>
        <time>2012-09-16T08:02:38Z</time>
      </trkpt>
      <trkpt lat="45.0002" lon="5.4343">
        <ele>707.2</ele>
        <time>2012-09-16T08:02:42Z</time>
      </trkpt>
      <trkpt lat="45.00015" lon="5.4342">
        <ele>705.2</ele>
        <time>2012-09-16T08:02:45Z</time>
      </trkpt>
      <trkpt lat="45.00012" lon="5.43413">
        <ele>703.9</ele>
        <time>2012-09-16T08:02:47Z</time>
      </trkpt>
      <trkpt lat="45.00005" lon="5.43401">
        <ele>704</ele>
        <time>2012-09-16T08:02:50Z</time>
      </trkpt>
      <trkpt lat="44.99999" lon="5.43383">
        <ele>702.5</ele>
        <time>2012-09-16T08:02:55Z</time>
      </trkpt>
      <trkpt lat="44.99982" lon="5.43357">
        <ele>706.9</ele>
        <time>2012-09-16T08:03:03Z</time>
      </trkpt>
      <trkpt lat="44.99975" lon="5.43341">
        <ele>708</ele>
        <time>2012-09-16T08:03:08Z</time>
      </trkpt>
      <trkpt lat="44.99972" lon="5.43328">
        <ele>706.7</ele>
        <time>2012-09-16T08:03:12Z</time>
      </trkpt>
      <trkpt lat="44.99968" lon="5.43315">
        <ele>702.9</ele>
        <time>2012-09-16T08:03:17Z</time>
      </trkpt>
      <trkpt lat="44.99965" lon="5.43302">
        <ele>702.2</ele>
        <time>2012-09-16T08:03:22Z</time>
      </trkpt>
      <trkpt lat="44.99955" lon="5.43277">
        <ele>702.5</ele>
        <time>2012-09-16T08:03:32Z</time>
      </trkpt>
      <trkpt lat="44.99949" lon="5.43266">
        <ele>705.4</ele>
        <time>2012-09-16T08:03:35Z</time>
      </trkpt>
      <trkpt lat="44.99933" lon="5.43253">
        <ele>706.7</ele>
        <time>2012-09-16T08:03:39Z</time>
      </trkpt>
      <trkpt lat="44.99927" lon="5.43243">
        <ele>710.5</ele>
        <time>2012-09-16T08:03:42Z</time>
      </trkpt>
      <trkpt lat="44.99922" lon="5.43238">
        <ele>712</ele>
        <time>2012-09-16T08:03:44Z</time>
      </trkpt>
      <trkpt lat="44.99914" lon="5.43223">
        <ele>715.2</ele>
        <time>2012-09-16T08:03:49Z</time>
      </trkpt>
      <trkpt lat="44.99909" lon="5.43217">
        <ele>717</ele>
        <time>2012-09-16T08:03:51Z</time>
      </trkpt>
      <trkpt lat="44.99904" lon="5.43208">
        <ele>718.2</ele>
        <time>2012-09-16T08:03:54Z</time>
      </trkpt>
      <trkpt lat="44.99895" lon="5.43181">
        <ele>721.2</ele>
        <time>2012-09-16T08:04:01Z</time>
      </trkpt>
      <trkpt lat="44.9989" lon="5.43173">
        <ele>722.2</ele>
        <time>2012-09-16T08:04:03Z</time>
      </trkpt>
      <trkpt lat="44.99882" lon="5.43153">
        <ele>722.7</ele>
        <time>2012-09-16T08:04:09Z</time>
      </trkpt>
      <trkpt lat="44.99882" lon="5.43141">
        <ele>720</ele>
        <time>2012-09-16T08:04:13Z</time>
      </trkpt>
      <trkpt lat="44.99888" lon="5.43124">
        <ele>709.2</ele>
        <time>2012-09-16T08:04:20Z</time>
      </trkpt>
      <trkpt lat="44.9989" lon="5.43114">
        <ele>706.4</ele>
        <time>2012-09-16T08:04:23Z</time>
      </trkpt>
      <trkpt lat="44.99893" lon="5.43099">
        <ele>702</ele>
        <time>2012-09-16T08:04:28Z</time>
      </trkpt>
      <trkpt lat="44.99897" lon="5.43073">
        <ele>693.9</ele>
        <time>2012-09-16T08:04:37Z</time>
      </trkpt>
      <trkpt lat="44.99898" lon="5.4306">
        <ele>693.2</ele>
        <time>2012-09-16T08:04:41Z</time>
      </trkpt>
      <trkpt lat="44.999" lon="5.43046">
        <ele>693.4</ele>
        <time>2012-09-16T08:04:46Z</time>
      </trkpt>
      <trkpt lat="44.99903" lon="5.43037">
        <ele>692.9</ele>
        <time>2012-09-16T08:04:50Z</time>
      </trkpt>
      <trkpt lat="44.99903" lon="5.43027">
        <ele>695.2</ele>
        <time>2012-09-16T08:04:55Z</time>
      </trkpt>
      <trkpt lat="44.999" lon="5.43022">
        <ele>695.5</ele>
        <time>2012-09-16T08:04:58Z</time>
      </trkpt>
      <trkpt lat="44.999" lon="5.43014">
        <ele>694.7</ele>
        <time>2012-09-16T08:05:04Z</time>
      </trkpt>
      <trkpt lat="44.99906" lon="5.43011">
        <ele>696.5</ele>
        <time>2012-09-16T08:05:11Z</time>
      </trkpt>
      <trkpt lat="44.99906" lon="5.43008">
        <ele>701.2</ele>
        <time>2012-09-16T08:05:20Z</time>
      </trkpt>
      <trkpt lat="44.99895" lon="5.42991">
        <ele>707.7</ele>
        <time>2012-09-16T08:05:41Z</time>
      </trkpt>
      <trkpt lat="44.99891" lon="5.42981">
        <ele>705.7</ele>
        <time>2012-09-16T08:05:53Z</time>
      </trkpt>
      <trkpt lat="44.99883" lon="5.42975">
        <ele>706.2</ele>
        <time>2012-09-16T08:06:03Z</time>
      </trkpt>
      <trkpt lat="44.99875" lon="5.42974">
        <ele>715.2</ele>
        <time>2012-09-16T08:06:11Z</time>
      </trkpt>
      <trkpt lat="44.99871" lon="5.42978">
        <ele>723</ele>
        <time>2012-09-16T08:06:19Z</time>
      </trkpt>
      <trkpt lat="44.99867" lon="5.42965">
        <ele>718.9</ele>
        <time>2012-09-16T08:06:29Z</time>
      </trkpt>
      <trkpt lat="44.99867" lon="5.42958">
        <ele>720.5</ele>
        <time>2012-09-16T08:06:40Z</time>
      </trkpt>
      <trkpt lat="44.9988" lon="5.42954">
        <ele>725.2</ele>
        <time>2012-09-16T08:07:02Z</time>
      </trkpt>
      <trkpt lat="44.99885" lon="5.42952">
        <ele>727</ele>
        <time>2012-09-16T08:07:09Z</time>
      </trkpt>
      <trkpt lat="44.99886" lon="5.42946">
        <ele>725.7</ele>
        <time>2012-09-16T08:07:13Z</time>
      </trkpt>
      <trkpt lat="44.99894" lon="5.42933">
        <ele>722.2</ele>
        <time>2012-09-16T08:07:21Z</time>
      </trkpt>
      <trkpt lat="44.999" lon="5.4292">
        <ele>720.9</ele>
        <time>2012-09-16T08:07:29Z</time>
      </trkpt>
      <trkpt lat="44.99905" lon="5.42916">
        <ele>720</ele>
        <time>2012-09-16T08:07:34Z</time>
      </trkpt>
      <trkpt lat="44.99915" lon="5.42906">
        <ele>719.5</ele>
        <time>2012-09-16T08:07:49Z</time>
      </trkpt>
      <trkpt lat="44.99927" lon="5.42899">
        <ele>716.7</ele>
        <time>2012-09-16T08:08:01Z</time>
      </trkpt>
      <trkpt lat="44.99932" lon="5.42893">
        <ele>715.7</ele>
        <time>2012-09-16T08:08:09Z</time>
      </trkpt>
      <trkpt lat="44.99936" lon="5.42886">
        <ele>714.5</ele>
        <time>2012-09-16T08:08:17Z</time>
      </trkpt>
      <trkpt lat="44.99936" lon="5.42868">
        <ele>718.4</ele>
        <time>2012-09-16T08:08:39Z</time>
      </trkpt>
      <trkpt lat="44.99935" lon="5.42864">
        <ele>719.4</ele>
        <time>2012-09-16T08:08:46Z</time>
      </trkpt>
      <trkpt lat="44.99926" lon="5.42856">
        <ele>724.9</ele>
        <time>2012-09-16T08:08:56Z</time>
      </trkpt>
      <trkpt lat="44.99914" lon="5.42853">
        <ele>727.7</ele>
        <time>2012-09-16T08:09:07Z</time>
      </trkpt>
      <trkpt lat="44.99908" lon="5.42838">
        <ele>726.2</ele>
        <time>2012-09-16T08:09:17Z</time>
      </trkpt>
      <trkpt lat="44.9991" lon="5.42826">
        <ele>726.2</ele>
        <time>2012-09-16T08:09:25Z</time>
      </trkpt>
      <trkpt lat="44.99909" lon="5.42822">
        <ele>728</ele>
        <time>2012-09-16T08:09:41Z</time>
      </trkpt>
      <trkpt lat="44.99909" lon="5.42801">
        <ele>729.7</ele>
        <time>2012-09-16T08:09:54Z</time>
      </trkpt>
      <trkpt lat="44.99912" lon="5.42781">
        <ele>726</ele>
        <time>2012-09-16T08:10:07Z</time>
      </trkpt>
      <trkpt lat="44.99914" lon="5.42752">
        <ele>722.4</ele>
        <time>2012-09-16T08:10:18Z</time>
      </trkpt>
      <trkpt lat="44.99911" lon="5.42749">
        <ele>724.2</ele>
        <time>2012-09-16T08:10:23Z</time>
      </trkpt>
      <trkpt lat="44.99912" lon="5.42739">
        <ele>722.2</ele>
        <time>2012-09-16T08:10:28Z</time>
      </trkpt>
      <trkpt lat="44.99912" lon="5.42726">
        <ele>719.2</ele>
        <time>2012-09-16T08:10:34Z</time>
      </trkpt>
      <trkpt lat="44.99907" lon="5.42715">
        <ele>717.9</ele>
        <time>2012-09-16T08:10:38Z</time>
      </trkpt>
      <trkpt lat="44.99894" lon="5.42695">
        <ele>718</ele>
        <time>2012-09-16T08:10:48Z</time>
      </trkpt>
      <trkpt lat="44.99886" lon="5.42689">
        <ele>719.2</ele>
        <time>2012-09-16T08:10:51Z</time>
      </trkpt>
      <trkpt lat="44.99869" lon="5.42671">
        <ele>720.9</ele>
        <time>2012-09-16T08:11:00Z</time>
      </trkpt>
      <trkpt lat="44.99853" lon="5.42662">
        <ele>718.2</ele>
        <time>2012-09-16T08:11:06Z</time>
      </trkpt>
      <trkpt lat="44.99847" lon="5.42658">
        <ele>717.5</ele>
        <time>2012-09-16T08:11:08Z</time>
      </trkpt>
      <trkpt lat="44.99839" lon="5.4265">
        <ele>718.7</ele>
        <time>2012-09-16T08:11:11Z</time>
      </trkpt>
      <trkpt lat="44.99833" lon="5.42637">
        <ele>718.7</ele>
        <time>2012-09-16T08:11:15Z</time>
      </trkpt>
      <trkpt lat="44.99826" lon="5.42627">
        <ele>717</ele>
        <time>2012-09-16T08:11:18Z</time>
      </trkpt>
      <trkpt lat="44.99821" lon="5.42615">
        <ele>717.9</ele>
        <time>2012-09-16T08:11:21Z</time>
      </trkpt>
      <trkpt lat="44.99819" lon="5.42597">
        <ele>722.9</ele>
        <time>2012-09-16T08:11:25Z</time>
      </trkpt>
      <trkpt lat="44.99815" lon="5.42579">
        <ele>719.2</ele>
        <time>2012-09-16T08:11:29Z</time>
      </trkpt>
      <trkpt lat="44.99817" lon="5.42564">
        <ele>715.2</ele>
        <time>2012-09-16T08:11:33Z</time>
      </trkpt>
      <trkpt lat="44.99818" lon="5.42546">
        <ele>707.2</ele>
        <time>2012-09-16T08:11:37Z</time>
      </trkpt>
      <trkpt lat="44.99817" lon="5.42529">
        <ele>702</ele>
        <time>2012-09-16T08:11:40Z</time>
      </trkpt>
      <trkpt lat="44.99817" lon="5.42517">
        <ele>697.2</ele>
        <time>2012-09-16T08:11:42Z</time>
      </trkpt>
      <trkpt lat="44.99815" lon="5.42505">
        <ele>695</ele>
        <time>2012-09-16T08:11:44Z</time>
      </trkpt>
      <trkpt lat="44.99813" lon="5.42498">
        <ele>698.9</ele>
        <time>2012-09-16T08:11:45Z</time>
      </trkpt>
      <trkpt lat="44.99804" lon="5.4246">
        <ele>704.4</ele>
        <time>2012-09-16T08:11:51Z</time>
      </trkpt>
      <trkpt lat="44.99804" lon="5.42453">
        <ele>702.9</ele>
        <time>2012-09-16T08:11:52Z</time>
      </trkpt>
      <trkpt lat="44.998" lon="5.42437">
        <ele>701.2</ele>
        <time>2012-09-16T08:11:54Z</time>
      </trkpt>
      <trkpt lat="44.99797" lon="5.4243">
        <ele>701.9</ele>
        <time>2012-09-16T08:11:55Z</time>
      </trkpt>
      <trkpt lat="44.99794" lon="5.42404">
        <ele>703.2</ele>
        <time>2012-09-16T08:12:00Z</time>
      </trkpt>
      <trkpt lat="44.99786" lon="5.4238">
        <ele>715.5</ele>
        <time>2012-09-16T08:12:08Z</time>
      </trkpt>
      <trkpt lat="44.99784" lon="5.42362">
        <ele>709</ele>
        <time>2012-09-16T08:12:15Z</time>
      </trkpt>
      <trkpt lat="44.99779" lon="5.4235">
        <ele>702.2</ele>
        <time>2012-09-16T08:12:21Z</time>
      </trkpt>
      <trkpt lat="44.99767" lon="5.42334">
        <ele>697.2</ele>
        <time>2012-09-16T08:12:30Z</time>
      </trkpt>
      <trkpt lat="44.99759" lon="5.42326">
        <ele>695.2</ele>
        <time>2012-09-16T08:12:36Z</time>
      </trkpt>
      <trkpt lat="44.99753" lon="5.42311">
        <ele>694.9</ele>
        <time>2012-09-16T08:12:45Z</time>
      </trkpt>
      <trkpt lat="44.99755" lon="5.42288">
        <ele>688.7</ele>
        <time>2012-09-16T08:13:00Z</time>
      </trkpt>
      <trkpt lat="44.99748" lon="5.42278">
        <ele>694.7</ele>
        <time>2012-09-16T08:13:06Z</time>
      </trkpt>
      <trkpt lat="44.99743" lon="5.42273">
        <ele>695.7</ele>
        <time>2012-09-16T08:13:10Z</time>
      </trkpt>
      <trkpt lat="44.9974" lon="5.42263">
        <ele>696.5</ele>
        <time>2012-09-16T08:13:16Z</time>
      </trkpt>
      <trkpt lat="44.9973" lon="5.42252">
        <ele>700.7</ele>
        <time>2012-09-16T08:13:26Z</time>
      </trkpt>
      <trkpt lat="44.99723" lon="5.4224">
        <ele>702</ele>
        <time>2012-09-16T08:13:35Z</time>
      </trkpt>
      <trkpt lat="44.99716" lon="5.42233">
        <ele>702.2</ele>
        <time>2012-09-16T08:13:42Z</time>
      </trkpt>
      <trkpt lat="44.99698" lon="5.42219">
        <ele>699.2</ele>
        <time>2012-09-16T08:13:54Z</time>
      </trkpt>
      <trkpt lat="44.99688" lon="5.42214">
        <ele>700.5</ele>
        <time>2012-09-16T08:14:01Z</time>
      </trkpt>
      <trkpt lat="44.9968" lon="5.42207">
        <ele>700.2</ele>
        <time>2012-09-16T08:14:07Z</time>
      </trkpt>
      <trkpt lat="44.99677" lon="5.42202">
        <ele>699.5</ele>
        <time>2012-09-16T08:14:11Z</time>
      </trkpt>
      <trkpt lat="44.99663" lon="5.42185">
        <ele>697.9</ele>
        <time>2012-09-16T08:14:25Z</time>
      </trkpt>
      <trkpt lat="44.99647" lon="5.42165">
        <ele>703.7</ele>
        <time>2012-09-16T08:14:47Z</time>
      </trkpt>
      <trkpt lat="44.9964" lon="5.42161">
        <ele>705.4</ele>
        <time>2012-09-16T08:14:52Z</time>
      </trkpt>
      <trkpt lat="44.99632" lon="5.42157">
        <ele>710.4</ele>
        <time>2012-09-16T08:14:58Z</time>
      </trkpt>
      <trkpt lat="44.9962" lon="5.42157">
        <ele>713.5</ele>
        <time>2012-09-16T08:15:06Z</time>
      </trkpt>
      <trkpt lat="44.99608" lon="5.42158">
        <ele>715.5</ele>
        <time>2012-09-16T08:15:13Z</time>
      </trkpt>
      <trkpt lat="44.99584" lon="5.42157">
        <ele>714</ele>
        <time>2012-09-16T08:15:29Z</time>
      </trkpt>
      <trkpt lat="44.99577" lon="5.42158">
        <ele>713.2</ele>
        <time>2012-09-16T08:15:34Z</time>
      </trkpt>
      <trkpt lat="44.99561" lon="5.42158">
        <ele>712.5</ele>
        <time>2012-09-16T08:15:45Z</time>
      </trkpt>
      <trkpt lat="44.99546" lon="5.42154">
        <ele>713.7</ele>
        <time>2012-09-16T08:15:55Z</time>
      </trkpt>
      <trkpt lat="44.99534" lon="5.42147">
        <ele>714.7</ele>
        <time>2012-09-16T08:16:05Z</time>
      </trkpt>
      <trkpt lat="44.99528" lon="5.42147">
        <ele>715.4</ele>
        <time>2012-09-16T08:16:09Z</time>
      </trkpt>
      <trkpt lat="44.99523" lon="5.4215">
        <ele>717.7</ele>
        <time>2012-09-16T08:16:19Z</time>
      </trkpt>
      <trkpt lat="44.99519" lon="5.42156">
        <ele>720.5</ele>
        <time>2012-09-16T08:16:29Z</time>
      </trkpt>
      <trkpt lat="44.99515" lon="5.42159">
        <ele>722.2</ele>
        <time>2012-09-16T08:16:37Z</time>
      </trkpt>
      <trkpt lat="44.99514" lon="5.42149">
        <ele>717.9</ele>
        <time>2012-09-16T08:17:09Z</time>
      </trkpt>
      <trkpt lat="44.99516" lon="5.42144">
        <ele>715.9</ele>
        <time>2012-09-16T08:17:39Z</time>
      </trkpt>
      <trkpt lat="44.99514" lon="5.42143">
        <ele>713.2</ele>
        <time>2012-09-16T08:18:03Z</time>
      </trkpt>
      <trkpt lat="44.99523" lon="5.42135">
        <ele>712.5</ele>
        <time>2012-09-16T08:18:13Z</time>
      </trkpt>
      <trkpt lat="44.99533" lon="5.42128">
        <ele>713.5</ele>
        <time>2012-09-16T08:18:21Z</time>
      </trkpt>
      <trkpt lat="44.99534" lon="5.42122">
        <ele>714.2</ele>
        <time>2012-09-16T08:18:29Z</time>
      </trkpt>
      <trkpt lat="44.99529" lon="5.42116">
        <ele>713</ele>
        <time>2012-09-16T08:18:44Z</time>
      </trkpt>
      <trkpt lat="44.99525" lon="5.42114">
        <ele>713.2</ele>
        <time>2012-09-16T08:18:48Z</time>
      </trkpt>
      <trkpt lat="44.99506" lon="5.42096">
        <ele>716.2</ele>
        <time>2012-09-16T08:19:16Z</time>
      </trkpt>
      <trkpt lat="44.99503" lon="5.42094">
        <ele>717.2</ele>
        <time>2012-09-16T08:19:22Z</time>
      </trkpt>
      <trkpt lat="44.995" lon="5.42089">
        <ele>718.4</ele>
        <time>2012-09-16T08:19:31Z</time>
      </trkpt>
      <trkpt lat="44.9949" lon="5.42081">
        <ele>717.5</ele>
        <time>2012-09-16T08:19:48Z</time>
      </trkpt>
      <trkpt lat="44.99475" lon="5.42073">
        <ele>722.7</ele>
        <time>2012-09-16T08:20:15Z</time>
      </trkpt>
      <trkpt lat="44.99465" lon="5.42072">
        <ele>724</ele>
        <time>2012-09-16T08:20:27Z</time>
      </trkpt>
      <trkpt lat="44.99446" lon="5.42066">
        <ele>731</ele>
        <time>2012-09-16T08:20:49Z</time>
      </trkpt>
      <trkpt lat="44.99429" lon="5.42056">
        <ele>731.9</ele>
        <time>2012-09-16T08:21:14Z</time>
      </trkpt>
      <trkpt lat="44.99416" lon="5.42042">
        <ele>733</ele>
        <time>2012-09-16T08:21:39Z</time>
      </trkpt>
      <trkpt lat="44.9941" lon="5.42034">
        <ele>733.2</ele>
        <time>2012-09-16T08:21:50Z</time>
      </trkpt>
      <trkpt lat="44.99404" lon="5.42031">
        <ele>739.7</ele>
        <time>2012-09-16T08:22:07Z</time>
      </trkpt>
      <trkpt lat="44.99404" lon="5.42028">
        <ele>742.4</ele>
        <time>2012-09-16T08:22:22Z</time>
      </trkpt>
      <trkpt lat="44.99383" lon="5.42014">
        <ele>739.5</ele>
        <time>2012-09-16T08:22:42Z</time>
      </trkpt>
      <trkpt lat="44.99371" lon="5.42004">
        <ele>740.5</ele>
        <time>2012-09-16T08:22:50Z</time>
      </trkpt>
      <trkpt lat="44.99364" lon="5.41992">
        <ele>740.2</ele>
        <time>2012-09-16T08:22:57Z</time>
      </trkpt>
      <trkpt lat="44.99355" lon="5.41976">
        <ele>740.7</ele>
        <time>2012-09-16T08:23:05Z</time>
      </trkpt>
      <trkpt lat="44.99352" lon="5.41968">
        <ele>740.7</ele>
        <time>2012-09-16T08:23:09Z</time>
      </trkpt>
      <trkpt lat="44.9934" lon="5.41942">
        <ele>741.2</ele>
        <time>2012-09-16T08:23:23Z</time>
      </trkpt>
      <trkpt lat="44.99333" lon="5.41932">
        <ele>742.5</ele>
        <time>2012-09-16T08:23:29Z</time>
      </trkpt>
      <trkpt lat="44.99326" lon="5.41923">
        <ele>742.9</ele>
        <time>2012-09-16T08:23:35Z</time>
      </trkpt>
      <trkpt lat="44.99323" lon="5.41918">
        <ele>743.7</ele>
        <time>2012-09-16T08:23:39Z</time>
      </trkpt>
      <trkpt lat="44.99315" lon="5.41911">
        <ele>745.9</ele>
        <time>2012-09-16T08:23:45Z</time>
      </trkpt>
      <trkpt lat="44.99308" lon="5.41906">
        <ele>746</ele>
        <time>2012-09-16T08:23:50Z</time>
      </trkpt>
      <trkpt lat="44.99288" lon="5.41896">
        <ele>745.7</ele>
        <time>2012-09-16T08:24:02Z</time>
      </trkpt>
      <trkpt lat="44.99276" lon="5.41895">
        <ele>747.5</ele>
        <time>2012-09-16T08:24:10Z</time>
      </trkpt>
      <trkpt lat="44.99269" lon="5.41898">
        <ele>747.7</ele>
        <time>2012-09-16T08:24:15Z</time>
      </trkpt>
      <trkpt lat="44.99259" lon="5.41898">
        <ele>749</ele>
        <time>2012-09-16T08:24:22Z</time>
      </trkpt>
      <trkpt lat="44.99243" lon="5.41905">
        <ele>748</ele>
        <time>2012-09-16T08:24:34Z</time>
      </trkpt>
      <trkpt lat="44.99223" lon="5.41901">
        <ele>752.5</ele>
        <time>2012-09-16T08:24:47Z</time>
      </trkpt>
      <trkpt lat="44.99216" lon="5.41896">
        <ele>753.2</ele>
        <time>2012-09-16T08:24:53Z</time>
      </trkpt>
      <trkpt lat="44.99212" lon="5.41892">
        <ele>753.2</ele>
        <time>2012-09-16T08:26:50Z</time>
      </trkpt>
      <trkpt lat="44.99206" lon="5.41882">
        <ele>753</ele>
        <time>2012-09-16T08:27:12Z</time>
      </trkpt>
      <trkpt lat="44.992" lon="5.41867">
        <ele>754</ele>
        <time>2012-09-16T08:27:22Z</time>
      </trkpt>
      <trkpt lat="44.99196" lon="5.4186">
        <ele>754.4</ele>
        <time>2012-09-16T08:27:27Z</time>
      </trkpt>
      <trkpt lat="44.99188" lon="5.4185">
        <ele>755.5</ele>
        <time>2012-09-16T08:27:35Z</time>
      </trkpt>
      <trkpt lat="44.99167" lon="5.41833">
        <ele>757.2</ele>
        <time>2012-09-16T08:27:52Z</time>
      </trkpt>
      <trkpt lat="44.99152" lon="5.41819">
        <ele>759.5</ele>
        <time>2012-09-16T08:28:06Z</time>
      </trkpt>
      <trkpt lat="44.99141" lon="5.41807">
        <ele>761</ele>
        <time>2012-09-16T08:28:17Z</time>
      </trkpt>
      <trkpt lat="44.99123" lon="5.41786">
        <ele>763.2</ele>
        <time>2012-09-16T08:28:37Z</time>
      </trkpt>
      <trkpt lat="44.99115" lon="5.41778">
        <ele>765</ele>
        <time>2012-09-16T08:28:46Z</time>
      </trkpt>
      <trkpt lat="44.99093" lon="5.41761">
        <ele>772</ele>
        <time>2012-09-16T08:29:27Z</time>
      </trkpt>
      <trkpt lat="44.99088" lon="5.41758">
        <ele>774</ele>
        <time>2012-09-16T08:29:33Z</time>
      </trkpt>
      <trkpt lat="44.99078" lon="5.41754">
        <ele>775.7</ele>
        <time>2012-09-16T08:29:41Z</time>
      </trkpt>
      <trkpt lat="44.99066" lon="5.41753">
        <ele>779</ele>
        <time>2012-09-16T08:29:50Z</time>
      </trkpt>
      <trkpt lat="44.99061" lon="5.41751">
        <ele>779.2</ele>
        <time>2012-09-16T08:29:54Z</time>
      </trkpt>
      <trkpt lat="44.99042" lon="5.41742">
        <ele>777.9</ele>
        <time>2012-09-16T08:30:08Z</time>
      </trkpt>
      <trkpt lat="44.99034" lon="5.41739">
        <ele>777.5</ele>
        <time>2012-09-16T08:30:14Z</time>
      </trkpt>
      <trkpt lat="44.99014" lon="5.4173">
        <ele>779.7</ele>
        <time>2012-09-16T08:30:30Z</time>
      </trkpt>
      <trkpt lat="44.98995" lon="5.41724">
        <ele>779.9</ele>
        <time>2012-09-16T08:30:46Z</time>
      </trkpt>
      <trkpt lat="44.9899" lon="5.41722">
        <ele>778.4</ele>
        <time>2012-09-16T08:30:51Z</time>
      </trkpt>
      <trkpt lat="44.98981" lon="5.41723">
        <ele>780.9</ele>
        <time>2012-09-16T08:30:58Z</time>
      </trkpt>
      <trkpt lat="44.9897" lon="5.4172">
        <ele>782</ele>
        <time>2012-09-16T08:31:08Z</time>
      </trkpt>
      <trkpt lat="44.98962" lon="5.4172">
        <ele>785.7</ele>
        <time>2012-09-16T08:31:14Z</time>
      </trkpt>
      <trkpt lat="44.98955" lon="5.41722">
        <ele>785.7</ele>
        <time>2012-09-16T08:31:20Z</time>
      </trkpt>
      <trkpt lat="44.98943" lon="5.41719">
        <ele>786</ele>
        <time>2012-09-16T08:31:32Z</time>
      </trkpt>
      <trkpt lat="44.98934" lon="5.4172">
        <ele>785.7</ele>
        <time>2012-09-16T08:31:41Z</time>
      </trkpt>
      <trkpt lat="44.98922" lon="5.41718">
        <ele>785.7</ele>
        <time>2012-09-16T08:31:51Z</time>
      </trkpt>
      <trkpt lat="44.98912" lon="5.41718">
        <ele>790.2</ele>
        <time>2012-09-16T08:31:59Z</time>
      </trkpt>
      <trkpt lat="44.98905" lon="5.41714">
        <ele>791.2</ele>
        <time>2012-09-16T08:32:05Z</time>
      </trkpt>
      <trkpt lat="44.98892" lon="5.41689">
        <ele>790.5</ele>
        <time>2012-09-16T08:32:24Z</time>
      </trkpt>
      <trkpt lat="44.9889" lon="5.4167">
        <ele>790.7</ele>
        <time>2012-09-16T08:32:35Z</time>
      </trkpt>
      <trkpt lat="44.98891" lon="5.41652">
        <ele>790.5</ele>
        <time>2012-09-16T08:32:45Z</time>
      </trkpt>
      <trkpt lat="44.98894" lon="5.41641">
        <ele>791.5</ele>
        <time>2012-09-16T08:32:52Z</time>
      </trkpt>
      <trkpt lat="44.98895" lon="5.41633">
        <ele>792.5</ele>
        <time>2012-09-16T08:32:56Z</time>
      </trkpt>
      <trkpt lat="44.98899" lon="5.41617">
        <ele>793.7</ele>
        <time>2012-09-16T08:33:06Z</time>
      </trkpt>
      <trkpt lat="44.989" lon="5.41607">
        <ele>794.7</ele>
        <time>2012-09-16T08:33:13Z</time>
      </trkpt>
      <trkpt lat="44.98897" lon="5.41596">
        <ele>796.2</ele>
        <time>2012-09-16T08:33:21Z</time>
      </trkpt>
      <trkpt lat="44.98893" lon="5.41589">
        <ele>796.5</ele>
        <time>2012-09-16T08:33:27Z</time>
      </trkpt>
      <trkpt lat="44.98889" lon="5.41579">
        <ele>798</ele>
        <time>2012-09-16T08:33:35Z</time>
      </trkpt>
      <trkpt lat="44.98886" lon="5.41569">
        <ele>800.7</ele>
        <time>2012-09-16T08:33:42Z</time>
      </trkpt>
      <trkpt lat="44.98887" lon="5.41556">
        <ele>804.4</ele>
        <time>2012-09-16T08:33:54Z</time>
      </trkpt>
      <trkpt lat="44.98892" lon="5.41547">
        <ele>803</ele>
        <time>2012-09-16T08:34:01Z</time>
      </trkpt>
      <trkpt lat="44.98896" lon="5.41528">
        <ele>800.7</ele>
        <time>2012-09-16T08:34:13Z</time>
      </trkpt>
      <trkpt lat="44.98896" lon="5.41508">
        <ele>806.5</ele>
        <time>2012-09-16T08:34:22Z</time>
      </trkpt>
      <trkpt lat="44.989" lon="5.41493">
        <ele>807.5</ele>
        <time>2012-09-16T08:34:31Z</time>
      </trkpt>
      <trkpt lat="44.98902" lon="5.41485">
        <ele>808.5</ele>
        <time>2012-09-16T08:34:36Z</time>
      </trkpt>
      <trkpt lat="44.98902" lon="5.41475">
        <ele>809.5</ele>
        <time>2012-09-16T08:34:41Z</time>
      </trkpt>
      <trkpt lat="44.98915" lon="5.41456">
        <ele>808</ele>
        <time>2012-09-16T08:34:54Z</time>
      </trkpt>
      <trkpt lat="44.98922" lon="5.41447">
        <ele>810.9</ele>
        <time>2012-09-16T08:35:02Z</time>
      </trkpt>
      <trkpt lat="44.98923" lon="5.41432">
        <ele>804.4</ele>
        <time>2012-09-16T08:35:13Z</time>
      </trkpt>
      <trkpt lat="44.98922" lon="5.41415">
        <ele>802.9</ele>
        <time>2012-09-16T08:35:23Z</time>
      </trkpt>
      <trkpt lat="44.98913" lon="5.41393">
        <ele>807.2</ele>
        <time>2012-09-16T08:35:40Z</time>
      </trkpt>
      <trkpt lat="44.98904" lon="5.41369">
        <ele>811.7</ele>
        <time>2012-09-16T08:36:01Z</time>
      </trkpt>
      <trkpt lat="44.98899" lon="5.4136">
        <ele>811.9</ele>
        <time>2012-09-16T08:36:09Z</time>
      </trkpt>
      <trkpt lat="44.98891" lon="5.41355">
        <ele>813.7</ele>
        <time>2012-09-16T08:36:19Z</time>
      </trkpt>
      <trkpt lat="44.98884" lon="5.41354">
        <ele>816.5</ele>
        <time>2012-09-16T08:36:26Z</time>
      </trkpt>
      <trkpt lat="44.98876" lon="5.41346">
        <ele>818.7</ele>
        <time>2012-09-16T08:36:39Z</time>
      </trkpt>
      <trkpt lat="44.98868" lon="5.41335">
        <ele>821.7</ele>
        <time>2012-09-16T08:36:52Z</time>
      </trkpt>
      <trkpt lat="44.98861" lon="5.41324">
        <ele>825</ele>
        <time>2012-09-16T08:37:04Z</time>
      </trkpt>
      <trkpt lat="44.98854" lon="5.4131">
        <ele>830.5</ele>
        <time>2012-09-16T08:37:18Z</time>
      </trkpt>
      <trkpt lat="44.98835" lon="5.41288">
        <ele>836</ele>
        <time>2012-09-16T08:37:40Z</time>
      </trkpt>
      <trkpt lat="44.98826" lon="5.41281">
        <ele>838</ele>
        <time>2012-09-16T08:37:51Z</time>
      </trkpt>
      <trkpt lat="44.9881" lon="5.4127">
        <ele>839.5</ele>
        <time>2012-09-16T08:38:13Z</time>
      </trkpt>
      <trkpt lat="44.98802" lon="5.41268">
        <ele>841.7</ele>
        <time>2012-09-16T08:38:23Z</time>
      </trkpt>
      <trkpt lat="44.98792" lon="5.41273">
        <ele>843.2</ele>
        <time>2012-09-16T08:38:35Z</time>
      </trkpt>
      <trkpt lat="44.98775" lon="5.41274">
        <ele>846.4</ele>
        <time>2012-09-16T08:38:56Z</time>
      </trkpt>
      <trkpt lat="44.98753" lon="5.41269">
        <ele>848.7</ele>
        <time>2012-09-16T08:39:18Z</time>
      </trkpt>
      <trkpt lat="44.98743" lon="5.41266">
        <ele>849.7</ele>
        <time>2012-09-16T08:39:29Z</time>
      </trkpt>
      <trkpt lat="44.98724" lon="5.4125">
        <ele>853.7</ele>
        <time>2012-09-16T08:39:52Z</time>
      </trkpt>
      <trkpt lat="44.98717" lon="5.41247">
        <ele>853.9</ele>
        <time>2012-09-16T08:39:59Z</time>
      </trkpt>
      <trkpt lat="44.987" lon="5.41235">
        <ele>854.5</ele>
        <time>2012-09-16T08:40:20Z</time>
      </trkpt>
      <trkpt lat="44.98696" lon="5.41229">
        <ele>856.5</ele>
        <time>2012-09-16T08:40:38Z</time>
      </trkpt>
      <trkpt lat="44.98691" lon="5.41223">
        <ele>855.2</ele>
        <time>2012-09-16T08:40:43Z</time>
      </trkpt>
      <trkpt lat="44.98681" lon="5.41209">
        <ele>854.7</ele>
        <time>2012-09-16T08:40:53Z</time>
      </trkpt>
      <trkpt lat="44.98677" lon="5.41192">
        <ele>856.2</ele>
        <time>2012-09-16T08:41:02Z</time>
      </trkpt>
      <trkpt lat="44.98672" lon="5.41178">
        <ele>857.5</ele>
        <time>2012-09-16T08:41:10Z</time>
      </trkpt>
      <trkpt lat="44.98669" lon="5.41172">
        <ele>859</ele>
        <time>2012-09-16T08:41:14Z</time>
      </trkpt>
      <trkpt lat="44.98658" lon="5.4116">
        <ele>860.4</ele>
        <time>2012-09-16T08:41:24Z</time>
      </trkpt>
      <trkpt lat="44.98638" lon="5.41147">
        <ele>861.7</ele>
        <time>2012-09-16T08:41:39Z</time>
      </trkpt>
      <trkpt lat="44.98629" lon="5.41139">
        <ele>862.9</ele>
        <time>2012-09-16T08:41:47Z</time>
      </trkpt>
      <trkpt lat="44.9861" lon="5.41121">
        <ele>862.2</ele>
        <time>2012-09-16T08:42:00Z</time>
      </trkpt>
      <trkpt lat="44.986" lon="5.41113">
        <ele>863.7</ele>
        <time>2012-09-16T08:42:09Z</time>
      </trkpt>
      <trkpt lat="44.98581" lon="5.41089">
        <ele>863.5</ele>
        <time>2012-09-16T08:42:25Z</time>
      </trkpt>
      <trkpt lat="44.98572" lon="5.4108">
        <ele>865.2</ele>
        <time>2012-09-16T08:42:32Z</time>
      </trkpt>
      <trkpt lat="44.98564" lon="5.41069">
        <ele>868.5</ele>
        <time>2012-09-16T08:42:39Z</time>
      </trkpt>
      <trkpt lat="44.98554" lon="5.41058">
        <ele>869.2</ele>
        <time>2012-09-16T08:42:47Z</time>
      </trkpt>
      <trkpt lat="44.98546" lon="5.41045">
        <ele>873.2</ele>
        <time>2012-09-16T08:42:57Z</time>
      </trkpt>
      <trkpt lat="44.9854" lon="5.41038">
        <ele>874.2</ele>
        <time>2012-09-16T08:43:02Z</time>
      </trkpt>
      <trkpt lat="44.98534" lon="5.41027">
        <ele>874.9</ele>
        <time>2012-09-16T08:43:09Z</time>
      </trkpt>
      <trkpt lat="44.98529" lon="5.41016">
        <ele>875.5</ele>
        <time>2012-09-16T08:43:15Z</time>
      </trkpt>
      <trkpt lat="44.98517" lon="5.41">
        <ele>876.9</ele>
        <time>2012-09-16T08:43:21Z</time>
      </trkpt>
      <trkpt lat="44.98512" lon="5.40997">
        <ele>876.7</ele>
        <time>2012-09-16T08:43:23Z</time>
      </trkpt>
      <trkpt lat="44.98485" lon="5.40974">
        <ele>875.4</ele>
        <time>2012-09-16T08:43:32Z</time>
      </trkpt>
      <trkpt lat="44.98478" lon="5.40969">
        <ele>875.7</ele>
        <time>2012-09-16T08:43:35Z</time>
      </trkpt>
      <trkpt lat="44.98471" lon="5.40965">
        <ele>875.2</ele>
        <time>2012-09-16T08:43:39Z</time>
      </trkpt>
      <trkpt lat="44.98456" lon="5.4095">
        <ele>872</ele>
        <time>2012-09-16T08:43:51Z</time>
      </trkpt>
      <trkpt lat="44.98434" lon="5.40935">
        <ele>864.2</ele>
        <time>2012-09-16T08:44:04Z</time>
      </trkpt>
      <trkpt lat="44.98422" lon="5.40929">
        <ele>860.7</ele>
        <time>2012-09-16T08:44:08Z</time>
      </trkpt>
      <trkpt lat="44.98414" lon="5.40922">
        <ele>860.2</ele>
        <time>2012-09-16T08:44:11Z</time>
      </trkpt>
      <trkpt lat="44.9839" lon="5.40904">
        <ele>855.2</ele>
        <time>2012-09-16T08:44:22Z</time>
      </trkpt>
      <trkpt lat="44.98385" lon="5.40901">
        <ele>856.5</ele>
        <time>2012-09-16T08:44:25Z</time>
      </trkpt>
      <trkpt lat="44.9836" lon="5.40887">
        <ele>863.5</ele>
        <time>2012-09-16T08:44:39Z</time>
      </trkpt>
      <trkpt lat="44.98347" lon="5.40883">
        <ele>858.7</ele>
        <time>2012-09-16T08:44:44Z</time>
      </trkpt>
      <trkpt lat="44.98335" lon="5.40883">
        <ele>854.7</ele>
        <time>2012-09-16T08:44:47Z</time>
      </trkpt>
      <trkpt lat="44.98323" lon="5.40881">
        <ele>851.7</ele>
        <time>2012-09-16T08:44:50Z</time>
      </trkpt>
      <trkpt lat="44.98306" lon="5.40874">
        <ele>856.5</ele>
        <time>2012-09-16T08:44:56Z</time>
      </trkpt>
      <trkpt lat="44.98287" lon="5.40863">
        <ele>866.2</ele>
        <time>2012-09-16T08:45:04Z</time>
      </trkpt>
      <trkpt lat="44.9828" lon="5.40862">
        <ele>867</ele>
        <time>2012-09-16T08:45:07Z</time>
      </trkpt>
      <trkpt lat="44.98272" lon="5.40858">
        <ele>868.5</ele>
        <time>2012-09-16T08:45:10Z</time>
      </trkpt>
      <trkpt lat="44.9826" lon="5.40853">
        <ele>869.7</ele>
        <time>2012-09-16T08:45:15Z</time>
      </trkpt>
      <trkpt lat="44.98249" lon="5.40854">
        <ele>861.9</ele>
        <time>2012-09-16T08:45:21Z</time>
      </trkpt>
      <trkpt lat="44.98238" lon="5.40851">
        <ele>858.2</ele>
        <time>2012-09-16T08:45:25Z</time>
      </trkpt>
      <trkpt lat="44.98228" lon="5.40846">
        <ele>858</ele>
        <time>2012-09-16T08:45:29Z</time>
      </trkpt>
      <trkpt lat="44.9822" lon="5.40838">
        <ele>859.5</ele>
        <time>2012-09-16T08:45:33Z</time>
      </trkpt>
      <trkpt lat="44.98206" lon="5.40809">
        <ele>868.9</ele>
        <time>2012-09-16T08:45:49Z</time>
      </trkpt>
      <trkpt lat="44.98194" lon="5.40783">
        <ele>875</ele>
        <time>2012-09-16T08:46:09Z</time>
      </trkpt>
      <trkpt lat="44.98193" lon="5.40779">
        <ele>875.2</ele>
        <time>2012-09-16T08:46:12Z</time>
      </trkpt>
      <trkpt lat="44.98182" lon="5.40752">
        <ele>878.4</ele>
        <time>2012-09-16T08:46:31Z</time>
      </trkpt>
      <trkpt lat="44.98172" lon="5.40742">
        <ele>878</ele>
        <time>2012-09-16T08:46:42Z</time>
      </trkpt>
      <trkpt lat="44.9816" lon="5.40734">
        <ele>879.7</ele>
        <time>2012-09-16T08:46:53Z</time>
      </trkpt>
      <trkpt lat="44.98151" lon="5.40731">
        <ele>877</ele>
        <time>2012-09-16T08:46:59Z</time>
      </trkpt>
      <trkpt lat="44.98144" lon="5.40726">
        <ele>877.7</ele>
        <time>2012-09-16T08:47:05Z</time>
      </trkpt>
      <trkpt lat="44.98139" lon="5.40722">
        <ele>878.9</ele>
        <time>2012-09-16T08:47:09Z</time>
      </trkpt>
      <trkpt lat="44.98127" lon="5.40703">
        <ele>881.5</ele>
        <time>2012-09-16T08:47:22Z</time>
      </trkpt>
      <trkpt lat="44.98113" lon="5.40681">
        <ele>882.5</ele>
        <time>2012-09-16T08:47:42Z</time>
      </trkpt>
      <trkpt lat="44.98113" lon="5.40677">
        <ele>881.7</ele>
        <time>2012-09-16T08:47:49Z</time>
      </trkpt>
      <trkpt lat="44.9811" lon="5.40673">
        <ele>880.7</ele>
        <time>2012-09-16T08:47:55Z</time>
      </trkpt>
      <trkpt lat="44.98092" lon="5.40662">
        <ele>883.5</ele>
        <time>2012-09-16T08:48:20Z</time>
      </trkpt>
      <trkpt lat="44.98087" lon="5.40657">
        <ele>882.9</ele>
        <time>2012-09-16T08:48:26Z</time>
      </trkpt>
      <trkpt lat="44.9808" lon="5.40649">
        <ele>883.4</ele>
        <time>2012-09-16T08:48:33Z</time>
      </trkpt>
      <trkpt lat="44.9807" lon="5.40639">
        <ele>884.5</ele>
        <time>2012-09-16T08:48:44Z</time>
      </trkpt>
      <trkpt lat="44.98048" lon="5.40619">
        <ele>886.5</ele>
        <time>2012-09-16T08:48:56Z</time>
      </trkpt>
      <trkpt lat="44.98044" lon="5.40617">
        <ele>884</ele>
        <time>2012-09-16T08:49:00Z</time>
      </trkpt>
      <trkpt lat="44.98035" lon="5.40613">
        <ele>876.7</ele>
        <time>2012-09-16T08:49:06Z</time>
      </trkpt>
      <trkpt lat="44.98027" lon="5.40608">
        <ele>872.2</ele>
        <time>2012-09-16T08:49:10Z</time>
      </trkpt>
      <trkpt lat="44.98007" lon="5.40594">
        <ele>872.4</ele>
        <time>2012-09-16T08:49:22Z</time>
      </trkpt>
      <trkpt lat="44.97998" lon="5.40586">
        <ele>869</ele>
        <time>2012-09-16T08:49:29Z</time>
      </trkpt>
      <trkpt lat="44.97982" lon="5.40576">
        <ele>863.4</ele>
        <time>2012-09-16T08:49:40Z</time>
      </trkpt>
      <trkpt lat="44.97974" lon="5.40575">
        <ele>866.2</ele>
        <time>2012-09-16T08:49:44Z</time>
      </trkpt>
      <trkpt lat="44.97965" lon="5.40571">
        <ele>867</ele>
        <time>2012-09-16T08:49:49Z</time>
      </trkpt>
      <trkpt lat="44.97943" lon="5.40559">
        <ele>872</ele>
        <time>2012-09-16T08:50:03Z</time>
      </trkpt>
      <trkpt lat="44.97921" lon="5.4055">
        <ele>869</ele>
        <time>2012-09-16T08:50:18Z</time>
      </trkpt>
      <trkpt lat="44.9791" lon="5.40548">
        <ele>871.5</ele>
        <time>2012-09-16T08:50:24Z</time>
      </trkpt>
      <trkpt lat="44.97903" lon="5.40544">
        <ele>872</ele>
        <time>2012-09-16T08:50:28Z</time>
      </trkpt>
      <trkpt lat="44.97895" lon="5.40543">
        <ele>876.5</ele>
        <time>2012-09-16T08:50:32Z</time>
      </trkpt>
      <trkpt lat="44.97881" lon="5.40542">
        <ele>876</ele>
        <time>2012-09-16T08:50:40Z</time>
      </trkpt>
      <trkpt lat="44.97867" lon="5.40543">
        <ele>877.9</ele>
        <time>2012-09-16T08:50:48Z</time>
      </trkpt>
      <trkpt lat="44.97865" lon="5.40544">
        <ele>877.7</ele>
        <time>2012-09-16T08:50:49Z</time>
      </trkpt>
      <trkpt lat="44.97853" lon="5.40551">
        <ele>875.2</ele>
        <time>2012-09-16T08:50:56Z</time>
      </trkpt>
      <trkpt lat="44.97841" lon="5.40556">
        <ele>874</ele>
        <time>2012-09-16T08:51:06Z</time>
      </trkpt>
      <trkpt lat="44.9784" lon="5.40562">
        <ele>882.7</ele>
        <time>2012-09-16T08:51:20Z</time>
      </trkpt>
      <trkpt lat="44.97839" lon="5.4057">
        <ele>885.2</ele>
        <time>2012-09-16T08:51:27Z</time>
      </trkpt>
      <trkpt lat="44.97838" lon="5.40584">
        <ele>888.7</ele>
        <time>2012-09-16T08:51:34Z</time>
      </trkpt>
      <trkpt lat="44.97841" lon="5.40598">
        <ele>888.5</ele>
        <time>2012-09-16T08:51:43Z</time>
      </trkpt>
      <trkpt lat="44.97848" lon="5.40611">
        <ele>888</ele>
        <time>2012-09-16T08:51:51Z</time>
      </trkpt>
      <trkpt lat="44.97852" lon="5.40621">
        <ele>887.5</ele>
        <time>2012-09-16T08:51:57Z</time>
      </trkpt>
      <trkpt lat="44.97856" lon="5.4063">
        <ele>888.5</ele>
        <time>2012-09-16T08:52:03Z</time>
      </trkpt>
      <trkpt lat="44.97861" lon="5.40637">
        <ele>887.9</ele>
        <time>2012-09-16T08:52:08Z</time>
      </trkpt>
      <trkpt lat="44.97866" lon="5.40644">
        <ele>889.5</ele>
        <time>2012-09-16T08:52:13Z</time>
      </trkpt>
      <trkpt lat="44.97872" lon="5.40657">
        <ele>890.2</ele>
        <time>2012-09-16T08:52:21Z</time>
      </trkpt>
      <trkpt lat="44.97875" lon="5.40674">
        <ele>892.2</ele>
        <time>2012-09-16T08:52:29Z</time>
      </trkpt>
      <trkpt lat="44.9788" lon="5.4069">
        <ele>891.9</ele>
        <time>2012-09-16T08:52:36Z</time>
      </trkpt>
      <trkpt lat="44.97882" lon="5.40709">
        <ele>892</ele>
        <time>2012-09-16T08:52:48Z</time>
      </trkpt>
      <trkpt lat="44.97886" lon="5.40725">
        <ele>893.5</ele>
        <time>2012-09-16T08:52:57Z</time>
      </trkpt>
      <trkpt lat="44.97887" lon="5.40753">
        <ele>889.7</ele>
        <time>2012-09-16T08:53:13Z</time>
      </trkpt>
      <trkpt lat="44.97886" lon="5.40778">
        <ele>899</ele>
        <time>2012-09-16T08:53:27Z</time>
      </trkpt>
      <trkpt lat="44.97888" lon="5.40794">
        <ele>903.2</ele>
        <time>2012-09-16T08:53:34Z</time>
      </trkpt>
      <trkpt lat="44.9789" lon="5.40801">
        <ele>903.2</ele>
        <time>2012-09-16T08:53:37Z</time>
      </trkpt>
      <trkpt lat="44.97897" lon="5.4082">
        <ele>901.9</ele>
        <time>2012-09-16T08:53:48Z</time>
      </trkpt>
      <trkpt lat="44.97904" lon="5.40844">
        <ele>903.7</ele>
        <time>2012-09-16T08:54:00Z</time>
      </trkpt>
      <trkpt lat="44.97905" lon="5.40855">
        <ele>901.2</ele>
        <time>2012-09-16T08:54:06Z</time>
      </trkpt>
      <trkpt lat="44.9791" lon="5.40869">
        <ele>902</ele>
        <time>2012-09-16T08:54:13Z</time>
      </trkpt>
      <trkpt lat="44.97914" lon="5.40886">
        <ele>899.4</ele>
        <time>2012-09-16T08:54:24Z</time>
      </trkpt>
      <trkpt lat="44.97914" lon="5.409">
        <ele>901</ele>
        <time>2012-09-16T08:54:29Z</time>
      </trkpt>
      <trkpt lat="44.97916" lon="5.40918">
        <ele>900.5</ele>
        <time>2012-09-16T08:54:37Z</time>
      </trkpt>
      <trkpt lat="44.97916" lon="5.4093">
        <ele>906</ele>
        <time>2012-09-16T08:54:42Z</time>
      </trkpt>
      <trkpt lat="44.97915" lon="5.4094">
        <ele>909</ele>
        <time>2012-09-16T08:54:47Z</time>
      </trkpt>
      <trkpt lat="44.97917" lon="5.40955">
        <ele>912</ele>
        <time>2012-09-16T08:54:55Z</time>
      </trkpt>
      <trkpt lat="44.97916" lon="5.40964">
        <ele>914.5</ele>
        <time>2012-09-16T08:54:58Z</time>
      </trkpt>
      <trkpt lat="44.97912" lon="5.40994">
        <ele>916.4</ele>
        <time>2012-09-16T08:55:11Z</time>
      </trkpt>
      <trkpt lat="44.9791" lon="5.41003">
        <ele>916.9</ele>
        <time>2012-09-16T08:55:15Z</time>
      </trkpt>
      <trkpt lat="44.97913" lon="5.41011">
        <ele>912.9</ele>
        <time>2012-09-16T08:55:20Z</time>
      </trkpt>
      <trkpt lat="44.97918" lon="5.41027">
        <ele>907.2</ele>
        <time>2012-09-16T08:55:29Z</time>
      </trkpt>
      <trkpt lat="44.97919" lon="5.41045">
        <ele>905.9</ele>
        <time>2012-09-16T08:55:39Z</time>
      </trkpt>
      <trkpt lat="44.97925" lon="5.41066">
        <ele>906.5</ele>
        <time>2012-09-16T08:55:49Z</time>
      </trkpt>
      <trkpt lat="44.97924" lon="5.41083">
        <ele>905.5</ele>
        <time>2012-09-16T08:55:58Z</time>
      </trkpt>
      <trkpt lat="44.97921" lon="5.41092">
        <ele>907.2</ele>
        <time>2012-09-16T08:56:02Z</time>
      </trkpt>
      <trkpt lat="44.9792" lon="5.41102">
        <ele>909.2</ele>
        <time>2012-09-16T08:56:06Z</time>
      </trkpt>
      <trkpt lat="44.97923" lon="5.41118">
        <ele>910.5</ele>
        <time>2012-09-16T08:56:13Z</time>
      </trkpt>
      <trkpt lat="44.97927" lon="5.41127">
        <ele>907.5</ele>
        <time>2012-09-16T08:56:18Z</time>
      </trkpt>
      <trkpt lat="44.97926" lon="5.41135">
        <ele>907</ele>
        <time>2012-09-16T08:56:22Z</time>
      </trkpt>
      <trkpt lat="44.97928" lon="5.41146">
        <ele>904.7</ele>
        <time>2012-09-16T08:56:28Z</time>
      </trkpt>
      <trkpt lat="44.97928" lon="5.41153">
        <ele>904.9</ele>
        <time>2012-09-16T08:56:32Z</time>
      </trkpt>
      <trkpt lat="44.97931" lon="5.41162">
        <ele>905.7</ele>
        <time>2012-09-16T08:56:37Z</time>
      </trkpt>
      <trkpt lat="44.9793" lon="5.41179">
        <ele>905.5</ele>
        <time>2012-09-16T08:56:46Z</time>
      </trkpt>
      <trkpt lat="44.97925" lon="5.41192">
        <ele>913.2</ele>
        <time>2012-09-16T08:56:51Z</time>
      </trkpt>
      <trkpt lat="44.97921" lon="5.41197">
        <ele>915.2</ele>
        <time>2012-09-16T08:56:55Z</time>
      </trkpt>
      <trkpt lat="44.97906" lon="5.41201">
        <ele>914.2</ele>
        <time>2012-09-16T08:57:04Z</time>
      </trkpt>
      <trkpt lat="44.97902" lon="5.41202">
        <ele>914.2</ele>
        <time>2012-09-16T08:57:06Z</time>
      </trkpt>
      <trkpt lat="44.9789" lon="5.41205">
        <ele>915.5</ele>
        <time>2012-09-16T08:57:12Z</time>
      </trkpt>
      <trkpt lat="44.97877" lon="5.41206">
        <ele>915.9</ele>
        <time>2012-09-16T08:57:18Z</time>
      </trkpt>
      <trkpt lat="44.9786" lon="5.41205">
        <ele>915.7</ele>
        <time>2012-09-16T08:57:24Z</time>
      </trkpt>
      <trkpt lat="44.97819" lon="5.41218">
        <ele>911.7</ele>
        <time>2012-09-16T08:57:35Z</time>
      </trkpt>
      <trkpt lat="44.97792" lon="5.41223">
        <ele>915.2</ele>
        <time>2012-09-16T08:57:42Z</time>
      </trkpt>
      <trkpt lat="44.97785" lon="5.41225">
        <ele>914.7</ele>
        <time>2012-09-16T08:57:44Z</time>
      </trkpt>
      <trkpt lat="44.97776" lon="5.41227">
        <ele>911</ele>
        <time>2012-09-16T08:57:47Z</time>
      </trkpt>
      <trkpt lat="44.97768" lon="5.4123">
        <ele>912</ele>
        <time>2012-09-16T08:57:50Z</time>
      </trkpt>
      <trkpt lat="44.9776" lon="5.41232">
        <ele>913.9</ele>
        <time>2012-09-16T08:57:53Z</time>
      </trkpt>
      <trkpt lat="44.97736" lon="5.41236">
        <ele>916.2</ele>
        <time>2012-09-16T08:58:02Z</time>
      </trkpt>
      <trkpt lat="44.97726" lon="5.41239">
        <ele>914.7</ele>
        <time>2012-09-16T08:58:05Z</time>
      </trkpt>
      <trkpt lat="44.97704" lon="5.4124">
        <ele>916.9</ele>
        <time>2012-09-16T08:58:12Z</time>
      </trkpt>
      <trkpt lat="44.97693" lon="5.41238">
        <ele>918.2</ele>
        <time>2012-09-16T08:58:15Z</time>
      </trkpt>
      <trkpt lat="44.97653" lon="5.41235">
        <ele>927</ele>
        <time>2012-09-16T08:58:24Z</time>
      </trkpt>
      <trkpt lat="44.97612" lon="5.41239">
        <ele>924.7</ele>
        <time>2012-09-16T08:58:33Z</time>
      </trkpt>
      <trkpt lat="44.97596" lon="5.41244">
        <ele>922.4</ele>
        <time>2012-09-16T08:58:36Z</time>
      </trkpt>
      <trkpt lat="44.97565" lon="5.41246">
        <ele>901.2</ele>
        <time>2012-09-16T08:58:42Z</time>
      </trkpt>
      <trkpt lat="44.97557" lon="5.41251">
        <ele>898.5</ele>
        <time>2012-09-16T08:58:44Z</time>
      </trkpt>
      <trkpt lat="44.97555" lon="5.41256">
        <ele>895.4</ele>
        <time>2012-09-16T08:58:45Z</time>
      </trkpt>
      <trkpt lat="44.97555" lon="5.4127">
        <ele>891.2</ele>
        <time>2012-09-16T08:58:47Z</time>
      </trkpt>
      <trkpt lat="44.9756" lon="5.41306">
        <ele>883.5</ele>
        <time>2012-09-16T08:58:53Z</time>
      </trkpt>
      <trkpt lat="44.9756" lon="5.41336">
        <ele>882.7</ele>
        <time>2012-09-16T08:58:58Z</time>
      </trkpt>
      <trkpt lat="44.97557" lon="5.41344">
        <ele>889</ele>
        <time>2012-09-16T08:58:59Z</time>
      </trkpt>
      <trkpt lat="44.97551" lon="5.41351">
        <ele>896.4</ele>
        <time>2012-09-16T08:59:00Z</time>
      </trkpt>
      <trkpt lat="44.97544" lon="5.41355">
        <ele>900.7</ele>
        <time>2012-09-16T08:59:01Z</time>
      </trkpt>
      <trkpt lat="44.97537" lon="5.41357">
        <ele>903.5</ele>
        <time>2012-09-16T08:59:02Z</time>
      </trkpt>
      <trkpt lat="44.97528" lon="5.41358">
        <ele>905.9</ele>
        <time>2012-09-16T08:59:04Z</time>
      </trkpt>
      <trkpt lat="44.97519" lon="5.41354">
        <ele>904</ele>
        <time>2012-09-16T08:59:09Z</time>
      </trkpt>
      <trkpt lat="44.9751" lon="5.41353">
        <ele>896.9</ele>
        <time>2012-09-16T08:59:14Z</time>
      </trkpt>
      <trkpt lat="44.97485" lon="5.41365">
        <ele>878.4</ele>
        <time>2012-09-16T08:59:27Z</time>
      </trkpt>
      <trkpt lat="44.97474" lon="5.41364">
        <ele>879.7</ele>
        <time>2012-09-16T08:59:32Z</time>
      </trkpt>
      <trkpt lat="44.97463" lon="5.4136">
        <ele>883.4</ele>
        <time>2012-09-16T08:59:37Z</time>
      </trkpt>
      <trkpt lat="44.97448" lon="5.41356">
        <ele>885.2</ele>
        <time>2012-09-16T08:59:45Z</time>
      </trkpt>
      <trkpt lat="44.97434" lon="5.41356">
        <ele>886.2</ele>
        <time>2012-09-16T08:59:53Z</time>
      </trkpt>
      <trkpt lat="44.97415" lon="5.41358">
        <ele>885.7</ele>
        <time>2012-09-16T09:00:03Z</time>
      </trkpt>
      <trkpt lat="44.97402" lon="5.41361">
        <ele>886</ele>
        <time>2012-09-16T09:00:09Z</time>
      </trkpt>
      <trkpt lat="44.97386" lon="5.41361">
        <ele>886</ele>
        <time>2012-09-16T09:00:14Z</time>
      </trkpt>
      <trkpt lat="44.97367" lon="5.41358">
        <ele>886.7</ele>
        <time>2012-09-16T09:00:19Z</time>
      </trkpt>
      <trkpt lat="44.97358" lon="5.41358">
        <ele>887.4</ele>
        <time>2012-09-16T09:00:22Z</time>
      </trkpt>
      <trkpt lat="44.97338" lon="5.41364">
        <ele>893</ele>
        <time>2012-09-16T09:00:36Z</time>
      </trkpt>
      <trkpt lat="44.97326" lon="5.41368">
        <ele>894.2</ele>
        <time>2012-09-16T09:00:47Z</time>
      </trkpt>
      <trkpt lat="44.97313" lon="5.4137">
        <ele>897</ele>
        <time>2012-09-16T09:00:57Z</time>
      </trkpt>
      <trkpt lat="44.97295" lon="5.41372">
        <ele>899.7</ele>
        <time>2012-09-16T09:01:12Z</time>
      </trkpt>
      <trkpt lat="44.97283" lon="5.41371">
        <ele>901.4</ele>
        <time>2012-09-16T09:01:22Z</time>
      </trkpt>
      <trkpt lat="44.97259" lon="5.41368">
        <ele>902.7</ele>
        <time>2012-09-16T09:01:40Z</time>
      </trkpt>
      <trkpt lat="44.9725" lon="5.41368">
        <ele>902.9</ele>
        <time>2012-09-16T09:01:47Z</time>
      </trkpt>
      <trkpt lat="44.97242" lon="5.41381">
        <ele>902</ele>
        <time>2012-09-16T09:01:56Z</time>
      </trkpt>
      <trkpt lat="44.97226" lon="5.41409">
        <ele>902.7</ele>
        <time>2012-09-16T09:02:10Z</time>
      </trkpt>
      <trkpt lat="44.97211" lon="5.41425">
        <ele>903.2</ele>
        <time>2012-09-16T09:02:21Z</time>
      </trkpt>
      <trkpt lat="44.97205" lon="5.4143">
        <ele>903.4</ele>
        <time>2012-09-16T09:02:25Z</time>
      </trkpt>
      <trkpt lat="44.972" lon="5.41437">
        <ele>904</ele>
        <time>2012-09-16T09:02:29Z</time>
      </trkpt>
      <trkpt lat="44.9719" lon="5.41446">
        <ele>904.7</ele>
        <time>2012-09-16T09:02:36Z</time>
      </trkpt>
      <trkpt lat="44.97171" lon="5.41472">
        <ele>907</ele>
        <time>2012-09-16T09:02:51Z</time>
      </trkpt>
      <trkpt lat="44.97168" lon="5.41474">
        <ele>907.7</ele>
        <time>2012-09-16T09:02:53Z</time>
      </trkpt>
      <trkpt lat="44.97148" lon="5.41496">
        <ele>909</ele>
        <time>2012-09-16T09:03:08Z</time>
      </trkpt>
      <trkpt lat="44.97136" lon="5.41517">
        <ele>910.2</ele>
        <time>2012-09-16T09:03:19Z</time>
      </trkpt>
      <trkpt lat="44.97124" lon="5.41534">
        <ele>910.5</ele>
        <time>2012-09-16T09:03:29Z</time>
      </trkpt>
      <trkpt lat="44.9712" lon="5.4154">
        <ele>910.5</ele>
        <time>2012-09-16T09:03:33Z</time>
      </trkpt>
      <trkpt lat="44.97113" lon="5.41553">
        <ele>911</ele>
        <time>2012-09-16T09:03:40Z</time>
      </trkpt>
      <trkpt lat="44.97111" lon="5.41566">
        <ele>911.9</ele>
        <time>2012-09-16T09:03:47Z</time>
      </trkpt>
      <trkpt lat="44.97104" lon="5.41579">
        <ele>911.4</ele>
        <time>2012-09-16T09:03:54Z</time>
      </trkpt>
      <trkpt lat="44.971" lon="5.41582">
        <ele>911</ele>
        <time>2012-09-16T09:03:56Z</time>
      </trkpt>
      <trkpt lat="44.9709" lon="5.41587">
        <ele>910</ele>
        <time>2012-09-16T09:04:00Z</time>
      </trkpt>
      <trkpt lat="44.97081" lon="5.4159">
        <ele>909.5</ele>
        <time>2012-09-16T09:04:03Z</time>
      </trkpt>
      <trkpt lat="44.97052" lon="5.4159">
        <ele>909.7</ele>
        <time>2012-09-16T09:04:11Z</time>
      </trkpt>
      <trkpt lat="44.97007" lon="5.41595">
        <ele>908.7</ele>
        <time>2012-09-16T09:04:23Z</time>
      </trkpt>
      <trkpt lat="44.97004" lon="5.41595">
        <ele>908.5</ele>
        <time>2012-09-16T09:04:24Z</time>
      </trkpt>
      <trkpt lat="44.96988" lon="5.41591">
        <ele>907.4</ele>
        <time>2012-09-16T09:04:29Z</time>
      </trkpt>
      <trkpt lat="44.96978" lon="5.41586">
        <ele>906.5</ele>
        <time>2012-09-16T09:04:33Z</time>
      </trkpt>
      <trkpt lat="44.96972" lon="5.41581">
        <ele>912</ele>
        <time>2012-09-16T09:05:08Z</time>
      </trkpt>
      <trkpt lat="44.96964" lon="5.41579">
        <ele>910.7</ele>
        <time>2012-09-16T09:05:11Z</time>
      </trkpt>
      <trkpt lat="44.96912" lon="5.41552">
        <ele>905.7</ele>
        <time>2012-09-16T09:05:22Z</time>
      </trkpt>
      <trkpt lat="44.96884" lon="5.41541">
        <ele>903.2</ele>
        <time>2012-09-16T09:05:27Z</time>
      </trkpt>
      <trkpt lat="44.96873" lon="5.41539">
        <ele>902.2</ele>
        <time>2012-09-16T09:05:29Z</time>
      </trkpt>
      <trkpt lat="44.96862" lon="5.4154">
        <ele>901</ele>
        <time>2012-09-16T09:05:31Z</time>
      </trkpt>
      <trkpt lat="44.96852" lon="5.41543">
        <ele>899.7</ele>
        <time>2012-09-16T09:05:33Z</time>
      </trkpt>
      <trkpt lat="44.96834" lon="5.41553">
        <ele>896.4</ele>
        <time>2012-09-16T09:05:37Z</time>
      </trkpt>
      <trkpt lat="44.96825" lon="5.4156">
        <ele>895.4</ele>
        <time>2012-09-16T09:05:39Z</time>
      </trkpt>
      <trkpt lat="44.96814" lon="5.41574">
        <ele>893.9</ele>
        <time>2012-09-16T09:05:42Z</time>
      </trkpt>
      <trkpt lat="44.96806" lon="5.41579">
        <ele>895.2</ele>
        <time>2012-09-16T09:05:44Z</time>
      </trkpt>
      <trkpt lat="44.96799" lon="5.41577">
        <ele>894.2</ele>
        <time>2012-09-16T09:05:46Z</time>
      </trkpt>
      <trkpt lat="44.96792" lon="5.41574">
        <ele>893.5</ele>
        <time>2012-09-16T09:05:48Z</time>
      </trkpt>
      <trkpt lat="44.96782" lon="5.41577">
        <ele>893.9</ele>
        <time>2012-09-16T09:05:51Z</time>
      </trkpt>
      <trkpt lat="44.9678" lon="5.4158">
        <ele>893.7</ele>
        <time>2012-09-16T09:05:52Z</time>
      </trkpt>
      <trkpt lat="44.96768" lon="5.41596">
        <ele>892.2</ele>
        <time>2012-09-16T09:05:57Z</time>
      </trkpt>
      <trkpt lat="44.96752" lon="5.41611">
        <ele>890</ele>
        <time>2012-09-16T09:06:04Z</time>
      </trkpt>
      <trkpt lat="44.96741" lon="5.41619">
        <ele>888.9</ele>
        <time>2012-09-16T09:06:11Z</time>
      </trkpt>
      <trkpt lat="44.96737" lon="5.4162">
        <ele>891.2</ele>
        <time>2012-09-16T09:06:34Z</time>
      </trkpt>
      <trkpt lat="44.96736" lon="5.41611">
        <ele>891.5</ele>
        <time>2012-09-16T09:06:37Z</time>
      </trkpt>
      <trkpt lat="44.96737" lon="5.41603">
        <ele>891.4</ele>
        <time>2012-09-16T09:06:39Z</time>
      </trkpt>
      <trkpt lat="44.9674" lon="5.41589">
        <ele>891.5</ele>
        <time>2012-09-16T09:06:43Z</time>
      </trkpt>
      <trkpt lat="44.96741" lon="5.41574">
        <ele>892</ele>
        <time>2012-09-16T09:06:47Z</time>
      </trkpt>
      <trkpt lat="44.96741" lon="5.41564">
        <ele>892.5</ele>
        <time>2012-09-16T09:06:50Z</time>
      </trkpt>
      <trkpt lat="44.96734" lon="5.41553">
        <ele>892.5</ele>
        <time>2012-09-16T09:06:54Z</time>
      </trkpt>
      <trkpt lat="44.96727" lon="5.41549">
        <ele>892.2</ele>
        <time>2012-09-16T09:06:56Z</time>
      </trkpt>
      <trkpt lat="44.96716" lon="5.41546">
        <ele>891.2</ele>
        <time>2012-09-16T09:06:59Z</time>
      </trkpt>
      <trkpt lat="44.96713" lon="5.41544">
        <ele>890.7</ele>
        <time>2012-09-16T09:07:00Z</time>
      </trkpt>
      <trkpt lat="44.9667" lon="5.41515">
        <ele>887</ele>
        <time>2012-09-16T09:07:15Z</time>
      </trkpt>
      <trkpt lat="44.96663" lon="5.41511">
        <ele>887.2</ele>
        <time>2012-09-16T09:07:32Z</time>
      </trkpt>
      <trkpt lat="44.96657" lon="5.41513">
        <ele>887.2</ele>
        <time>2012-09-16T09:07:38Z</time>
      </trkpt>
      <trkpt lat="44.96657" lon="5.4152">
        <ele>888.2</ele>
        <time>2012-09-16T09:07:42Z</time>
      </trkpt>
      <trkpt lat="44.96654" lon="5.4153">
        <ele>887.7</ele>
        <time>2012-09-16T09:07:46Z</time>
      </trkpt>
      <trkpt lat="44.96652" lon="5.41548">
        <ele>889.7</ele>
        <time>2012-09-16T09:07:52Z</time>
      </trkpt>
      <trkpt lat="44.96652" lon="5.4156">
        <ele>889.7</ele>
        <time>2012-09-16T09:07:57Z</time>
      </trkpt>
      <trkpt lat="44.96649" lon="5.41577">
        <ele>890</ele>
        <time>2012-09-16T09:08:03Z</time>
      </trkpt>
      <trkpt lat="44.96653" lon="5.41588">
        <ele>888.5</ele>
        <time>2012-09-16T09:08:07Z</time>
      </trkpt>
      <trkpt lat="44.96665" lon="5.41617">
        <ele>892.2</ele>
        <time>2012-09-16T09:08:19Z</time>
      </trkpt>
      <trkpt lat="44.96671" lon="5.41626">
        <ele>892.2</ele>
        <time>2012-09-16T09:08:24Z</time>
      </trkpt>
      <trkpt lat="44.96676" lon="5.41639">
        <ele>894</ele>
        <time>2012-09-16T09:08:30Z</time>
      </trkpt>
      <trkpt lat="44.96681" lon="5.41646">
        <ele>894</ele>
        <time>2012-09-16T09:08:35Z</time>
      </trkpt>
      <trkpt lat="44.96688" lon="5.41649">
        <ele>894.5</ele>
        <time>2012-09-16T09:08:39Z</time>
      </trkpt>
      <trkpt lat="44.96697" lon="5.41653">
        <ele>894.2</ele>
        <time>2012-09-16T09:08:45Z</time>
      </trkpt>
      <trkpt lat="44.967" lon="5.4167">
        <ele>895.4</ele>
        <time>2012-09-16T09:08:55Z</time>
      </trkpt>
      <trkpt lat="44.96698" lon="5.41682">
        <ele>897.9</ele>
        <time>2012-09-16T09:09:02Z</time>
      </trkpt>
      <trkpt lat="44.967" lon="5.41696">
        <ele>899.4</ele>
        <time>2012-09-16T09:09:10Z</time>
      </trkpt>
      <trkpt lat="44.96694" lon="5.41711">
        <ele>899.4</ele>
        <time>2012-09-16T09:09:18Z</time>
      </trkpt>
      <trkpt lat="44.9669" lon="5.41716">
        <ele>898.7</ele>
        <time>2012-09-16T09:09:25Z</time>
      </trkpt>
      <trkpt lat="44.96691" lon="5.41725">
        <ele>903.7</ele>
        <time>2012-09-16T09:09:33Z</time>
      </trkpt>
      <trkpt lat="44.96679" lon="5.4172">
        <ele>904.5</ele>
        <time>2012-09-16T09:09:41Z</time>
      </trkpt>
      <trkpt lat="44.9667" lon="5.41714">
        <ele>906.2</ele>
        <time>2012-09-16T09:09:47Z</time>
      </trkpt>
      <trkpt lat="44.96658" lon="5.41721">
        <ele>899.7</ele>
        <time>2012-09-16T09:09:57Z</time>
      </trkpt>
      <trkpt lat="44.96652" lon="5.41728">
        <ele>897.7</ele>
        <time>2012-09-16T09:10:04Z</time>
      </trkpt>
      <trkpt lat="44.9664" lon="5.41733">
        <ele>897.4</ele>
        <time>2012-09-16T09:10:17Z</time>
      </trkpt>
      <trkpt lat="44.96637" lon="5.41732">
        <ele>903</ele>
        <time>2012-09-16T09:10:28Z</time>
      </trkpt>
      <trkpt lat="44.96626" lon="5.41735">
        <ele>900.7</ele>
        <time>2012-09-16T09:10:38Z</time>
      </trkpt>
      <trkpt lat="44.96617" lon="5.41736">
        <ele>898</ele>
        <time>2012-09-16T09:10:47Z</time>
      </trkpt>
      <trkpt lat="44.96613" lon="5.41739">
        <ele>901</ele>
        <time>2012-09-16T09:10:50Z</time>
      </trkpt>
      <trkpt lat="44.96599" lon="5.41744">
        <ele>900.5</ele>
        <time>2012-09-16T09:10:58Z</time>
      </trkpt>
      <trkpt lat="44.96593" lon="5.41745">
        <ele>899.5</ele>
        <time>2012-09-16T09:11:01Z</time>
      </trkpt>
      <trkpt lat="44.96585" lon="5.41748">
        <ele>899</ele>
        <time>2012-09-16T09:11:05Z</time>
      </trkpt>
      <trkpt lat="44.96571" lon="5.4175">
        <ele>899.2</ele>
        <time>2012-09-16T09:11:12Z</time>
      </trkpt>
      <trkpt lat="44.96547" lon="5.41748">
        <ele>900.4</ele>
        <time>2012-09-16T09:11:21Z</time>
      </trkpt>
      <trkpt lat="44.96532" lon="5.41746">
        <ele>900.5</ele>
        <time>2012-09-16T09:11:27Z</time>
      </trkpt>
      <trkpt lat="44.96517" lon="5.4174">
        <ele>900.7</ele>
        <time>2012-09-16T09:11:33Z</time>
      </trkpt>
      <trkpt lat="44.96507" lon="5.41734">
        <ele>900.5</ele>
        <time>2012-09-16T09:11:37Z</time>
      </trkpt>
      <trkpt lat="44.965" lon="5.41729">
        <ele>900.2</ele>
        <time>2012-09-16T09:11:40Z</time>
      </trkpt>
      <trkpt lat="44.9649" lon="5.41713">
        <ele>899.5</ele>
        <time>2012-09-16T09:11:49Z</time>
      </trkpt>
      <trkpt lat="44.96489" lon="5.41709">
        <ele>899.2</ele>
        <time>2012-09-16T09:11:52Z</time>
      </trkpt>
      <trkpt lat="44.96487" lon="5.41712">
        <ele>899.4</ele>
        <time>2012-09-16T09:11:58Z</time>
      </trkpt>
      <trkpt lat="44.96492" lon="5.41721">
        <ele>900.2</ele>
        <time>2012-09-16T09:12:02Z</time>
      </trkpt>
      <trkpt lat="44.96497" lon="5.41728">
        <ele>900.5</ele>
        <time>2012-09-16T09:12:05Z</time>
      </trkpt>
      <trkpt lat="44.96505" lon="5.41736">
        <ele>900.5</ele>
        <time>2012-09-16T09:12:09Z</time>
      </trkpt>
      <trkpt lat="44.96527" lon="5.41748">
        <ele>900.2</ele>
        <time>2012-09-16T09:12:19Z</time>
      </trkpt>
      <trkpt lat="44.96536" lon="5.41748">
        <ele>900.4</ele>
        <time>2012-09-16T09:12:27Z</time>
      </trkpt>
      <trkpt lat="44.96512" lon="5.41737">
        <ele>900.4</ele>
        <time>2012-09-16T09:12:39Z</time>
      </trkpt>
      <trkpt lat="44.96504" lon="5.41731">
        <ele>900.5</ele>
        <time>2012-09-16T09:12:43Z</time>
      </trkpt>
      <trkpt lat="44.96495" lon="5.41718">
        <ele>900.5</ele>
        <time>2012-09-16T09:12:48Z</time>
      </trkpt>
      <trkpt lat="44.96484" lon="5.41693">
        <ele>900.7</ele>
        <time>2012-09-16T09:12:56Z</time>
      </trkpt>
      <trkpt lat="44.9647" lon="5.4166">
        <ele>899.7</ele>
        <time>2012-09-16T09:13:06Z</time>
      </trkpt>
      <trkpt lat="44.9645" lon="5.41618">
        <ele>897</ele>
        <time>2012-09-16T09:13:14Z</time>
      </trkpt>
      <trkpt lat="44.96443" lon="5.41609">
        <ele>896.5</ele>
        <time>2012-09-16T09:13:16Z</time>
      </trkpt>
      <trkpt lat="44.96433" lon="5.41603">
        <ele>896.2</ele>
        <time>2012-09-16T09:13:19Z</time>
      </trkpt>
      <trkpt lat="44.96427" lon="5.41601">
        <ele>896</ele>
        <time>2012-09-16T09:13:21Z</time>
      </trkpt>
      <trkpt lat="44.96418" lon="5.41602">
        <ele>896</ele>
        <time>2012-09-16T09:13:24Z</time>
      </trkpt>
      <trkpt lat="44.96406" lon="5.4161">
        <ele>895.4</ele>
        <time>2012-09-16T09:13:29Z</time>
      </trkpt>
      <trkpt lat="44.96385" lon="5.41632">
        <ele>893.9</ele>
        <time>2012-09-16T09:13:39Z</time>
      </trkpt>
      <trkpt lat="44.96381" lon="5.41634">
        <ele>893.5</ele>
        <time>2012-09-16T09:13:41Z</time>
      </trkpt>
      <trkpt lat="44.96373" lon="5.41632">
        <ele>894</ele>
        <time>2012-09-16T09:13:44Z</time>
      </trkpt>
      <trkpt lat="44.96369" lon="5.41628">
        <ele>894.2</ele>
        <time>2012-09-16T09:13:46Z</time>
      </trkpt>
      <trkpt lat="44.96342" lon="5.41597">
        <ele>893.5</ele>
        <time>2012-09-16T09:13:57Z</time>
      </trkpt>
      <trkpt lat="44.96324" lon="5.41571">
        <ele>892.2</ele>
        <time>2012-09-16T09:14:04Z</time>
      </trkpt>
      <trkpt lat="44.9632" lon="5.41559">
        <ele>892.2</ele>
        <time>2012-09-16T09:14:08Z</time>
      </trkpt>
      <trkpt lat="44.96316" lon="5.41552">
        <ele>892</ele>
        <time>2012-09-16T09:14:12Z</time>
      </trkpt>
      <trkpt lat="44.9631" lon="5.41551">
        <ele>892.5</ele>
        <time>2012-09-16T09:14:22Z</time>
      </trkpt>
      <trkpt lat="44.96301" lon="5.41546">
        <ele>892.2</ele>
        <time>2012-09-16T09:14:26Z</time>
      </trkpt>
      <trkpt lat="44.9629" lon="5.41543">
        <ele>890.9</ele>
        <time>2012-09-16T09:14:31Z</time>
      </trkpt>
      <trkpt lat="44.96282" lon="5.41537">
        <ele>889.5</ele>
        <time>2012-09-16T09:14:35Z</time>
      </trkpt>
      <trkpt lat="44.96275" lon="5.41535">
        <ele>888</ele>
        <time>2012-09-16T09:14:38Z</time>
      </trkpt>
      <trkpt lat="44.96265" lon="5.41542">
        <ele>885.2</ele>
        <time>2012-09-16T09:14:42Z</time>
      </trkpt>
      <trkpt lat="44.96252" lon="5.41545">
        <ele>882</ele>
        <time>2012-09-16T09:14:47Z</time>
      </trkpt>
      <trkpt lat="44.96242" lon="5.4155">
        <ele>881</ele>
        <time>2012-09-16T09:14:50Z</time>
      </trkpt>
      <trkpt lat="44.96232" lon="5.41551">
        <ele>881</ele>
        <time>2012-09-16T09:14:53Z</time>
      </trkpt>
      <trkpt lat="44.962" lon="5.41551">
        <ele>880.2</ele>
        <time>2012-09-16T09:15:04Z</time>
      </trkpt>
      <trkpt lat="44.96198" lon="5.41552">
        <ele>880.2</ele>
        <time>2012-09-16T09:15:05Z</time>
      </trkpt>
      <trkpt lat="44.96181" lon="5.41559">
        <ele>879.2</ele>
        <time>2012-09-16T09:15:11Z</time>
      </trkpt>
      <trkpt lat="44.96177" lon="5.41559">
        <ele>879.2</ele>
        <time>2012-09-16T09:15:12Z</time>
      </trkpt>
      <trkpt lat="44.96148" lon="5.41567">
        <ele>878.2</ele>
        <time>2012-09-16T09:15:20Z</time>
      </trkpt>
      <trkpt lat="44.9614" lon="5.41576">
        <ele>877.7</ele>
        <time>2012-09-16T09:15:24Z</time>
      </trkpt>
      <trkpt lat="44.96132" lon="5.41579">
        <ele>876.7</ele>
        <time>2012-09-16T09:15:28Z</time>
      </trkpt>
      <trkpt lat="44.96118" lon="5.41576">
        <ele>875.7</ele>
        <time>2012-09-16T09:15:35Z</time>
      </trkpt>
      <trkpt lat="44.96107" lon="5.41579">
        <ele>875.5</ele>
        <time>2012-09-16T09:15:41Z</time>
      </trkpt>
      <trkpt lat="44.96094" lon="5.41583">
        <ele>873.7</ele>
        <time>2012-09-16T09:15:53Z</time>
      </trkpt>
      <trkpt lat="44.96075" lon="5.41585">
        <ele>869.9</ele>
        <time>2012-09-16T09:16:08Z</time>
      </trkpt>
      <trkpt lat="44.96068" lon="5.41585">
        <ele>867.5</ele>
        <time>2012-09-16T09:16:17Z</time>
      </trkpt>
      <trkpt lat="44.96057" lon="5.41585">
        <ele>864.5</ele>
        <time>2012-09-16T09:16:36Z</time>
      </trkpt>
      <trkpt lat="44.96042" lon="5.4159">
        <ele>865</ele>
        <time>2012-09-16T09:16:43Z</time>
      </trkpt>
      <trkpt lat="44.96037" lon="5.4159">
        <ele>865.7</ele>
        <time>2012-09-16T09:16:46Z</time>
      </trkpt>
      <trkpt lat="44.9602" lon="5.41593">
        <ele>867.4</ele>
        <time>2012-09-16T09:16:57Z</time>
      </trkpt>
      <trkpt lat="44.9601" lon="5.41592">
        <ele>868</ele>
        <time>2012-09-16T09:17:04Z</time>
      </trkpt>
      <trkpt lat="44.95995" lon="5.416">
        <ele>868.5</ele>
        <time>2012-09-16T09:17:15Z</time>
      </trkpt>
      <trkpt lat="44.95985" lon="5.41601">
        <ele>870.2</ele>
        <time>2012-09-16T09:17:20Z</time>
      </trkpt>
      <trkpt lat="44.95981" lon="5.416">
        <ele>871.2</ele>
        <time>2012-09-16T09:17:27Z</time>
      </trkpt>
      <trkpt lat="44.95975" lon="5.41611">
        <ele>871</ele>
        <time>2012-09-16T09:17:38Z</time>
      </trkpt>
      <trkpt lat="44.95968" lon="5.41628">
        <ele>870.9</ele>
        <time>2012-09-16T09:17:44Z</time>
      </trkpt>
      <trkpt lat="44.95966" lon="5.41636">
        <ele>870.7</ele>
        <time>2012-09-16T09:17:47Z</time>
      </trkpt>
      <trkpt lat="44.95958" lon="5.41669">
        <ele>870.2</ele>
        <time>2012-09-16T09:17:59Z</time>
      </trkpt>
      <trkpt lat="44.9595" lon="5.41683">
        <ele>868</ele>
        <time>2012-09-16T09:18:06Z</time>
      </trkpt>
      <trkpt lat="44.95944" lon="5.41697">
        <ele>868.4</ele>
        <time>2012-09-16T09:18:11Z</time>
      </trkpt>
      <trkpt lat="44.95935" lon="5.4173">
        <ele>868.5</ele>
        <time>2012-09-16T09:18:23Z</time>
      </trkpt>
      <trkpt lat="44.95928" lon="5.4176">
        <ele>868.2</ele>
        <time>2012-09-16T09:18:33Z</time>
      </trkpt>
      <trkpt lat="44.95925" lon="5.41782">
        <ele>868.4</ele>
        <time>2012-09-16T09:18:40Z</time>
      </trkpt>
      <trkpt lat="44.95918" lon="5.41815">
        <ele>868.7</ele>
        <time>2012-09-16T09:18:51Z</time>
      </trkpt>
      <trkpt lat="44.95913" lon="5.41837">
        <ele>868.7</ele>
        <time>2012-09-16T09:18:58Z</time>
      </trkpt>
      <trkpt lat="44.95903" lon="5.41867">
        <ele>869</ele>
        <time>2012-09-16T09:19:08Z</time>
      </trkpt>
      <trkpt lat="44.95894" lon="5.41886">
        <ele>868.7</ele>
        <time>2012-09-16T09:19:15Z</time>
      </trkpt>
      <trkpt lat="44.95886" lon="5.41912">
        <ele>868.4</ele>
        <time>2012-09-16T09:19:24Z</time>
      </trkpt>
      <trkpt lat="44.95877" lon="5.41946">
        <ele>868.2</ele>
        <time>2012-09-16T09:19:35Z</time>
      </trkpt>
      <trkpt lat="44.95868" lon="5.41977">
        <ele>869.4</ele>
        <time>2012-09-16T09:19:46Z</time>
      </trkpt>
      <trkpt lat="44.95861" lon="5.42007">
        <ele>871</ele>
        <time>2012-09-16T09:19:57Z</time>
      </trkpt>
      <trkpt lat="44.95855" lon="5.42038">
        <ele>873.9</ele>
        <time>2012-09-16T09:20:07Z</time>
      </trkpt>
      <trkpt lat="44.95846" lon="5.42066">
        <ele>877</ele>
        <time>2012-09-16T09:20:15Z</time>
      </trkpt>
      <trkpt lat="44.95843" lon="5.42084">
        <ele>876.5</ele>
        <time>2012-09-16T09:20:20Z</time>
      </trkpt>
      <trkpt lat="44.9584" lon="5.42094">
        <ele>875.4</ele>
        <time>2012-09-16T09:20:23Z</time>
      </trkpt>
      <trkpt lat="44.95838" lon="5.42108">
        <ele>875</ele>
        <time>2012-09-16T09:20:27Z</time>
      </trkpt>
      <trkpt lat="44.95839" lon="5.42125">
        <ele>874.5</ele>
        <time>2012-09-16T09:20:32Z</time>
      </trkpt>
      <trkpt lat="44.95839" lon="5.42143">
        <ele>874.2</ele>
        <time>2012-09-16T09:20:37Z</time>
      </trkpt>
      <trkpt lat="44.95837" lon="5.42152">
        <ele>873.7</ele>
        <time>2012-09-16T09:20:40Z</time>
      </trkpt>
      <trkpt lat="44.95834" lon="5.42161">
        <ele>873</ele>
        <time>2012-09-16T09:20:43Z</time>
      </trkpt>
      <trkpt lat="44.95827" lon="5.42184">
        <ele>874.5</ele>
        <time>2012-09-16T09:20:50Z</time>
      </trkpt>
      <trkpt lat="44.95817" lon="5.42211">
        <ele>873.4</ele>
        <time>2012-09-16T09:21:00Z</time>
      </trkpt>
      <trkpt lat="44.95816" lon="5.42231">
        <ele>874.9</ele>
        <time>2012-09-16T09:21:07Z</time>
      </trkpt>
      <trkpt lat="44.95811" lon="5.42238">
        <ele>874.7</ele>
        <time>2012-09-16T09:21:11Z</time>
      </trkpt>
      <trkpt lat="44.95801" lon="5.42248">
        <ele>873.7</ele>
        <time>2012-09-16T09:21:19Z</time>
      </trkpt>
      <trkpt lat="44.95795" lon="5.42256">
        <ele>873.7</ele>
        <time>2012-09-16T09:21:25Z</time>
      </trkpt>
      <trkpt lat="44.95774" lon="5.42273">
        <ele>871.5</ele>
        <time>2012-09-16T09:21:33Z</time>
      </trkpt>
      <trkpt lat="44.95759" lon="5.42292">
        <ele>869.2</ele>
        <time>2012-09-16T09:21:40Z</time>
      </trkpt>
      <trkpt lat="44.95749" lon="5.42308">
        <ele>868.5</ele>
        <time>2012-09-16T09:21:47Z</time>
      </trkpt>
      <trkpt lat="44.95726" lon="5.42341">
        <ele>867.7</ele>
        <time>2012-09-16T09:22:00Z</time>
      </trkpt>
      <trkpt lat="44.95724" lon="5.42343">
        <ele>867.7</ele>
        <time>2012-09-16T09:22:01Z</time>
      </trkpt>
      <trkpt lat="44.95708" lon="5.42361">
        <ele>869.2</ele>
        <time>2012-09-16T09:22:12Z</time>
      </trkpt>
      <trkpt lat="44.95705" lon="5.42374">
        <ele>867.5</ele>
        <time>2012-09-16T09:22:18Z</time>
      </trkpt>
      <trkpt lat="44.95702" lon="5.4238">
        <ele>867.9</ele>
        <time>2012-09-16T09:22:20Z</time>
      </trkpt>
      <trkpt lat="44.95685" lon="5.42406">
        <ele>868.9</ele>
        <time>2012-09-16T09:22:31Z</time>
      </trkpt>
      <trkpt lat="44.95667" lon="5.42435">
        <ele>869.7</ele>
        <time>2012-09-16T09:22:42Z</time>
      </trkpt>
      <trkpt lat="44.95656" lon="5.42453">
        <ele>870.4</ele>
        <time>2012-09-16T09:22:49Z</time>
      </trkpt>
      <trkpt lat="44.95642" lon="5.42472">
        <ele>871</ele>
        <time>2012-09-16T09:22:57Z</time>
      </trkpt>
      <trkpt lat="44.95623" lon="5.42492">
        <ele>872</ele>
        <time>2012-09-16T09:23:07Z</time>
      </trkpt>
      <trkpt lat="44.95609" lon="5.42503">
        <ele>872.9</ele>
        <time>2012-09-16T09:23:14Z</time>
      </trkpt>
      <trkpt lat="44.95584" lon="5.42519">
        <ele>874</ele>
        <time>2012-09-16T09:23:26Z</time>
      </trkpt>
      <trkpt lat="44.95558" lon="5.42533">
        <ele>876.5</ele>
        <time>2012-09-16T09:23:38Z</time>
      </trkpt>
      <trkpt lat="44.95556" lon="5.42534">
        <ele>876.7</ele>
        <time>2012-09-16T09:23:39Z</time>
      </trkpt>
      <trkpt lat="44.95535" lon="5.42546">
        <ele>877.9</ele>
        <time>2012-09-16T09:23:48Z</time>
      </trkpt>
      <trkpt lat="44.95514" lon="5.42558">
        <ele>878.7</ele>
        <time>2012-09-16T09:23:57Z</time>
      </trkpt>
      <trkpt lat="44.9551" lon="5.42562">
        <ele>879</ele>
        <time>2012-09-16T09:23:59Z</time>
      </trkpt>
      <trkpt lat="44.95498" lon="5.42578">
        <ele>878.5</ele>
        <time>2012-09-16T09:24:05Z</time>
      </trkpt>
      <trkpt lat="44.95493" lon="5.42582">
        <ele>878.9</ele>
        <time>2012-09-16T09:24:08Z</time>
      </trkpt>
      <trkpt lat="44.95488" lon="5.42584">
        <ele>879</ele>
        <time>2012-09-16T09:24:15Z</time>
      </trkpt>
      <trkpt lat="44.95486" lon="5.42581">
        <ele>883.9</ele>
        <time>2012-09-16T09:24:35Z</time>
      </trkpt>
      <trkpt lat="44.95475" lon="5.4258">
        <ele>883.4</ele>
        <time>2012-09-16T09:24:42Z</time>
      </trkpt>
      <trkpt lat="44.95458" lon="5.42581">
        <ele>882.2</ele>
        <time>2012-09-16T09:24:49Z</time>
      </trkpt>
      <trkpt lat="44.95449" lon="5.42578">
        <ele>882.9</ele>
        <time>2012-09-16T09:24:55Z</time>
      </trkpt>
      <trkpt lat="44.95442" lon="5.42579">
        <ele>883.2</ele>
        <time>2012-09-16T09:25:00Z</time>
      </trkpt>
      <trkpt lat="44.95425" lon="5.42572">
        <ele>884.5</ele>
        <time>2012-09-16T09:25:13Z</time>
      </trkpt>
      <trkpt lat="44.95414" lon="5.42568">
        <ele>884.9</ele>
        <time>2012-09-16T09:25:21Z</time>
      </trkpt>
      <trkpt lat="44.95392" lon="5.4256">
        <ele>886.7</ele>
        <time>2012-09-16T09:25:37Z</time>
      </trkpt>
      <trkpt lat="44.95373" lon="5.42554">
        <ele>888.5</ele>
        <time>2012-09-16T09:25:49Z</time>
      </trkpt>
      <trkpt lat="44.95363" lon="5.42552">
        <ele>890.2</ele>
        <time>2012-09-16T09:25:56Z</time>
      </trkpt>
      <trkpt lat="44.95352" lon="5.42547">
        <ele>891.5</ele>
        <time>2012-09-16T09:26:04Z</time>
      </trkpt>
      <trkpt lat="44.95331" lon="5.42541">
        <ele>893.5</ele>
        <time>2012-09-16T09:26:18Z</time>
      </trkpt>
      <trkpt lat="44.95314" lon="5.42532">
        <ele>894</ele>
        <time>2012-09-16T09:26:30Z</time>
      </trkpt>
      <trkpt lat="44.95308" lon="5.42531">
        <ele>894</ele>
        <time>2012-09-16T09:26:34Z</time>
      </trkpt>
      <trkpt lat="44.95301" lon="5.42527">
        <ele>893.7</ele>
        <time>2012-09-16T09:26:39Z</time>
      </trkpt>
      <trkpt lat="44.9529" lon="5.42525">
        <ele>893.5</ele>
        <time>2012-09-16T09:26:46Z</time>
      </trkpt>
      <trkpt lat="44.95283" lon="5.42529">
        <ele>896.2</ele>
        <time>2012-09-16T09:26:57Z</time>
      </trkpt>
      <trkpt lat="44.95281" lon="5.4253">
        <ele>900.2</ele>
        <time>2012-09-16T09:27:12Z</time>
      </trkpt>
      <trkpt lat="44.95281" lon="5.42529">
        <ele>899.5</ele>
        <time>2012-09-16T09:27:28Z</time>
      </trkpt>
      <trkpt lat="44.95276" lon="5.4253">
        <ele>899.2</ele>
        <time>2012-09-16T09:28:01Z</time>
      </trkpt>
      <trkpt lat="44.95274" lon="5.42531">
        <ele>900.7</ele>
        <time>2012-09-16T09:28:18Z</time>
      </trkpt>
      <trkpt lat="44.9527" lon="5.4253">
        <ele>900.9</ele>
        <time>2012-09-16T09:28:24Z</time>
      </trkpt>
      <trkpt lat="44.95262" lon="5.42532">
        <ele>903</ele>
        <time>2012-09-16T09:28:33Z</time>
      </trkpt>
      <trkpt lat="44.95252" lon="5.42532">
        <ele>901.5</ele>
        <time>2012-09-16T09:28:46Z</time>
      </trkpt>
      <trkpt lat="44.95246" lon="5.42534">
        <ele>902.7</ele>
        <time>2012-09-16T09:28:54Z</time>
      </trkpt>
      <trkpt lat="44.95241" lon="5.42534">
        <ele>903</ele>
        <time>2012-09-16T09:28:59Z</time>
      </trkpt>
      <trkpt lat="44.95232" lon="5.42537">
        <ele>904.4</ele>
        <time>2012-09-16T09:29:09Z</time>
      </trkpt>
      <trkpt lat="44.95224" lon="5.42535">
        <ele>904.4</ele>
        <time>2012-09-16T09:29:21Z</time>
      </trkpt>
      <trkpt lat="44.95202" lon="5.42537">
        <ele>912</ele>
        <time>2012-09-16T09:29:58Z</time>
      </trkpt>
      <trkpt lat="44.95196" lon="5.42532">
        <ele>909.7</ele>
        <time>2012-09-16T09:30:06Z</time>
      </trkpt>
      <trkpt lat="44.95185" lon="5.42531">
        <ele>910.4</ele>
        <time>2012-09-16T09:30:23Z</time>
      </trkpt>
      <trkpt lat="44.95181" lon="5.42529">
        <ele>908.5</ele>
        <time>2012-09-16T09:30:29Z</time>
      </trkpt>
      <trkpt lat="44.95175" lon="5.42527">
        <ele>909</ele>
        <time>2012-09-16T09:30:37Z</time>
      </trkpt>
      <trkpt lat="44.95167" lon="5.4253">
        <ele>911.4</ele>
        <time>2012-09-16T09:30:46Z</time>
      </trkpt>
      <trkpt lat="44.95165" lon="5.42529">
        <ele>907.9</ele>
        <time>2012-09-16T09:31:07Z</time>
      </trkpt>
      <trkpt lat="44.95164" lon="5.42531">
        <ele>908.9</ele>
        <time>2012-09-16T09:31:10Z</time>
      </trkpt>
      <trkpt lat="44.95161" lon="5.42535">
        <ele>914.9</ele>
        <time>2012-09-16T09:31:21Z</time>
      </trkpt>
      <trkpt lat="44.95162" lon="5.42532">
        <ele>919.7</ele>
        <time>2012-09-16T09:31:38Z</time>
      </trkpt>
      <trkpt lat="44.95152" lon="5.42532">
        <ele>919</ele>
        <time>2012-09-16T09:31:55Z</time>
      </trkpt>
      <trkpt lat="44.95141" lon="5.4254">
        <ele>919.2</ele>
        <time>2012-09-16T09:32:04Z</time>
      </trkpt>
      <trkpt lat="44.95128" lon="5.4255">
        <ele>919.2</ele>
        <time>2012-09-16T09:32:17Z</time>
      </trkpt>
      <trkpt lat="44.95109" lon="5.42559">
        <ele>919.5</ele>
        <time>2012-09-16T09:32:35Z</time>
      </trkpt>
      <trkpt lat="44.951" lon="5.4256">
        <ele>922.5</ele>
        <time>2012-09-16T09:32:43Z</time>
      </trkpt>
      <trkpt lat="44.95093" lon="5.42558">
        <ele>921.2</ele>
        <time>2012-09-16T09:32:51Z</time>
      </trkpt>
      <trkpt lat="44.95084" lon="5.42559">
        <ele>921.2</ele>
        <time>2012-09-16T09:32:59Z</time>
      </trkpt>
      <trkpt lat="44.95074" lon="5.42558">
        <ele>921.5</ele>
        <time>2012-09-16T09:33:09Z</time>
      </trkpt>
      <trkpt lat="44.95063" lon="5.42561">
        <ele>922</ele>
        <time>2012-09-16T09:33:18Z</time>
      </trkpt>
      <trkpt lat="44.9505" lon="5.42561">
        <ele>921.9</ele>
        <time>2012-09-16T09:33:30Z</time>
      </trkpt>
      <trkpt lat="44.95043" lon="5.42563">
        <ele>922.4</ele>
        <time>2012-09-16T09:33:36Z</time>
      </trkpt>
      <trkpt lat="44.95035" lon="5.42561">
        <ele>923.2</ele>
        <time>2012-09-16T09:33:44Z</time>
      </trkpt>
      <trkpt lat="44.95024" lon="5.4256">
        <ele>926</ele>
        <time>2012-09-16T09:33:54Z</time>
      </trkpt>
      <trkpt lat="44.95003" lon="5.42549">
        <ele>927</ele>
        <time>2012-09-16T09:34:20Z</time>
      </trkpt>
      <trkpt lat="44.9499" lon="5.42545">
        <ele>928.4</ele>
        <time>2012-09-16T09:34:33Z</time>
      </trkpt>
      <trkpt lat="44.94992" lon="5.4254">
        <ele>930.7</ele>
        <time>2012-09-16T09:34:51Z</time>
      </trkpt>
      <trkpt lat="44.94998" lon="5.42534">
        <ele>930.7</ele>
        <time>2012-09-16T09:35:12Z</time>
      </trkpt>
      <trkpt lat="44.94993" lon="5.42535">
        <ele>930.7</ele>
        <time>2012-09-16T09:35:41Z</time>
      </trkpt>
      <trkpt lat="44.94982" lon="5.42535">
        <ele>930.7</ele>
        <time>2012-09-16T09:35:52Z</time>
      </trkpt>
      <trkpt lat="44.94962" lon="5.42529">
        <ele>930.4</ele>
        <time>2012-09-16T09:36:04Z</time>
      </trkpt>
      <trkpt lat="44.94945" lon="5.42527">
        <ele>930</ele>
        <time>2012-09-16T09:36:15Z</time>
      </trkpt>
      <trkpt lat="44.94931" lon="5.42522">
        <ele>930.5</ele>
        <time>2012-09-16T09:36:24Z</time>
      </trkpt>
      <trkpt lat="44.94917" lon="5.42522">
        <ele>931.4</ele>
        <time>2012-09-16T09:36:33Z</time>
      </trkpt>
      <trkpt lat="44.94895" lon="5.42526">
        <ele>935.5</ele>
        <time>2012-09-16T09:36:48Z</time>
      </trkpt>
      <trkpt lat="44.94872" lon="5.4253">
        <ele>938.2</ele>
        <time>2012-09-16T09:37:03Z</time>
      </trkpt>
      <trkpt lat="44.94856" lon="5.42529">
        <ele>939</ele>
        <time>2012-09-16T09:37:14Z</time>
      </trkpt>
      <trkpt lat="44.94848" lon="5.42527">
        <ele>940.2</ele>
        <time>2012-09-16T09:37:19Z</time>
      </trkpt>
      <trkpt lat="44.94825" lon="5.42517">
        <ele>942.7</ele>
        <time>2012-09-16T09:37:37Z</time>
      </trkpt>
      <trkpt lat="44.94802" lon="5.42504">
        <ele>943.7</ele>
        <time>2012-09-16T09:37:54Z</time>
      </trkpt>
      <trkpt lat="44.94796" lon="5.42498">
        <ele>944.7</ele>
        <time>2012-09-16T09:37:59Z</time>
      </trkpt>
      <trkpt lat="44.94786" lon="5.42493">
        <ele>947</ele>
        <time>2012-09-16T09:38:07Z</time>
      </trkpt>
      <trkpt lat="44.94774" lon="5.42483">
        <ele>950.2</ele>
        <time>2012-09-16T09:38:18Z</time>
      </trkpt>
      <trkpt lat="44.94767" lon="5.42479">
        <ele>952.7</ele>
        <time>2012-09-16T09:38:25Z</time>
      </trkpt>
      <trkpt lat="44.9476" lon="5.42476">
        <ele>954.4</ele>
        <time>2012-09-16T09:38:32Z</time>
      </trkpt>
      <trkpt lat="44.94747" lon="5.42473">
        <ele>954.9</ele>
        <time>2012-09-16T09:38:43Z</time>
      </trkpt>
      <trkpt lat="44.94727" lon="5.42465">
        <ele>956.5</ele>
        <time>2012-09-16T09:38:59Z</time>
      </trkpt>
      <trkpt lat="44.94719" lon="5.4246">
        <ele>956.9</ele>
        <time>2012-09-16T09:39:05Z</time>
      </trkpt>
      <trkpt lat="44.94713" lon="5.42453">
        <ele>957.2</ele>
        <time>2012-09-16T09:39:10Z</time>
      </trkpt>
      <trkpt lat="44.94693" lon="5.42435">
        <ele>959.2</ele>
        <time>2012-09-16T09:39:25Z</time>
      </trkpt>
      <trkpt lat="44.94679" lon="5.42427">
        <ele>962.2</ele>
        <time>2012-09-16T09:39:34Z</time>
      </trkpt>
      <trkpt lat="44.94664" lon="5.42415">
        <ele>965.2</ele>
        <time>2012-09-16T09:39:46Z</time>
      </trkpt>
      <trkpt lat="44.94646" lon="5.424">
        <ele>970.7</ele>
        <time>2012-09-16T09:40:01Z</time>
      </trkpt>
      <trkpt lat="44.94637" lon="5.4239">
        <ele>971.2</ele>
        <time>2012-09-16T09:40:09Z</time>
      </trkpt>
      <trkpt lat="44.94627" lon="5.42384">
        <ele>974</ele>
        <time>2012-09-16T09:40:17Z</time>
      </trkpt>
      <trkpt lat="44.94621" lon="5.42377">
        <ele>975.7</ele>
        <time>2012-09-16T09:40:23Z</time>
      </trkpt>
      <trkpt lat="44.94613" lon="5.42372">
        <ele>976.5</ele>
        <time>2012-09-16T09:40:31Z</time>
      </trkpt>
      <trkpt lat="44.94599" lon="5.42357">
        <ele>977.7</ele>
        <time>2012-09-16T09:40:47Z</time>
      </trkpt>
      <trkpt lat="44.94591" lon="5.42354">
        <ele>978.2</ele>
        <time>2012-09-16T09:40:54Z</time>
      </trkpt>
      <trkpt lat="44.94581" lon="5.42342">
        <ele>978.9</ele>
        <time>2012-09-16T09:41:03Z</time>
      </trkpt>
      <trkpt lat="44.94573" lon="5.42338">
        <ele>979</ele>
        <time>2012-09-16T09:41:09Z</time>
      </trkpt>
      <trkpt lat="44.94567" lon="5.42332">
        <ele>980.9</ele>
        <time>2012-09-16T09:41:14Z</time>
      </trkpt>
      <trkpt lat="44.94554" lon="5.42322">
        <ele>981.5</ele>
        <time>2012-09-16T09:41:25Z</time>
      </trkpt>
      <trkpt lat="44.94544" lon="5.42319">
        <ele>985.5</ele>
        <time>2012-09-16T09:41:33Z</time>
      </trkpt>
      <trkpt lat="44.94531" lon="5.42317">
        <ele>984.7</ele>
        <time>2012-09-16T09:41:40Z</time>
      </trkpt>
      <trkpt lat="44.94514" lon="5.4231">
        <ele>984.9</ele>
        <time>2012-09-16T09:41:51Z</time>
      </trkpt>
      <trkpt lat="44.94505" lon="5.42303">
        <ele>986.5</ele>
        <time>2012-09-16T09:41:59Z</time>
      </trkpt>
      <trkpt lat="44.94498" lon="5.42295">
        <ele>988.9</ele>
        <time>2012-09-16T09:42:06Z</time>
      </trkpt>
      <trkpt lat="44.94493" lon="5.42293">
        <ele>989.5</ele>
        <time>2012-09-16T09:42:09Z</time>
      </trkpt>
      <trkpt lat="44.94473" lon="5.42282">
        <ele>990.7</ele>
        <time>2012-09-16T09:42:24Z</time>
      </trkpt>
      <trkpt lat="44.94463" lon="5.42274">
        <ele>993.2</ele>
        <time>2012-09-16T09:42:34Z</time>
      </trkpt>
      <trkpt lat="44.94451" lon="5.4226">
        <ele>991.5</ele>
        <time>2012-09-16T09:42:44Z</time>
      </trkpt>
      <trkpt lat="44.94437" lon="5.42252">
        <ele>990.7</ele>
        <time>2012-09-16T09:42:54Z</time>
      </trkpt>
      <trkpt lat="44.94429" lon="5.42246">
        <ele>992.7</ele>
        <time>2012-09-16T09:43:01Z</time>
      </trkpt>
      <trkpt lat="44.94416" lon="5.4224">
        <ele>990.7</ele>
        <time>2012-09-16T09:43:10Z</time>
      </trkpt>
      <trkpt lat="44.94408" lon="5.42233">
        <ele>994.4</ele>
        <time>2012-09-16T09:43:17Z</time>
      </trkpt>
      <trkpt lat="44.94396" lon="5.42227">
        <ele>997.7</ele>
        <time>2012-09-16T09:43:27Z</time>
      </trkpt>
      <trkpt lat="44.94389" lon="5.42226">
        <ele>998.2</ele>
        <time>2012-09-16T09:43:31Z</time>
      </trkpt>
      <trkpt lat="44.94377" lon="5.42219">
        <ele>998.7</ele>
        <time>2012-09-16T09:43:39Z</time>
      </trkpt>
      <trkpt lat="44.94374" lon="5.42215">
        <ele>1001.4</ele>
        <time>2012-09-16T09:43:42Z</time>
      </trkpt>
      <trkpt lat="44.94355" lon="5.42206">
        <ele>1009.2</ele>
        <time>2012-09-16T09:43:57Z</time>
      </trkpt>
      <trkpt lat="44.94335" lon="5.4219">
        <ele>1009.5</ele>
        <time>2012-09-16T09:44:12Z</time>
      </trkpt>
      <trkpt lat="44.94322" lon="5.42183">
        <ele>1009.2</ele>
        <time>2012-09-16T09:44:20Z</time>
      </trkpt>
      <trkpt lat="44.94314" lon="5.42176">
        <ele>1012.7</ele>
        <time>2012-09-16T09:44:26Z</time>
      </trkpt>
      <trkpt lat="44.94304" lon="5.42171">
        <ele>1015.2</ele>
        <time>2012-09-16T09:44:34Z</time>
      </trkpt>
      <trkpt lat="44.94295" lon="5.42169">
        <ele>1019.5</ele>
        <time>2012-09-16T09:44:41Z</time>
      </trkpt>
      <trkpt lat="44.94284" lon="5.4217">
        <ele>1024.5</ele>
        <time>2012-09-16T09:44:48Z</time>
      </trkpt>
      <trkpt lat="44.94278" lon="5.42166">
        <ele>1029</ele>
        <time>2012-09-16T09:44:56Z</time>
      </trkpt>
      <trkpt lat="44.94267" lon="5.42166">
        <ele>1028.9</ele>
        <time>2012-09-16T09:45:02Z</time>
      </trkpt>
      <trkpt lat="44.9426" lon="5.42163">
        <ele>1025.9</ele>
        <time>2012-09-16T09:45:07Z</time>
      </trkpt>
      <trkpt lat="44.94254" lon="5.42162">
        <ele>1025</ele>
        <time>2012-09-16T09:45:09Z</time>
      </trkpt>
      <trkpt lat="44.94235" lon="5.42166">
        <ele>1023.7</ele>
        <time>2012-09-16T09:45:16Z</time>
      </trkpt>
      <trkpt lat="44.94228" lon="5.42161">
        <ele>1023.7</ele>
        <time>2012-09-16T09:45:20Z</time>
      </trkpt>
      <trkpt lat="44.94223" lon="5.42154">
        <ele>1024.3</ele>
        <time>2012-09-16T09:45:24Z</time>
      </trkpt>
      <trkpt lat="44.94217" lon="5.42149">
        <ele>1025.5</ele>
        <time>2012-09-16T09:45:27Z</time>
      </trkpt>
      <trkpt lat="44.94208" lon="5.42145">
        <ele>1026</ele>
        <time>2012-09-16T09:45:30Z</time>
      </trkpt>
      <trkpt lat="44.94201" lon="5.42134">
        <ele>1026</ele>
        <time>2012-09-16T09:45:35Z</time>
      </trkpt>
      <trkpt lat="44.94182" lon="5.42126">
        <ele>1022</ele>
        <time>2012-09-16T09:45:42Z</time>
      </trkpt>
      <trkpt lat="44.94178" lon="5.42121">
        <ele>1019.2</ele>
        <time>2012-09-16T09:45:44Z</time>
      </trkpt>
      <trkpt lat="44.94168" lon="5.42114">
        <ele>1019.5</ele>
        <time>2012-09-16T09:45:54Z</time>
      </trkpt>
      <trkpt lat="44.94163" lon="5.4211">
        <ele>1024</ele>
        <time>2012-09-16T09:46:01Z</time>
      </trkpt>
      <trkpt lat="44.94156" lon="5.42109">
        <ele>1025</ele>
        <time>2012-09-16T09:46:07Z</time>
      </trkpt>
      <trkpt lat="44.94149" lon="5.42109">
        <ele>1025.3</ele>
        <time>2012-09-16T09:46:11Z</time>
      </trkpt>
      <trkpt lat="44.9414" lon="5.42108">
        <ele>1023.7</ele>
        <time>2012-09-16T09:46:15Z</time>
      </trkpt>
      <trkpt lat="44.94133" lon="5.42103">
        <ele>1023.7</ele>
        <time>2012-09-16T09:46:19Z</time>
      </trkpt>
      <trkpt lat="44.94124" lon="5.42101">
        <ele>1027.5</ele>
        <time>2012-09-16T09:46:24Z</time>
      </trkpt>
      <trkpt lat="44.94107" lon="5.42089">
        <ele>1026.5</ele>
        <time>2012-09-16T09:46:35Z</time>
      </trkpt>
      <trkpt lat="44.94096" lon="5.42084">
        <ele>1024.3</ele>
        <time>2012-09-16T09:46:41Z</time>
      </trkpt>
      <trkpt lat="44.94087" lon="5.42082">
        <ele>1022.5</ele>
        <time>2012-09-16T09:46:48Z</time>
      </trkpt>
      <trkpt lat="44.94086" lon="5.42081">
        <ele>1025</ele>
        <time>2012-09-16T09:46:56Z</time>
      </trkpt>
      <trkpt lat="44.94093" lon="5.42074">
        <ele>1026.5</ele>
        <time>2012-09-16T09:47:04Z</time>
      </trkpt>
      <trkpt lat="44.94091" lon="5.42076">
        <ele>1027.5</ele>
        <time>2012-09-16T09:47:12Z</time>
      </trkpt>
      <trkpt lat="44.94089" lon="5.4208">
        <ele>1026.5</ele>
        <time>2012-09-16T09:47:14Z</time>
      </trkpt>
      <trkpt lat="44.94074" lon="5.42094">
        <ele>1026</ele>
        <time>2012-09-16T09:47:21Z</time>
      </trkpt>
      <trkpt lat="44.94069" lon="5.42097">
        <ele>1025.3</ele>
        <time>2012-09-16T09:47:25Z</time>
      </trkpt>
      <trkpt lat="44.94057" lon="5.42107">
        <ele>1027</ele>
        <time>2012-09-16T09:47:32Z</time>
      </trkpt>
      <trkpt lat="44.94053" lon="5.42111">
        <ele>1025</ele>
        <time>2012-09-16T09:47:34Z</time>
      </trkpt>
      <trkpt lat="44.94047" lon="5.42111">
        <ele>1024.5</ele>
        <time>2012-09-16T09:47:40Z</time>
      </trkpt>
      <trkpt lat="44.94029" lon="5.42106">
        <ele>1025.9</ele>
        <time>2012-09-16T09:47:53Z</time>
      </trkpt>
      <trkpt lat="44.94015" lon="5.42106">
        <ele>1028.9</ele>
        <time>2012-09-16T09:48:03Z</time>
      </trkpt>
      <trkpt lat="44.94003" lon="5.42107">
        <ele>1030.3</ele>
        <time>2012-09-16T09:48:10Z</time>
      </trkpt>
      <trkpt lat="44.93983" lon="5.421">
        <ele>1029.5</ele>
        <time>2012-09-16T09:48:21Z</time>
      </trkpt>
      <trkpt lat="44.93971" lon="5.42097">
        <ele>1029.3</ele>
        <time>2012-09-16T09:48:28Z</time>
      </trkpt>
      <trkpt lat="44.93958" lon="5.42102">
        <ele>1028.4</ele>
        <time>2012-09-16T09:48:33Z</time>
      </trkpt>
      <trkpt lat="44.93953" lon="5.42102">
        <ele>1027.9</ele>
        <time>2012-09-16T09:48:35Z</time>
      </trkpt>
      <trkpt lat="44.93944" lon="5.42098">
        <ele>1032.4</ele>
        <time>2012-09-16T09:48:40Z</time>
      </trkpt>
      <trkpt lat="44.93925" lon="5.42095">
        <ele>1032</ele>
        <time>2012-09-16T09:48:44Z</time>
      </trkpt>
      <trkpt lat="44.93913" lon="5.42093">
        <ele>1034.5</ele>
        <time>2012-09-16T09:48:48Z</time>
      </trkpt>
      <trkpt lat="44.93904" lon="5.42097">
        <ele>1035.5</ele>
        <time>2012-09-16T09:48:51Z</time>
      </trkpt>
      <trkpt lat="44.93888" lon="5.421">
        <ele>1039.9</ele>
        <time>2012-09-16T09:49:00Z</time>
      </trkpt>
      <trkpt lat="44.9388" lon="5.42103">
        <ele>1044.9</ele>
        <time>2012-09-16T09:49:06Z</time>
      </trkpt>
      <trkpt lat="44.93874" lon="5.42101">
        <ele>1044</ele>
        <time>2012-09-16T09:49:11Z</time>
      </trkpt>
      <trkpt lat="44.93854" lon="5.42107">
        <ele>1043</ele>
        <time>2012-09-16T09:49:21Z</time>
      </trkpt>
      <trkpt lat="44.93844" lon="5.42109">
        <ele>1042.8</ele>
        <time>2012-09-16T09:49:26Z</time>
      </trkpt>
      <trkpt lat="44.93831" lon="5.42112">
        <ele>1045</ele>
        <time>2012-09-16T09:49:33Z</time>
      </trkpt>
      <trkpt lat="44.93818" lon="5.42109">
        <ele>1040.5</ele>
        <time>2012-09-16T09:49:40Z</time>
      </trkpt>
      <trkpt lat="44.93812" lon="5.42103">
        <ele>1039.9</ele>
        <time>2012-09-16T09:49:45Z</time>
      </trkpt>
      <trkpt lat="44.93807" lon="5.42104">
        <ele>1039.5</ele>
        <time>2012-09-16T09:49:48Z</time>
      </trkpt>
      <trkpt lat="44.93801" lon="5.42101">
        <ele>1034.5</ele>
        <time>2012-09-16T09:49:57Z</time>
      </trkpt>
      <trkpt lat="44.93792" lon="5.42098">
        <ele>1035</ele>
        <time>2012-09-16T09:50:09Z</time>
      </trkpt>
      <trkpt lat="44.9379" lon="5.42096">
        <ele>1034</ele>
        <time>2012-09-16T09:50:17Z</time>
      </trkpt>
      <trkpt lat="44.9377" lon="5.42098">
        <ele>1038</ele>
        <time>2012-09-16T09:50:33Z</time>
      </trkpt>
      <trkpt lat="44.93761" lon="5.42095">
        <ele>1041.9</ele>
        <time>2012-09-16T09:50:41Z</time>
      </trkpt>
      <trkpt lat="44.93744" lon="5.42088">
        <ele>1049.5</ele>
        <time>2012-09-16T09:51:03Z</time>
      </trkpt>
      <trkpt lat="44.9374" lon="5.42085">
        <ele>1051</ele>
        <time>2012-09-16T09:51:10Z</time>
      </trkpt>
      <trkpt lat="44.93728" lon="5.42082">
        <ele>1055</ele>
        <time>2012-09-16T09:51:27Z</time>
      </trkpt>
      <trkpt lat="44.93722" lon="5.42081">
        <ele>1057.5</ele>
        <time>2012-09-16T09:51:35Z</time>
      </trkpt>
      <trkpt lat="44.93708" lon="5.42081">
        <ele>1058</ele>
        <time>2012-09-16T09:51:58Z</time>
      </trkpt>
      <trkpt lat="44.93702" lon="5.4208">
        <ele>1056.4</ele>
        <time>2012-09-16T09:52:06Z</time>
      </trkpt>
      <trkpt lat="44.93698" lon="5.4208">
        <ele>1056.5</ele>
        <time>2012-09-16T09:52:14Z</time>
      </trkpt>
      <trkpt lat="44.93692" lon="5.42083">
        <ele>1057</ele>
        <time>2012-09-16T09:52:21Z</time>
      </trkpt>
      <trkpt lat="44.93679" lon="5.42087">
        <ele>1056</ele>
        <time>2012-09-16T09:52:38Z</time>
      </trkpt>
      <trkpt lat="44.93669" lon="5.42089">
        <ele>1051.5</ele>
        <time>2012-09-16T09:52:52Z</time>
      </trkpt>
      <trkpt lat="44.9366" lon="5.42089">
        <ele>1051</ele>
        <time>2012-09-16T09:53:02Z</time>
      </trkpt>
      <trkpt lat="44.93653" lon="5.42093">
        <ele>1064</ele>
        <time>2012-09-16T09:53:15Z</time>
      </trkpt>
      <trkpt lat="44.93639" lon="5.42093">
        <ele>1071.4</ele>
        <time>2012-09-16T09:53:28Z</time>
      </trkpt>
      <trkpt lat="44.93627" lon="5.4209">
        <ele>1071</ele>
        <time>2012-09-16T09:53:42Z</time>
      </trkpt>
      <trkpt lat="44.93609" lon="5.42086">
        <ele>1068.5</ele>
        <time>2012-09-16T09:54:00Z</time>
      </trkpt>
      <trkpt lat="44.93606" lon="5.42086">
        <ele>1071.5</ele>
        <time>2012-09-16T09:54:13Z</time>
      </trkpt>
      <trkpt lat="44.93599" lon="5.42084">
        <ele>1069</ele>
        <time>2012-09-16T09:54:24Z</time>
      </trkpt>
      <trkpt lat="44.9359" lon="5.42079">
        <ele>1067.9</ele>
        <time>2012-09-16T09:54:32Z</time>
      </trkpt>
      <trkpt lat="44.93585" lon="5.42075">
        <ele>1073.9</ele>
        <time>2012-09-16T09:54:47Z</time>
      </trkpt>
      <trkpt lat="44.9358" lon="5.42075">
        <ele>1076.8</ele>
        <time>2012-09-16T09:54:54Z</time>
      </trkpt>
      <trkpt lat="44.93571" lon="5.42073">
        <ele>1075</ele>
        <time>2012-09-16T09:55:03Z</time>
      </trkpt>
      <trkpt lat="44.93563" lon="5.42065">
        <ele>1079</ele>
        <time>2012-09-16T09:55:20Z</time>
      </trkpt>
      <trkpt lat="44.93551" lon="5.42062">
        <ele>1078.5</ele>
        <time>2012-09-16T09:55:33Z</time>
      </trkpt>
      <trkpt lat="44.93548" lon="5.42055">
        <ele>1079.8</ele>
        <time>2012-09-16T09:55:44Z</time>
      </trkpt>
      <trkpt lat="44.93547" lon="5.42055">
        <ele>1082.9</ele>
        <time>2012-09-16T09:55:50Z</time>
      </trkpt>
      <trkpt lat="44.93544" lon="5.42051">
        <ele>1089.5</ele>
        <time>2012-09-16T09:56:01Z</time>
      </trkpt>
      <trkpt lat="44.93539" lon="5.4205">
        <ele>1087.5</ele>
        <time>2012-09-16T09:56:05Z</time>
      </trkpt>
      <trkpt lat="44.93532" lon="5.4205">
        <ele>1085.8</ele>
        <time>2012-09-16T09:56:13Z</time>
      </trkpt>
      <trkpt lat="44.93527" lon="5.42053">
        <ele>1087</ele>
        <time>2012-09-16T09:56:17Z</time>
      </trkpt>
      <trkpt lat="44.93522" lon="5.42052">
        <ele>1089</ele>
        <time>2012-09-16T09:56:25Z</time>
      </trkpt>
      <trkpt lat="44.93525" lon="5.42035">
        <ele>1089.3</ele>
        <time>2012-09-16T09:56:39Z</time>
      </trkpt>
      <trkpt lat="44.93527" lon="5.42029">
        <ele>1088.5</ele>
        <time>2012-09-16T09:56:46Z</time>
      </trkpt>
      <trkpt lat="44.93528" lon="5.42021">
        <ele>1087</ele>
        <time>2012-09-16T09:56:55Z</time>
      </trkpt>
      <trkpt lat="44.9353" lon="5.42017">
        <ele>1088</ele>
        <time>2012-09-16T09:57:00Z</time>
      </trkpt>
      <trkpt lat="44.9353" lon="5.42008">
        <ele>1086.4</ele>
        <time>2012-09-16T09:57:08Z</time>
      </trkpt>
      <trkpt lat="44.93532" lon="5.42003">
        <ele>1088.5</ele>
        <time>2012-09-16T09:57:15Z</time>
      </trkpt>
      <trkpt lat="44.93536" lon="5.41998">
        <ele>1089.5</ele>
        <time>2012-09-16T09:57:22Z</time>
      </trkpt>
      <trkpt lat="44.93532" lon="5.41986">
        <ele>1093.8</ele>
        <time>2012-09-16T09:57:34Z</time>
      </trkpt>
      <trkpt lat="44.93533" lon="5.41985">
        <ele>1096.4</ele>
        <time>2012-09-16T09:57:43Z</time>
      </trkpt>
      <trkpt lat="44.9352" lon="5.41983">
        <ele>1091.4</ele>
        <time>2012-09-16T09:57:56Z</time>
      </trkpt>
      <trkpt lat="44.93509" lon="5.41977">
        <ele>1090</ele>
        <time>2012-09-16T09:58:07Z</time>
      </trkpt>
      <trkpt lat="44.93506" lon="5.41975">
        <ele>1089.8</ele>
        <time>2012-09-16T09:58:11Z</time>
      </trkpt>
      <trkpt lat="44.93502" lon="5.4197">
        <ele>1089.8</ele>
        <time>2012-09-16T09:58:26Z</time>
      </trkpt>
      <trkpt lat="44.93497" lon="5.41967">
        <ele>1089.5</ele>
        <time>2012-09-16T09:58:43Z</time>
      </trkpt>
      <trkpt lat="44.93495" lon="5.41964">
        <ele>1087.8</ele>
        <time>2012-09-16T09:58:50Z</time>
      </trkpt>
      <trkpt lat="44.93486" lon="5.41964">
        <ele>1090</ele>
        <time>2012-09-16T09:59:00Z</time>
      </trkpt>
      <trkpt lat="44.93477" lon="5.41961">
        <ele>1090.5</ele>
        <time>2012-09-16T09:59:09Z</time>
      </trkpt>
      <trkpt lat="44.93474" lon="5.41958">
        <ele>1090</ele>
        <time>2012-09-16T09:59:12Z</time>
      </trkpt>
      <trkpt lat="44.93462" lon="5.41949">
        <ele>1094.3</ele>
        <time>2012-09-16T09:59:22Z</time>
      </trkpt>
      <trkpt lat="44.93458" lon="5.41941">
        <ele>1103.5</ele>
        <time>2012-09-16T09:59:28Z</time>
      </trkpt>
      <trkpt lat="44.93438" lon="5.41925">
        <ele>1104.3</ele>
        <time>2012-09-16T09:59:45Z</time>
      </trkpt>
      <trkpt lat="44.93422" lon="5.4191">
        <ele>1101.8</ele>
        <time>2012-09-16T09:59:57Z</time>
      </trkpt>
      <trkpt lat="44.93413" lon="5.419">
        <ele>1106.8</ele>
        <time>2012-09-16T10:00:05Z</time>
      </trkpt>
      <trkpt lat="44.93402" lon="5.41897">
        <ele>1108.5</ele>
        <time>2012-09-16T10:00:19Z</time>
      </trkpt>
      <trkpt lat="44.93397" lon="5.41895">
        <ele>1118</ele>
        <time>2012-09-16T10:00:40Z</time>
      </trkpt>
      <trkpt lat="44.9339" lon="5.41893">
        <ele>1116</ele>
        <time>2012-09-16T10:00:48Z</time>
      </trkpt>
      <trkpt lat="44.93383" lon="5.41888">
        <ele>1115</ele>
        <time>2012-09-16T10:00:56Z</time>
      </trkpt>
      <trkpt lat="44.93375" lon="5.4188">
        <ele>1114.5</ele>
        <time>2012-09-16T10:01:07Z</time>
      </trkpt>
      <trkpt lat="44.93373" lon="5.41875">
        <ele>1115</ele>
        <time>2012-09-16T10:01:13Z</time>
      </trkpt>
      <trkpt lat="44.93369" lon="5.41871">
        <ele>1113.9</ele>
        <time>2012-09-16T10:01:18Z</time>
      </trkpt>
      <trkpt lat="44.93369" lon="5.41866">
        <ele>1117.5</ele>
        <time>2012-09-16T10:01:26Z</time>
      </trkpt>
      <trkpt lat="44.93364" lon="5.41855">
        <ele>1123.3</ele>
        <time>2012-09-16T10:01:41Z</time>
      </trkpt>
      <trkpt lat="44.93355" lon="5.41847">
        <ele>1122</ele>
        <time>2012-09-16T10:01:52Z</time>
      </trkpt>
      <trkpt lat="44.93354" lon="5.41843">
        <ele>1122.9</ele>
        <time>2012-09-16T10:01:58Z</time>
      </trkpt>
      <trkpt lat="44.93347" lon="5.41835">
        <ele>1121.3</ele>
        <time>2012-09-16T10:02:08Z</time>
      </trkpt>
      <trkpt lat="44.93346" lon="5.41831">
        <ele>1124.9</ele>
        <time>2012-09-16T10:02:13Z</time>
      </trkpt>
      <trkpt lat="44.93343" lon="5.41825">
        <ele>1125.5</ele>
        <time>2012-09-16T10:02:20Z</time>
      </trkpt>
      <trkpt lat="44.93337" lon="5.41821">
        <ele>1126.9</ele>
        <time>2012-09-16T10:02:29Z</time>
      </trkpt>
      <trkpt lat="44.93328" lon="5.41817">
        <ele>1128.3</ele>
        <time>2012-09-16T10:02:40Z</time>
      </trkpt>
      <trkpt lat="44.9332" lon="5.4181">
        <ele>1126.9</ele>
        <time>2012-09-16T10:02:52Z</time>
      </trkpt>
      <trkpt lat="44.93312" lon="5.41799">
        <ele>1127.5</ele>
        <time>2012-09-16T10:03:05Z</time>
      </trkpt>
      <trkpt lat="44.93311" lon="5.41794">
        <ele>1130</ele>
        <time>2012-09-16T10:03:11Z</time>
      </trkpt>
      <trkpt lat="44.93304" lon="5.4179">
        <ele>1127.5</ele>
        <time>2012-09-16T10:03:22Z</time>
      </trkpt>
      <trkpt lat="44.93301" lon="5.41785">
        <ele>1132.8</ele>
        <time>2012-09-16T10:03:29Z</time>
      </trkpt>
      <trkpt lat="44.933" lon="5.41781">
        <ele>1137.5</ele>
        <time>2012-09-16T10:03:36Z</time>
      </trkpt>
      <trkpt lat="44.93296" lon="5.41776">
        <ele>1140.5</ele>
        <time>2012-09-16T10:03:43Z</time>
      </trkpt>
      <trkpt lat="44.93293" lon="5.41755">
        <ele>1138.5</ele>
        <time>2012-09-16T10:04:01Z</time>
      </trkpt>
      <trkpt lat="44.93289" lon="5.41742">
        <ele>1139.9</ele>
        <time>2012-09-16T10:04:09Z</time>
      </trkpt>
      <trkpt lat="44.93289" lon="5.41734">
        <ele>1139</ele>
        <time>2012-09-16T10:04:14Z</time>
      </trkpt>
      <trkpt lat="44.93281" lon="5.41713">
        <ele>1146.5</ele>
        <time>2012-09-16T10:04:24Z</time>
      </trkpt>
      <trkpt lat="44.93275" lon="5.41703">
        <ele>1148.3</ele>
        <time>2012-09-16T10:04:28Z</time>
      </trkpt>
      <trkpt lat="44.93262" lon="5.41682">
        <ele>1146.3</ele>
        <time>2012-09-16T10:04:52Z</time>
      </trkpt>
      <trkpt lat="44.93251" lon="5.41668">
        <ele>1148</ele>
        <time>2012-09-16T10:05:10Z</time>
      </trkpt>
      <trkpt lat="44.93249" lon="5.41664">
        <ele>1150</ele>
        <time>2012-09-16T10:05:15Z</time>
      </trkpt>
      <trkpt lat="44.93246" lon="5.41657">
        <ele>1151</ele>
        <time>2012-09-16T10:05:24Z</time>
      </trkpt>
      <trkpt lat="44.93241" lon="5.41652">
        <ele>1150</ele>
        <time>2012-09-16T10:05:32Z</time>
      </trkpt>
      <trkpt lat="44.93229" lon="5.41635">
        <ele>1150.4</ele>
        <time>2012-09-16T10:05:53Z</time>
      </trkpt>
      <trkpt lat="44.93223" lon="5.41629">
        <ele>1150.5</ele>
        <time>2012-09-16T10:06:01Z</time>
      </trkpt>
      <trkpt lat="44.93217" lon="5.41628">
        <ele>1149.5</ele>
        <time>2012-09-16T10:06:10Z</time>
      </trkpt>
      <trkpt lat="44.93207" lon="5.41623">
        <ele>1149.5</ele>
        <time>2012-09-16T10:06:17Z</time>
      </trkpt>
      <trkpt lat="44.93201" lon="5.41613">
        <ele>1149.5</ele>
        <time>2012-09-16T10:06:24Z</time>
      </trkpt>
      <trkpt lat="44.93182" lon="5.41607">
        <ele>1148.3</ele>
        <time>2012-09-16T10:06:38Z</time>
      </trkpt>
      <trkpt lat="44.93173" lon="5.41603">
        <ele>1150.5</ele>
        <time>2012-09-16T10:06:45Z</time>
      </trkpt>
      <trkpt lat="44.93155" lon="5.41607">
        <ele>1148.8</ele>
        <time>2012-09-16T10:06:54Z</time>
      </trkpt>
      <trkpt lat="44.93145" lon="5.41608">
        <ele>1149.4</ele>
        <time>2012-09-16T10:06:57Z</time>
      </trkpt>
      <trkpt lat="44.93131" lon="5.41606">
        <ele>1150</ele>
        <time>2012-09-16T10:07:03Z</time>
      </trkpt>
      <trkpt lat="44.93123" lon="5.41602">
        <ele>1150</ele>
        <time>2012-09-16T10:07:07Z</time>
      </trkpt>
      <trkpt lat="44.93115" lon="5.41602">
        <ele>1148.9</ele>
        <time>2012-09-16T10:07:11Z</time>
      </trkpt>
      <trkpt lat="44.93109" lon="5.416">
        <ele>1148.9</ele>
        <time>2012-09-16T10:07:14Z</time>
      </trkpt>
      <trkpt lat="44.93096" lon="5.41599">
        <ele>1147.5</ele>
        <time>2012-09-16T10:07:19Z</time>
      </trkpt>
      <trkpt lat="44.93086" lon="5.41597">
        <ele>1146</ele>
        <time>2012-09-16T10:07:22Z</time>
      </trkpt>
      <trkpt lat="44.93062" lon="5.4158">
        <ele>1144.4</ele>
        <time>2012-09-16T10:07:30Z</time>
      </trkpt>
      <trkpt lat="44.93058" lon="5.41576">
        <ele>1145</ele>
        <time>2012-09-16T10:07:31Z</time>
      </trkpt>
      <trkpt lat="44.93044" lon="5.41565">
        <ele>1144.5</ele>
        <time>2012-09-16T10:07:34Z</time>
      </trkpt>
      <trkpt lat="44.93034" lon="5.4156">
        <ele>1144.5</ele>
        <time>2012-09-16T10:07:36Z</time>
      </trkpt>
      <trkpt lat="44.93024" lon="5.41562">
        <ele>1144.4</ele>
        <time>2012-09-16T10:07:38Z</time>
      </trkpt>
      <trkpt lat="44.93014" lon="5.41567">
        <ele>1145.5</ele>
        <time>2012-09-16T10:07:40Z</time>
      </trkpt>
      <trkpt lat="44.93002" lon="5.4157">
        <ele>1146</ele>
        <time>2012-09-16T10:07:43Z</time>
      </trkpt>
      <trkpt lat="44.9297" lon="5.41521">
        <ele>1143</ele>
        <time>2012-09-16T10:07:53Z</time>
      </trkpt>
      <trkpt lat="44.92952" lon="5.41503">
        <ele>1141.4</ele>
        <time>2012-09-16T10:07:58Z</time>
      </trkpt>
      <trkpt lat="44.92939" lon="5.41497">
        <ele>1139.3</ele>
        <time>2012-09-16T10:08:01Z</time>
      </trkpt>
      <trkpt lat="44.9292" lon="5.41487">
        <ele>1136</ele>
        <time>2012-09-16T10:08:06Z</time>
      </trkpt>
      <trkpt lat="44.929" lon="5.41485">
        <ele>1130</ele>
        <time>2012-09-16T10:08:13Z</time>
      </trkpt>
      <trkpt lat="44.9289" lon="5.4148">
        <ele>1128.3</ele>
        <time>2012-09-16T10:08:16Z</time>
      </trkpt>
      <trkpt lat="44.92882" lon="5.41468">
        <ele>1127.5</ele>
        <time>2012-09-16T10:08:19Z</time>
      </trkpt>
      <trkpt lat="44.92876" lon="5.41448">
        <ele>1124.5</ele>
        <time>2012-09-16T10:08:24Z</time>
      </trkpt>
      <trkpt lat="44.9287" lon="5.41434">
        <ele>1122</ele>
        <time>2012-09-16T10:08:28Z</time>
      </trkpt>
      <trkpt lat="44.92865" lon="5.4143">
        <ele>1120.5</ele>
        <time>2012-09-16T10:08:30Z</time>
      </trkpt>
      <trkpt lat="44.92856" lon="5.41421">
        <ele>1119</ele>
        <time>2012-09-16T10:08:33Z</time>
      </trkpt>
      <trkpt lat="44.92843" lon="5.41412">
        <ele>1116.5</ele>
        <time>2012-09-16T10:08:37Z</time>
      </trkpt>
      <trkpt lat="44.92817" lon="5.414">
        <ele>1112.5</ele>
        <time>2012-09-16T10:08:46Z</time>
      </trkpt>
      <trkpt lat="44.92807" lon="5.41393">
        <ele>1111.3</ele>
        <time>2012-09-16T10:08:51Z</time>
      </trkpt>
      <trkpt lat="44.928" lon="5.41389">
        <ele>1110</ele>
        <time>2012-09-16T10:08:54Z</time>
      </trkpt>
      <trkpt lat="44.92777" lon="5.41372">
        <ele>1108.5</ele>
        <time>2012-09-16T10:09:05Z</time>
      </trkpt>
      <trkpt lat="44.92767" lon="5.41368">
        <ele>1107.9</ele>
        <time>2012-09-16T10:09:09Z</time>
      </trkpt>
      <trkpt lat="44.9276" lon="5.41366">
        <ele>1107.8</ele>
        <time>2012-09-16T10:09:14Z</time>
      </trkpt>
      <trkpt lat="44.92749" lon="5.41361">
        <ele>1105</ele>
        <time>2012-09-16T10:09:52Z</time>
      </trkpt>
      <trkpt lat="44.92739" lon="5.41354">
        <ele>1104.4</ele>
        <time>2012-09-16T10:09:57Z</time>
      </trkpt>
      <trkpt lat="44.9273" lon="5.4135">
        <ele>1104.3</ele>
        <time>2012-09-16T10:10:00Z</time>
      </trkpt>
      <trkpt lat="44.92698" lon="5.41344">
        <ele>1104</ele>
        <time>2012-09-16T10:10:09Z</time>
      </trkpt>
      <trkpt lat="44.92695" lon="5.41343">
        <ele>1104</ele>
        <time>2012-09-16T10:10:10Z</time>
      </trkpt>
      <trkpt lat="44.9268" lon="5.41331">
        <ele>1104.3</ele>
        <time>2012-09-16T10:10:16Z</time>
      </trkpt>
      <trkpt lat="44.92674" lon="5.41325">
        <ele>1104.4</ele>
        <time>2012-09-16T10:10:19Z</time>
      </trkpt>
      <trkpt lat="44.92656" lon="5.41311">
        <ele>1103.5</ele>
        <time>2012-09-16T10:10:26Z</time>
      </trkpt>
      <trkpt lat="44.9265" lon="5.41309">
        <ele>1103.3</ele>
        <time>2012-09-16T10:10:28Z</time>
      </trkpt>
      <trkpt lat="44.9264" lon="5.41307">
        <ele>1102.5</ele>
        <time>2012-09-16T10:10:32Z</time>
      </trkpt>
      <trkpt lat="44.92626" lon="5.41309">
        <ele>1101.5</ele>
        <time>2012-09-16T10:10:37Z</time>
      </trkpt>
      <trkpt lat="44.92614" lon="5.41308">
        <ele>1100.5</ele>
        <time>2012-09-16T10:10:41Z</time>
      </trkpt>
      <trkpt lat="44.92603" lon="5.41301">
        <ele>1099.4</ele>
        <time>2012-09-16T10:10:44Z</time>
      </trkpt>
      <trkpt lat="44.92584" lon="5.41283">
        <ele>1097.5</ele>
        <time>2012-09-16T10:10:50Z</time>
      </trkpt>
      <trkpt lat="44.92571" lon="5.41275">
        <ele>1097</ele>
        <time>2012-09-16T10:10:55Z</time>
      </trkpt>
      <trkpt lat="44.92563" lon="5.41275">
        <ele>1098.5</ele>
        <time>2012-09-16T10:11:10Z</time>
      </trkpt>
      <trkpt lat="44.9256" lon="5.41272">
        <ele>1098</ele>
        <time>2012-09-16T10:11:12Z</time>
      </trkpt>
      <trkpt lat="44.92548" lon="5.41264">
        <ele>1096.9</ele>
        <time>2012-09-16T10:11:18Z</time>
      </trkpt>
      <trkpt lat="44.92538" lon="5.41259">
        <ele>1095.8</ele>
        <time>2012-09-16T10:11:22Z</time>
      </trkpt>
      <trkpt lat="44.9253" lon="5.41257">
        <ele>1094.9</ele>
        <time>2012-09-16T10:11:25Z</time>
      </trkpt>
      <trkpt lat="44.92524" lon="5.41256">
        <ele>1093.9</ele>
        <time>2012-09-16T10:11:27Z</time>
      </trkpt>
      <trkpt lat="44.92511" lon="5.41258">
        <ele>1093.5</ele>
        <time>2012-09-16T10:11:30Z</time>
      </trkpt>
      <trkpt lat="44.92491" lon="5.41267">
        <ele>1092.5</ele>
        <time>2012-09-16T10:11:35Z</time>
      </trkpt>
      <trkpt lat="44.92463" lon="5.41276">
        <ele>1093.5</ele>
        <time>2012-09-16T10:11:43Z</time>
      </trkpt>
      <trkpt lat="44.92451" lon="5.41279">
        <ele>1094.9</ele>
        <time>2012-09-16T10:11:49Z</time>
      </trkpt>
      <trkpt lat="44.92444" lon="5.41278">
        <ele>1095.5</ele>
        <time>2012-09-16T10:11:54Z</time>
      </trkpt>
      <trkpt lat="44.92435" lon="5.41272">
        <ele>1095.3</ele>
        <time>2012-09-16T10:12:01Z</time>
      </trkpt>
      <trkpt lat="44.92421" lon="5.41258">
        <ele>1094.4</ele>
        <time>2012-09-16T10:12:09Z</time>
      </trkpt>
      <trkpt lat="44.92416" lon="5.41254">
        <ele>1094</ele>
        <time>2012-09-16T10:12:11Z</time>
      </trkpt>
      <trkpt lat="44.92405" lon="5.41249">
        <ele>1093.4</ele>
        <time>2012-09-16T10:12:14Z</time>
      </trkpt>
      <trkpt lat="44.92363" lon="5.41214">
        <ele>1091</ele>
        <time>2012-09-16T10:12:26Z</time>
      </trkpt>
      <trkpt lat="44.92356" lon="5.41206">
        <ele>1090.9</ele>
        <time>2012-09-16T10:12:28Z</time>
      </trkpt>
      <trkpt lat="44.92335" lon="5.41175">
        <ele>1091.5</ele>
        <time>2012-09-16T10:12:38Z</time>
      </trkpt>
      <trkpt lat="44.92329" lon="5.41161">
        <ele>1093</ele>
        <time>2012-09-16T10:12:45Z</time>
      </trkpt>
      <trkpt lat="44.92328" lon="5.41157">
        <ele>1093.5</ele>
        <time>2012-09-16T10:12:47Z</time>
      </trkpt>
      <trkpt lat="44.9233" lon="5.41126">
        <ele>1092.4</ele>
        <time>2012-09-16T10:13:02Z</time>
      </trkpt>
      <trkpt lat="44.92327" lon="5.41106">
        <ele>1093.3</ele>
        <time>2012-09-16T10:13:12Z</time>
      </trkpt>
      <trkpt lat="44.92325" lon="5.41099">
        <ele>1093.4</ele>
        <time>2012-09-16T10:13:16Z</time>
      </trkpt>
      <trkpt lat="44.92315" lon="5.41063">
        <ele>1092.8</ele>
        <time>2012-09-16T10:13:32Z</time>
      </trkpt>
      <trkpt lat="44.92313" lon="5.41054">
        <ele>1094.8</ele>
        <time>2012-09-16T10:13:36Z</time>
      </trkpt>
      <trkpt lat="44.92308" lon="5.41038">
        <ele>1099</ele>
        <time>2012-09-16T10:13:44Z</time>
      </trkpt>
      <trkpt lat="44.92302" lon="5.41012">
        <ele>1103.5</ele>
        <time>2012-09-16T10:13:56Z</time>
      </trkpt>
      <trkpt lat="44.923" lon="5.40998">
        <ele>1105.9</ele>
        <time>2012-09-16T10:14:03Z</time>
      </trkpt>
      <trkpt lat="44.92297" lon="5.40986">
        <ele>1106</ele>
        <time>2012-09-16T10:14:09Z</time>
      </trkpt>
      <trkpt lat="44.92292" lon="5.40977">
        <ele>1106.5</ele>
        <time>2012-09-16T10:14:13Z</time>
      </trkpt>
      <trkpt lat="44.92276" lon="5.40947">
        <ele>1101</ele>
        <time>2012-09-16T10:14:29Z</time>
      </trkpt>
      <trkpt lat="44.92268" lon="5.40939">
        <ele>1099.5</ele>
        <time>2012-09-16T10:14:37Z</time>
      </trkpt>
      <trkpt lat="44.92258" lon="5.40927">
        <ele>1100.8</ele>
        <time>2012-09-16T10:14:46Z</time>
      </trkpt>
      <trkpt lat="44.92253" lon="5.40916">
        <ele>1101</ele>
        <time>2012-09-16T10:14:52Z</time>
      </trkpt>
      <trkpt lat="44.92249" lon="5.40904">
        <ele>1101.5</ele>
        <time>2012-09-16T10:14:59Z</time>
      </trkpt>
      <trkpt lat="44.92247" lon="5.40895">
        <ele>1102.3</ele>
        <time>2012-09-16T10:15:04Z</time>
      </trkpt>
      <trkpt lat="44.9224" lon="5.40881">
        <ele>1103.5</ele>
        <time>2012-09-16T10:15:13Z</time>
      </trkpt>
      <trkpt lat="44.92227" lon="5.40863">
        <ele>1104.5</ele>
        <time>2012-09-16T10:15:26Z</time>
      </trkpt>
      <trkpt lat="44.92216" lon="5.40855">
        <ele>1106.5</ele>
        <time>2012-09-16T10:15:35Z</time>
      </trkpt>
      <trkpt lat="44.92212" lon="5.40849">
        <ele>1107</ele>
        <time>2012-09-16T10:15:40Z</time>
      </trkpt>
      <trkpt lat="44.92203" lon="5.40846">
        <ele>1108.3</ele>
        <time>2012-09-16T10:15:47Z</time>
      </trkpt>
      <trkpt lat="44.92197" lon="5.40848">
        <ele>1109</ele>
        <time>2012-09-16T10:15:52Z</time>
      </trkpt>
      <trkpt lat="44.92186" lon="5.40853">
        <ele>1111</ele>
        <time>2012-09-16T10:16:01Z</time>
      </trkpt>
      <trkpt lat="44.92175" lon="5.40856">
        <ele>1111.8</ele>
        <time>2012-09-16T10:16:09Z</time>
      </trkpt>
      <trkpt lat="44.92168" lon="5.40858">
        <ele>1112</ele>
        <time>2012-09-16T10:16:14Z</time>
      </trkpt>
      <trkpt lat="44.92154" lon="5.40865">
        <ele>1112.8</ele>
        <time>2012-09-16T10:16:25Z</time>
      </trkpt>
      <trkpt lat="44.92144" lon="5.40871">
        <ele>1112.8</ele>
        <time>2012-09-16T10:16:32Z</time>
      </trkpt>
      <trkpt lat="44.92124" lon="5.40886">
        <ele>1113.5</ele>
        <time>2012-09-16T10:16:45Z</time>
      </trkpt>
      <trkpt lat="44.92115" lon="5.40898">
        <ele>1114</ele>
        <time>2012-09-16T10:16:52Z</time>
      </trkpt>
      <trkpt lat="44.92108" lon="5.40913">
        <ele>1113.5</ele>
        <time>2012-09-16T10:17:00Z</time>
      </trkpt>
      <trkpt lat="44.92098" lon="5.40938">
        <ele>1111.5</ele>
        <time>2012-09-16T10:17:12Z</time>
      </trkpt>
      <trkpt lat="44.92095" lon="5.40952">
        <ele>1111.5</ele>
        <time>2012-09-16T10:17:17Z</time>
      </trkpt>
      <trkpt lat="44.92087" lon="5.40994">
        <ele>1112.5</ele>
        <time>2012-09-16T10:17:31Z</time>
      </trkpt>
      <trkpt lat="44.92081" lon="5.41025">
        <ele>1113.3</ele>
        <time>2012-09-16T10:17:42Z</time>
      </trkpt>
      <trkpt lat="44.9208" lon="5.41036">
        <ele>1112.9</ele>
        <time>2012-09-16T10:17:45Z</time>
      </trkpt>
      <trkpt lat="44.92083" lon="5.41066">
        <ele>1111.8</ele>
        <time>2012-09-16T10:17:52Z</time>
      </trkpt>
      <trkpt lat="44.92081" lon="5.41082">
        <ele>1111.9</ele>
        <time>2012-09-16T10:17:56Z</time>
      </trkpt>
      <trkpt lat="44.92076" lon="5.41096">
        <ele>1111.9</ele>
        <time>2012-09-16T10:18:01Z</time>
      </trkpt>
      <trkpt lat="44.92065" lon="5.41107">
        <ele>1112.8</ele>
        <time>2012-09-16T10:18:08Z</time>
      </trkpt>
      <trkpt lat="44.92055" lon="5.41112">
        <ele>1112.8</ele>
        <time>2012-09-16T10:18:12Z</time>
      </trkpt>
      <trkpt lat="44.92023" lon="5.41138">
        <ele>1113.3</ele>
        <time>2012-09-16T10:18:21Z</time>
      </trkpt>
      <trkpt lat="44.92014" lon="5.41142">
        <ele>1112.9</ele>
        <time>2012-09-16T10:18:23Z</time>
      </trkpt>
      <trkpt lat="44.92" lon="5.41144">
        <ele>1112.5</ele>
        <time>2012-09-16T10:18:26Z</time>
      </trkpt>
      <trkpt lat="44.91996" lon="5.41146">
        <ele>1112.5</ele>
        <time>2012-09-16T10:18:27Z</time>
      </trkpt>
      <trkpt lat="44.9198" lon="5.41157">
        <ele>1111.9</ele>
        <time>2012-09-16T10:18:31Z</time>
      </trkpt>
      <trkpt lat="44.91964" lon="5.41165">
        <ele>1110.5</ele>
        <time>2012-09-16T10:18:36Z</time>
      </trkpt>
      <trkpt lat="44.91956" lon="5.41165">
        <ele>1110.4</ele>
        <time>2012-09-16T10:18:39Z</time>
      </trkpt>
      <trkpt lat="44.9195" lon="5.41159">
        <ele>1112.4</ele>
        <time>2012-09-16T10:18:42Z</time>
      </trkpt>
      <trkpt lat="44.91947" lon="5.41149">
        <ele>1111.8</ele>
        <time>2012-09-16T10:18:45Z</time>
      </trkpt>
      <trkpt lat="44.91945" lon="5.41143">
        <ele>1112.9</ele>
        <time>2012-09-16T10:18:46Z</time>
      </trkpt>
      <trkpt lat="44.91941" lon="5.41114">
        <ele>1112.3</ele>
        <time>2012-09-16T10:18:51Z</time>
      </trkpt>
      <trkpt lat="44.91936" lon="5.41098">
        <ele>1110.5</ele>
        <time>2012-09-16T10:18:54Z</time>
      </trkpt>
      <trkpt lat="44.9193" lon="5.41081">
        <ele>1109.8</ele>
        <time>2012-09-16T10:18:57Z</time>
      </trkpt>
      <trkpt lat="44.91919" lon="5.41061">
        <ele>1110.5</ele>
        <time>2012-09-16T10:19:03Z</time>
      </trkpt>
      <trkpt lat="44.91914" lon="5.41054">
        <ele>1112</ele>
        <time>2012-09-16T10:19:08Z</time>
      </trkpt>
      <trkpt lat="44.9191" lon="5.41045">
        <ele>1113.9</ele>
        <time>2012-09-16T10:19:13Z</time>
      </trkpt>
      <trkpt lat="44.91893" lon="5.41033">
        <ele>1113.8</ele>
        <time>2012-09-16T10:19:27Z</time>
      </trkpt>
      <trkpt lat="44.91885" lon="5.4103">
        <ele>1114.5</ele>
        <time>2012-09-16T10:19:31Z</time>
      </trkpt>
      <trkpt lat="44.9188" lon="5.41018">
        <ele>1115.4</ele>
        <time>2012-09-16T10:19:35Z</time>
      </trkpt>
      <trkpt lat="44.91881" lon="5.41009">
        <ele>1115.4</ele>
        <time>2012-09-16T10:19:37Z</time>
      </trkpt>
      <trkpt lat="44.9188" lon="5.40998">
        <ele>1116.3</ele>
        <time>2012-09-16T10:19:39Z</time>
      </trkpt>
      <trkpt lat="44.91878" lon="5.40988">
        <ele>1116</ele>
        <time>2012-09-16T10:19:41Z</time>
      </trkpt>
      <trkpt lat="44.9187" lon="5.40963">
        <ele>1119</ele>
        <time>2012-09-16T10:19:46Z</time>
      </trkpt>
      <trkpt lat="44.91868" lon="5.40953">
        <ele>1118.9</ele>
        <time>2012-09-16T10:19:48Z</time>
      </trkpt>
      <trkpt lat="44.91868" lon="5.40922">
        <ele>1119.8</ele>
        <time>2012-09-16T10:19:54Z</time>
      </trkpt>
      <trkpt lat="44.91867" lon="5.40901">
        <ele>1117.8</ele>
        <time>2012-09-16T10:19:58Z</time>
      </trkpt>
      <trkpt lat="44.91866" lon="5.4088">
        <ele>1114</ele>
        <time>2012-09-16T10:20:02Z</time>
      </trkpt>
      <trkpt lat="44.91864" lon="5.40862">
        <ele>1109.9</ele>
        <time>2012-09-16T10:20:06Z</time>
      </trkpt>
      <trkpt lat="44.91858" lon="5.40854">
        <ele>1108</ele>
        <time>2012-09-16T10:20:09Z</time>
      </trkpt>
      <trkpt lat="44.91846" lon="5.40848">
        <ele>1106.3</ele>
        <time>2012-09-16T10:20:13Z</time>
      </trkpt>
      <trkpt lat="44.91825" lon="5.40842">
        <ele>1103.4</ele>
        <time>2012-09-16T10:20:19Z</time>
      </trkpt>
      <trkpt lat="44.91803" lon="5.40839">
        <ele>1100.5</ele>
        <time>2012-09-16T10:20:24Z</time>
      </trkpt>
      <trkpt lat="44.91779" lon="5.40832">
        <ele>1098</ele>
        <time>2012-09-16T10:20:29Z</time>
      </trkpt>
      <trkpt lat="44.91775" lon="5.40832">
        <ele>1097.8</ele>
        <time>2012-09-16T10:20:30Z</time>
      </trkpt>
      <trkpt lat="44.91766" lon="5.40834">
        <ele>1097</ele>
        <time>2012-09-16T10:20:32Z</time>
      </trkpt>
      <trkpt lat="44.91747" lon="5.40843">
        <ele>1095</ele>
        <time>2012-09-16T10:20:36Z</time>
      </trkpt>
      <trkpt lat="44.91678" lon="5.40856">
        <ele>1091.9</ele>
        <time>2012-09-16T10:20:47Z</time>
      </trkpt>
      <trkpt lat="44.91646" lon="5.40856">
        <ele>1093</ele>
        <time>2012-09-16T10:20:54Z</time>
      </trkpt>
      <trkpt lat="44.91636" lon="5.40852">
        <ele>1094</ele>
        <time>2012-09-16T10:20:56Z</time>
      </trkpt>
      <trkpt lat="44.91631" lon="5.40849">
        <ele>1094.5</ele>
        <time>2012-09-16T10:20:57Z</time>
      </trkpt>
      <trkpt lat="44.9162" lon="5.40836">
        <ele>1096</ele>
        <time>2012-09-16T10:21:00Z</time>
      </trkpt>
      <trkpt lat="44.91614" lon="5.40822">
        <ele>1096</ele>
        <time>2012-09-16T10:21:03Z</time>
      </trkpt>
      <trkpt lat="44.91612" lon="5.4081">
        <ele>1095</ele>
        <time>2012-09-16T10:21:05Z</time>
      </trkpt>
      <trkpt lat="44.91613" lon="5.40797">
        <ele>1094</ele>
        <time>2012-09-16T10:21:07Z</time>
      </trkpt>
      <trkpt lat="44.91618" lon="5.40774">
        <ele>1095.3</ele>
        <time>2012-09-16T10:21:11Z</time>
      </trkpt>
      <trkpt lat="44.91617" lon="5.40761">
        <ele>1096.4</ele>
        <time>2012-09-16T10:21:15Z</time>
      </trkpt>
      <trkpt lat="44.91615" lon="5.40752">
        <ele>1096.8</ele>
        <time>2012-09-16T10:21:19Z</time>
      </trkpt>
      <trkpt lat="44.91616" lon="5.40736">
        <ele>1100.5</ele>
        <time>2012-09-16T10:21:27Z</time>
      </trkpt>
      <trkpt lat="44.91614" lon="5.40717">
        <ele>1103.5</ele>
        <time>2012-09-16T10:21:37Z</time>
      </trkpt>
      <trkpt lat="44.91612" lon="5.40708">
        <ele>1104.5</ele>
        <time>2012-09-16T10:21:40Z</time>
      </trkpt>
      <trkpt lat="44.91606" lon="5.40696">
        <ele>1104.5</ele>
        <time>2012-09-16T10:21:44Z</time>
      </trkpt>
      <trkpt lat="44.91596" lon="5.40691">
        <ele>1102</ele>
        <time>2012-09-16T10:21:47Z</time>
      </trkpt>
      <trkpt lat="44.91578" lon="5.40687">
        <ele>1095.5</ele>
        <time>2012-09-16T10:21:51Z</time>
      </trkpt>
      <trkpt lat="44.91574" lon="5.40687">
        <ele>1094.8</ele>
        <time>2012-09-16T10:21:52Z</time>
      </trkpt>
      <trkpt lat="44.91566" lon="5.40695">
        <ele>1093.3</ele>
        <time>2012-09-16T10:21:56Z</time>
      </trkpt>
      <trkpt lat="44.91553" lon="5.40719">
        <ele>1096.4</ele>
        <time>2012-09-16T10:22:06Z</time>
      </trkpt>
      <trkpt lat="44.91546" lon="5.40728">
        <ele>1098</ele>
        <time>2012-09-16T10:22:11Z</time>
      </trkpt>
      <trkpt lat="44.91534" lon="5.40739">
        <ele>1101</ele>
        <time>2012-09-16T10:22:18Z</time>
      </trkpt>
      <trkpt lat="44.91529" lon="5.40749">
        <ele>1101.5</ele>
        <time>2012-09-16T10:22:24Z</time>
      </trkpt>
      <trkpt lat="44.91521" lon="5.40757">
        <ele>1101.5</ele>
        <time>2012-09-16T10:22:29Z</time>
      </trkpt>
      <trkpt lat="44.91512" lon="5.40764">
        <ele>1100.8</ele>
        <time>2012-09-16T10:22:35Z</time>
      </trkpt>
      <trkpt lat="44.91508" lon="5.40766">
        <ele>1099.9</ele>
        <time>2012-09-16T10:22:37Z</time>
      </trkpt>
      <trkpt lat="44.91476" lon="5.40773">
        <ele>1094.5</ele>
        <time>2012-09-16T10:22:47Z</time>
      </trkpt>
      <trkpt lat="44.91458" lon="5.40776">
        <ele>1092.5</ele>
        <time>2012-09-16T10:22:51Z</time>
      </trkpt>
      <trkpt lat="44.91451" lon="5.40776">
        <ele>1091.5</ele>
        <time>2012-09-16T10:22:53Z</time>
      </trkpt>
      <trkpt lat="44.9144" lon="5.40769">
        <ele>1089.4</ele>
        <time>2012-09-16T10:22:56Z</time>
      </trkpt>
      <trkpt lat="44.9142" lon="5.4075">
        <ele>1087</ele>
        <time>2012-09-16T10:23:01Z</time>
      </trkpt>
      <trkpt lat="44.91405" lon="5.40727">
        <ele>1086</ele>
        <time>2012-09-16T10:23:05Z</time>
      </trkpt>
      <trkpt lat="44.91401" lon="5.40723">
        <ele>1087</ele>
        <time>2012-09-16T10:23:06Z</time>
      </trkpt>
      <trkpt lat="44.91389" lon="5.40711">
        <ele>1087.8</ele>
        <time>2012-09-16T10:23:09Z</time>
      </trkpt>
      <trkpt lat="44.91381" lon="5.407">
        <ele>1087.9</ele>
        <time>2012-09-16T10:23:12Z</time>
      </trkpt>
      <trkpt lat="44.91378" lon="5.40693">
        <ele>1088.3</ele>
        <time>2012-09-16T10:23:14Z</time>
      </trkpt>
      <trkpt lat="44.91371" lon="5.40667">
        <ele>1095.5</ele>
        <time>2012-09-16T10:23:27Z</time>
      </trkpt>
      <trkpt lat="44.91372" lon="5.40654">
        <ele>1099.8</ele>
        <time>2012-09-16T10:23:34Z</time>
      </trkpt>
      <trkpt lat="44.91369" lon="5.40643">
        <ele>1101</ele>
        <time>2012-09-16T10:23:42Z</time>
      </trkpt>
      <trkpt lat="44.91364" lon="5.40637">
        <ele>1099.9</ele>
        <time>2012-09-16T10:23:46Z</time>
      </trkpt>
      <trkpt lat="44.91357" lon="5.40633">
        <ele>1099</ele>
        <time>2012-09-16T10:23:52Z</time>
      </trkpt>
      <trkpt lat="44.91344" lon="5.4063">
        <ele>1098.3</ele>
        <time>2012-09-16T10:24:02Z</time>
      </trkpt>
      <trkpt lat="44.91329" lon="5.40618">
        <ele>1101.5</ele>
        <time>2012-09-16T10:24:18Z</time>
      </trkpt>
      <trkpt lat="44.91307" lon="5.40608">
        <ele>1100.5</ele>
        <time>2012-09-16T10:24:36Z</time>
      </trkpt>
      <trkpt lat="44.91296" lon="5.40601">
        <ele>1100.3</ele>
        <time>2012-09-16T10:24:43Z</time>
      </trkpt>
      <trkpt lat="44.91282" lon="5.40587">
        <ele>1100.9</ele>
        <time>2012-09-16T10:24:53Z</time>
      </trkpt>
      <trkpt lat="44.91271" lon="5.40581">
        <ele>1101.5</ele>
        <time>2012-09-16T10:25:00Z</time>
      </trkpt>
      <trkpt lat="44.9126" lon="5.40579">
        <ele>1102.5</ele>
        <time>2012-09-16T10:25:06Z</time>
      </trkpt>
      <trkpt lat="44.91245" lon="5.40582">
        <ele>1105.3</ele>
        <time>2012-09-16T10:25:17Z</time>
      </trkpt>
      <trkpt lat="44.91233" lon="5.40589">
        <ele>1106.8</ele>
        <time>2012-09-16T10:25:25Z</time>
      </trkpt>
      <trkpt lat="44.91224" lon="5.40593">
        <ele>1107</ele>
        <time>2012-09-16T10:25:29Z</time>
      </trkpt>
      <trkpt lat="44.91213" lon="5.40594">
        <ele>1106.9</ele>
        <time>2012-09-16T10:25:34Z</time>
      </trkpt>
      <trkpt lat="44.91193" lon="5.40587">
        <ele>1107</ele>
        <time>2012-09-16T10:25:45Z</time>
      </trkpt>
      <trkpt lat="44.91178" lon="5.40577">
        <ele>1108.9</ele>
        <time>2012-09-16T10:25:55Z</time>
      </trkpt>
      <trkpt lat="44.91173" lon="5.40572">
        <ele>1109.5</ele>
        <time>2012-09-16T10:26:00Z</time>
      </trkpt>
      <trkpt lat="44.91166" lon="5.40566">
        <ele>1110</ele>
        <time>2012-09-16T10:26:05Z</time>
      </trkpt>
      <trkpt lat="44.91151" lon="5.40557">
        <ele>1111</ele>
        <time>2012-09-16T10:26:14Z</time>
      </trkpt>
      <trkpt lat="44.91131" lon="5.4055">
        <ele>1111</ele>
        <time>2012-09-16T10:26:25Z</time>
      </trkpt>
      <trkpt lat="44.91121" lon="5.40544">
        <ele>1111.5</ele>
        <time>2012-09-16T10:26:32Z</time>
      </trkpt>
      <trkpt lat="44.911" lon="5.40526">
        <ele>1115</ele>
        <time>2012-09-16T10:26:47Z</time>
      </trkpt>
      <trkpt lat="44.91093" lon="5.40523">
        <ele>1116</ele>
        <time>2012-09-16T10:26:52Z</time>
      </trkpt>
      <trkpt lat="44.91067" lon="5.40512">
        <ele>1117.5</ele>
        <time>2012-09-16T10:27:10Z</time>
      </trkpt>
      <trkpt lat="44.91054" lon="5.40507">
        <ele>1118.8</ele>
        <time>2012-09-16T10:27:17Z</time>
      </trkpt>
      <trkpt lat="44.91027" lon="5.40501">
        <ele>1116.9</ele>
        <time>2012-09-16T10:27:30Z</time>
      </trkpt>
      <trkpt lat="44.9102" lon="5.40501">
        <ele>1117</ele>
        <time>2012-09-16T10:27:33Z</time>
      </trkpt>
      <trkpt lat="44.91003" lon="5.40504">
        <ele>1117</ele>
        <time>2012-09-16T10:27:40Z</time>
      </trkpt>
      <trkpt lat="44.90997" lon="5.40508">
        <ele>1116.4</ele>
        <time>2012-09-16T10:27:42Z</time>
      </trkpt>
      <trkpt lat="44.90981" lon="5.40523">
        <ele>1114.4</ele>
        <time>2012-09-16T10:27:46Z</time>
      </trkpt>
      <trkpt lat="44.90976" lon="5.40527">
        <ele>1114</ele>
        <time>2012-09-16T10:27:47Z</time>
      </trkpt>
      <trkpt lat="44.90956" lon="5.40534">
        <ele>1113.5</ele>
        <time>2012-09-16T10:27:50Z</time>
      </trkpt>
      <trkpt lat="44.90949" lon="5.40533">
        <ele>1113.3</ele>
        <time>2012-09-16T10:27:51Z</time>
      </trkpt>
      <trkpt lat="44.90938" lon="5.40528">
        <ele>1112.8</ele>
        <time>2012-09-16T10:27:53Z</time>
      </trkpt>
      <trkpt lat="44.90929" lon="5.4052">
        <ele>1112</ele>
        <time>2012-09-16T10:27:55Z</time>
      </trkpt>
      <trkpt lat="44.90925" lon="5.40515">
        <ele>1111.8</ele>
        <time>2012-09-16T10:27:56Z</time>
      </trkpt>
      <trkpt lat="44.90898" lon="5.4047">
        <ele>1109.5</ele>
        <time>2012-09-16T10:28:03Z</time>
      </trkpt>
      <trkpt lat="44.90856" lon="5.40402">
        <ele>1107.9</ele>
        <time>2012-09-16T10:28:14Z</time>
      </trkpt>
      <trkpt lat="44.90852" lon="5.40396">
        <ele>1107.3</ele>
        <time>2012-09-16T10:28:15Z</time>
      </trkpt>
      <trkpt lat="44.90842" lon="5.40388">
        <ele>1106.5</ele>
        <time>2012-09-16T10:28:17Z</time>
      </trkpt>
      <trkpt lat="44.90819" lon="5.40378">
        <ele>1104.5</ele>
        <time>2012-09-16T10:28:22Z</time>
      </trkpt>
      <trkpt lat="44.90816" lon="5.40391">
        <ele>1102.5</ele>
        <time>2012-09-16T10:28:29Z</time>
      </trkpt>
    </trkseg>
  </trk>
</gpx>